Wetterdaten: Montag, 18.12.2017
Datum Zeit Temp. A. Pool Temp. Feuchte A. Luftdruck Regen Wind Richtung Richtung Sonnenschein ET UV Solar Taupunkt Windchill Windben Empfang
18.12.2017 00:00 0,4 C 3,9 C 88 % 1024,7 hPa 0,0 l/m 16,7 km/h (3 Bft) W-SW 244 0 min 0,000 mm 0,0 UV-I 0 W/m -1,3 C -7,5 C 20,9 km/h (4 Bft) 92,86 %
18.12.2017 00:01 0,4 C 3,9 C 88 % 1024,7 hPa 0,0 l/m 15,1 km/h (3 Bft) W-SW 258 0 min 0,000 mm 0,0 UV-I 0 W/m -1,3 C -6,6 C 19,3 km/h (3 Bft) 95,65 %
18.12.2017 00:02 0,4 C 3,9 C 88 % 1024,7 hPa 0,0 l/m 19,0 km/h (3 Bft) W-SW 254 0 min 0,000 mm 0,0 UV-I 0 W/m -1,3 C -8,6 C 24,1 km/h (4 Bft) 100,00 %
18.12.2017 00:03 0,4 C 3,9 C 89 % 1024,8 hPa 0,0 l/m 14,2 km/h (3 Bft) SW 220 0 min 0,000 mm 0,0 UV-I 0 W/m -1,2 C -6,0 C 17,7 km/h (3 Bft) 96,30 %
18.12.2017 00:04 0,4 C 3,9 C 89 % 1024,8 hPa 0,0 l/m 20,6 km/h (4 Bft) W 274 0 min 0,000 mm 0,0 UV-I 0 W/m -1,2 C -9,4 C 27,4 km/h (4 Bft) 96,55 %
18.12.2017 00:05 0,3 C 3,9 C 89 % 1024,7 hPa 0,0 l/m 17,3 km/h (3 Bft) W 270 0 min 0,000 mm 0,0 UV-I 0 W/m -1,3 C -7,9 C 25,7 km/h (4 Bft) 91,67 %
18.12.2017 00:06 0,3 C 3,9 C 89 % 1024,7 hPa 0,0 l/m 18,2 km/h (3 Bft) W 269 0 min 0,000 mm 0,0 UV-I 0 W/m -1,3 C -8,4 C 25,7 km/h (4 Bft) 100,00 %
18.12.2017 00:07 0,3 C 3,9 C 89 % 1024,7 hPa 0,0 l/m 15,9 km/h (3 Bft) W-SW 248 0 min 0,000 mm 0,0 UV-I 0 W/m -1,3 C -7,1 C 24,1 km/h (4 Bft) 96,30 %
18.12.2017 00:08 0,3 C 3,9 C 90 % 1024,8 hPa 0,0 l/m 16,7 km/h (3 Bft) W 265 0 min 0,000 mm 0,0 UV-I 0 W/m -1,1 C -7,6 C 20,9 km/h (4 Bft) 100,00 %
18.12.2017 00:09 0,3 C 3,9 C 90 % 1024,7 hPa 0,0 l/m 15,3 km/h (3 Bft) SW 226 0 min 0,000 mm 0,0 UV-I 0 W/m -1,1 C -6,8 C 20,9 km/h (4 Bft) 96,67 %
18.12.2017 00:10 0,2 C 3,9 C 90 % 1024,7 hPa 0,0 l/m 15,6 km/h (3 Bft) W-SW 246 0 min 0,000 mm 0,0 UV-I 0 W/m -1,2 C -7,1 C 27,4 km/h (4 Bft) 96,15 %
18.12.2017 00:11 0,2 C 3,9 C 90 % 1024,7 hPa 0,0 l/m 17,6 km/h (3 Bft) W-SW 257 0 min 0,000 mm 0,0 UV-I 0 W/m -1,2 C -8,2 C 27,4 km/h (4 Bft) 100,00 %
18.12.2017 00:12 0,1 C 3,9 C 91 % 1024,7 hPa 0,0 l/m 16,5 km/h (3 Bft) W-SW 243 0 min 0,000 mm 0,0 UV-I 0 W/m -1,2 C -7,7 C 24,1 km/h (4 Bft) 91,30 %
18.12.2017 00:13 0,1 C 3,9 C 91 % 1024,7 hPa 0,0 l/m 19,7 km/h (3 Bft) W-SW 244 0 min 0,000 mm 0,0 UV-I 0 W/m -1,2 C -9,4 C 25,7 km/h (4 Bft) 100,00 %
18.12.2017 00:14 0,1 C 3,9 C 91 % 1024,7 hPa 0,0 l/m 18,3 km/h (3 Bft) W-SW 252 0 min 0,000 mm 0,0 UV-I 0 W/m -1,2 C -8,7 C 25,7 km/h (4 Bft) 100,00 %
18.12.2017 00:15 0,0 C 3,9 C 92 % 1024,7 hPa 0,0 l/m 19,4 km/h (3 Bft) W 272 0 min 0,000 mm 0,0 UV-I 0 W/m -1,1 C -9,3 C 29,0 km/h (5 Bft) 100,00 %
18.12.2017 00:16 -0,1 C 3,9 C 92 % 1024,7 hPa 0,0 l/m 14,3 km/h (3 Bft) W-SW 248 0 min 0,000 mm 0,0 UV-I 0 W/m -1,2 C -6,7 C 19,3 km/h (3 Bft) 95,65 %
18.12.2017 00:17 -0,1 C 3,9 C 92 % 1024,7 hPa 0,0 l/m 14,5 km/h (3 Bft) W-SW 247 0 min 0,000 mm 0,0 UV-I 0 W/m -1,2 C -6,8 C 19,3 km/h (3 Bft) 100,00 %
18.12.2017 00:18 -0,1 C 3,9 C 92 % 1024,8 hPa 0,0 l/m 17,2 km/h (3 Bft) W 270 0 min 0,000 mm 0,0 UV-I 0 W/m -1,2 C -8,4 C 20,9 km/h (4 Bft) 100,00 %
18.12.2017 00:19 -0,2 C 3,9 C 93 % 1024,7 hPa 0,0 l/m 19,6 km/h (3 Bft) W-SW 240 0 min 0,000 mm 0,0 UV-I 0 W/m -1,2 C -9,7 C 24,1 km/h (4 Bft) 96,30 %
18.12.2017 00:20 -0,2 C 3,9 C 93 % 1024,7 hPa 0,0 l/m 17,5 km/h (3 Bft) W-SW 249 0 min 0,000 mm 0,0 UV-I 0 W/m -1,2 C -8,6 C 22,5 km/h (4 Bft) 100,00 %
18.12.2017 00:21 -0,2 C 3,9 C 93 % 1024,7 hPa 0,0 l/m 13,2 km/h (3 Bft) SW 231 0 min 0,000 mm 0,0 UV-I 0 W/m -1,2 C -6,1 C 17,7 km/h (3 Bft) 100,00 %
18.12.2017 00:22 -0,2 C 3,9 C 93 % 1024,7 hPa 0,0 l/m 16,9 km/h (3 Bft) SW 232 0 min 0,000 mm 0,0 UV-I 0 W/m -1,2 C -8,3 C 22,5 km/h (4 Bft) 96,55 %
18.12.2017 00:23 -0,2 C 3,9 C 93 % 1024,7 hPa 0,0 l/m 13,7 km/h (3 Bft) SW 232 0 min 0,000 mm 0,0 UV-I 0 W/m -1,2 C -6,4 C 17,7 km/h (3 Bft) 100,00 %
18.12.2017 00:24 -0,2 C 3,9 C 93 % 1024,7 hPa 0,0 l/m 14,9 km/h (3 Bft) SW 234 0 min 0,000 mm 0,0 UV-I 0 W/m -1,2 C -7,2 C 19,3 km/h (3 Bft) 100,00 %
18.12.2017 00:25 -0,2 C 3,9 C 93 % 1024,7 hPa 0,0 l/m 16,5 km/h (3 Bft) W-SW 257 0 min 0,000 mm 0,0 UV-I 0 W/m -1,2 C -8,1 C 19,3 km/h (3 Bft) 95,65 %
18.12.2017 00:26 -0,2 C 3,9 C 93 % 1024,7 hPa 0,0 l/m 15,8 km/h (3 Bft) W-SW 258 0 min 0,000 mm 0,0 UV-I 0 W/m -1,2 C -7,7 C 20,9 km/h (4 Bft) 100,00 %
18.12.2017 00:27 -0,3 C 3,9 C 94 % 1024,7 hPa 0,0 l/m 15,3 km/h (3 Bft) W-SW 258 0 min 0,000 mm 0,0 UV-I 0 W/m -1,1 C -7,5 C 20,9 km/h (4 Bft) 100,00 %
18.12.2017 00:28 -0,3 C 3,9 C 94 % 1024,7 hPa 0,0 l/m 11,3 km/h (2 Bft) SW 236 0 min 0,000 mm 0,0 UV-I 0 W/m -1,1 C -4,8 C 16,1 km/h (3 Bft) 100,00 %
18.12.2017 00:29 -0,3 C 3,9 C 94 % 1024,7 hPa 0,0 l/m 13,6 km/h (3 Bft) S-SW 212 0 min 0,000 mm 0,0 UV-I 0 W/m -1,1 C -6,5 C 19,3 km/h (3 Bft) 100,00 %
18.12.2017 00:30 -0,3 C 3,9 C 94 % 1024,7 hPa 0,0 l/m 12,3 km/h (3 Bft) W-SW 257 0 min 0,000 mm 0,0 UV-I 0 W/m -1,1 C -5,6 C 20,9 km/h (4 Bft) 100,00 %
18.12.2017 00:31 -0,3 C 3,9 C 94 % 1024,7 hPa 0,0 l/m 17,5 km/h (3 Bft) W-SW 258 0 min 0,000 mm 0,0 UV-I 0 W/m -1,1 C -8,8 C 24,1 km/h (4 Bft) 100,00 %
18.12.2017 00:32 -0,3 C 3,9 C 94 % 1024,7 hPa 0,0 l/m 13,2 km/h (3 Bft) SW 236 0 min 0,000 mm 0,0 UV-I 0 W/m -1,1 C -6,2 C 17,7 km/h (3 Bft) 100,00 %
18.12.2017 00:33 -0,3 C 3,9 C 94 % 1024,7 hPa 0,0 l/m 14,1 km/h (3 Bft) W-SW 245 0 min 0,000 mm 0,0 UV-I 0 W/m -1,1 C -6,8 C 16,1 km/h (3 Bft) 100,00 %
18.12.2017 00:34 -0,3 C 3,9 C 94 % 1024,6 hPa 0,0 l/m 12,4 km/h (3 Bft) W-SW 250 0 min 0,000 mm 0,0 UV-I 0 W/m -1,1 C -5,6 C 19,3 km/h (3 Bft) 100,00 %
18.12.2017 00:35 -0,3 C 3,9 C 94 % 1024,6 hPa 0,0 l/m 15,7 km/h (3 Bft) SW 221 0 min 0,000 mm 0,0 UV-I 0 W/m -1,1 C -7,8 C 20,9 km/h (4 Bft) 100,00 %
18.12.2017 00:36 -0,3 C 3,9 C 94 % 1024,6 hPa 0,0 l/m 17,4 km/h (3 Bft) W-SW 238 0 min 0,000 mm 0,0 UV-I 0 W/m -1,1 C -8,7 C 22,5 km/h (4 Bft) 100,00 %
18.12.2017 00:37 -0,3 C 3,9 C 94 % 1024,7 hPa 0,0 l/m 15,3 km/h (3 Bft) SW 235 0 min 0,000 mm 0,0 UV-I 0 W/m -1,1 C -7,5 C 19,3 km/h (3 Bft) 100,00 %
18.12.2017 00:38 -0,3 C 3,9 C 94 % 1024,6 hPa 0,0 l/m 19,4 km/h (3 Bft) W-SW 249 0 min 0,000 mm 0,0 UV-I 0 W/m -1,1 C -9,7 C 25,7 km/h (4 Bft) 100,00 %
18.12.2017 00:39 -0,3 C 3,9 C 94 % 1024,6 hPa 0,0 l/m 12,8 km/h (3 Bft) SW 219 0 min 0,000 mm 0,0 UV-I 0 W/m -1,1 C -5,9 C 16,1 km/h (3 Bft) 100,00 %
18.12.2017 00:40 -0,3 C 3,9 C 94 % 1024,6 hPa 0,0 l/m 13,0 km/h (3 Bft) W-SW 244 0 min 0,000 mm 0,0 UV-I 0 W/m -1,1 C -6,1 C 20,9 km/h (4 Bft) 96,15 %
18.12.2017 00:41 -0,3 C 3,9 C 94 % 1024,6 hPa 0,0 l/m 15,2 km/h (3 Bft) S 180 0 min 0,000 mm 0,0 UV-I 0 W/m -1,1 C -7,5 C 19,3 km/h (3 Bft) 100,00 %
18.12.2017 00:42 -0,3 C 3,9 C 94 % 1024,6 hPa 0,0 l/m 17,2 km/h (3 Bft) W-SW 237 0 min 0,000 mm 0,0 UV-I 0 W/m -1,1 C -8,6 C 24,1 km/h (4 Bft) 100,00 %
18.12.2017 00:43 -0,3 C 3,9 C 94 % 1024,6 hPa 0,0 l/m 18,7 km/h (3 Bft) SW 226 0 min 0,000 mm 0,0 UV-I 0 W/m -1,1 C -9,4 C 22,5 km/h (4 Bft) 100,00 %
18.12.2017 00:44 -0,3 C 3,9 C 94 % 1024,5 hPa 0,0 l/m 17,1 km/h (3 Bft) W-SW 254 0 min 0,000 mm 0,0 UV-I 0 W/m -1,1 C -8,6 C 20,9 km/h (4 Bft) 100,00 %
18.12.2017 00:45 -0,3 C 3,9 C 94 % 1024,5 hPa 0,0 l/m 22,3 km/h (4 Bft) W-SW 250 0 min 0,000 mm 0,0 UV-I 0 W/m -1,1 C -11,0 C 30,6 km/h (5 Bft) 95,83 %
18.12.2017 00:46 -0,3 C 3,9 C 94 % 1024,5 hPa 0,0 l/m 17,9 km/h (3 Bft) SW 236 0 min 0,000 mm 0,0 UV-I 0 W/m -1,1 C -9,0 C 20,9 km/h (4 Bft) 100,00 %
18.12.2017 00:47 -0,3 C 3,9 C 94 % 1024,5 hPa 0,0 l/m 15,5 km/h (3 Bft) SW 234 0 min 0,000 mm 0,0 UV-I 0 W/m -1,1 C -7,6 C 22,5 km/h (4 Bft) 100,00 %
18.12.2017 00:48 -0,3 C 3,9 C 94 % 1024,5 hPa 0,0 l/m 19,8 km/h (3 Bft) SW 233 0 min 0,000 mm 0,0 UV-I 0 W/m -1,1 C -9,9 C 25,7 km/h (4 Bft) 100,00 %
18.12.2017 00:49 -0,3 C 3,9 C 94 % 1024,5 hPa 0,0 l/m 12,3 km/h (3 Bft) SW 220 0 min 0,000 mm 0,0 UV-I 0 W/m -1,1 C -5,6 C 17,7 km/h (3 Bft) 95,83 %
18.12.2017 00:50 -0,3 C 3,9 C 94 % 1024,6 hPa 0,0 l/m 16,2 km/h (3 Bft) W-SW 250 0 min 0,000 mm 0,0 UV-I 0 W/m -1,1 C -8,1 C 20,9 km/h (4 Bft) 100,00 %
18.12.2017 00:51 -0,3 C 3,9 C 94 % 1024,6 hPa 0,0 l/m 13,3 km/h (3 Bft) W-SW 243 0 min 0,000 mm 0,0 UV-I 0 W/m -1,1 C -6,3 C 17,7 km/h (3 Bft) 100,00 %
18.12.2017 00:52 -0,3 C 3,9 C 94 % 1024,6 hPa 0,0 l/m 17,5 km/h (3 Bft) SW 234 0 min 0,000 mm 0,0 UV-I 0 W/m -1,1 C -8,8 C 22,5 km/h (4 Bft) 91,30 %
18.12.2017 00:53 -0,3 C 3,9 C 94 % 1024,6 hPa 0,0 l/m 15,8 km/h (3 Bft) W 267 0 min 0,000 mm 0,0 UV-I 0 W/m -1,1 C -7,8 C 19,3 km/h (3 Bft) 100,00 %
18.12.2017 00:54 -0,3 C 3,9 C 94 % 1024,6 hPa 0,0 l/m 16,9 km/h (3 Bft) W-SW 240 0 min 0,000 mm 0,0 UV-I 0 W/m -1,1 C -8,4 C 20,9 km/h (4 Bft) 100,00 %
18.12.2017 00:55 -0,3 C 3,9 C 94 % 1024,5 hPa 0,0 l/m 15,6 km/h (3 Bft) W-SW 239 0 min 0,000 mm 0,0 UV-I 0 W/m -1,1 C -7,7 C 19,3 km/h (3 Bft) 100,00 %
18.12.2017 00:56 -0,3 C 3,9 C 94 % 1024,5 hPa 0,0 l/m 14,6 km/h (3 Bft) SW 218 0 min 0,000 mm 0,0 UV-I 0 W/m -1,1 C -7,1 C 19,3 km/h (3 Bft) 100,00 %
18.12.2017 00:57 -0,3 C 3,9 C 94 % 1024,5 hPa 0,0 l/m 15,5 km/h (3 Bft) W-SW 240 0 min 0,000 mm 0,0 UV-I 0 W/m -1,1 C -7,6 C 24,1 km/h (4 Bft) 100,00 %
18.12.2017 00:58 -0,3 C 3,9 C 94 % 1024,6 hPa 0,0 l/m 16,0 km/h (3 Bft) SW 236 0 min 0,000 mm 0,0 UV-I 0 W/m -1,1 C -7,9 C 22,5 km/h (4 Bft) 100,00 %
18.12.2017 00:59 -0,3 C 3,9 C 94 % 1024,6 hPa 0,0 l/m 15,7 km/h (3 Bft) W-SW 257 0 min 0,000 mm 0,0 UV-I 0 W/m -1,1 C -7,8 C 22,5 km/h (4 Bft) 100,00 %
18.12.2017 01:00 -0,3 C 3,9 C 94 % 1024,6 hPa 0,0 l/m 11,9 km/h (2 Bft) SW 236 0 min 0,000 mm 0,0 UV-I 0 W/m -1,1 C -5,3 C 16,1 km/h (3 Bft) 100,00 %
18.12.2017 01:01 -0,3 C 3,9 C 94 % 1024,6 hPa 0,0 l/m 11,0 km/h (2 Bft) SW 223 0 min 0,000 mm 0,0 UV-I 0 W/m -1,1 C -4,6 C 16,1 km/h (3 Bft) 100,00 %
18.12.2017 01:02 -0,2 C 3,9 C 94 % 1024,6 hPa 0,0 l/m 13,1 km/h (3 Bft) W-SW 242 0 min 0,000 mm 0,0 UV-I 0 W/m -1,0 C -6,0 C 16,1 km/h (3 Bft) 100,00 %
18.12.2017 01:03 -0,3 C 3,9 C 94 % 1024,6 hPa 0,0 l/m 13,6 km/h (3 Bft) S-SW 202 0 min 0,000 mm 0,0 UV-I 0 W/m -1,1 C -6,5 C 19,3 km/h (3 Bft) 100,00 %
18.12.2017 01:04 -0,2 C 3,9 C 94 % 1024,6 hPa 0,0 l/m 15,4 km/h (3 Bft) S-SW 202 0 min 0,000 mm 0,0 UV-I 0 W/m -1,0 C -7,5 C 19,3 km/h (3 Bft) 100,00 %
18.12.2017 01:05 -0,3 C 3,9 C 94 % 1024,6 hPa 0,0 l/m 11,1 km/h (2 Bft) S-SW 212 0 min 0,000 mm 0,0 UV-I 0 W/m -1,1 C -4,7 C 17,7 km/h (3 Bft) 100,00 %
18.12.2017 01:06 -0,3 C 3,9 C 94 % 1024,6 hPa 0,0 l/m 15,9 km/h (3 Bft) SW 228 0 min 0,000 mm 0,0 UV-I 0 W/m -1,1 C -7,9 C 20,9 km/h (4 Bft) 100,00 %
18.12.2017 01:07 -0,3 C 3,9 C 94 % 1024,6 hPa 0,0 l/m 14,7 km/h (3 Bft) W-SW 243 0 min 0,000 mm 0,0 UV-I 0 W/m -1,1 C -7,2 C 22,5 km/h (4 Bft) 81,82 %
18.12.2017 01:08 -0,3 C 3,9 C 94 % 1024,7 hPa 0,0 l/m 16,2 km/h (3 Bft) W-SW 254 0 min 0,000 mm 0,0 UV-I 0 W/m -1,1 C -8,1 C 22,5 km/h (4 Bft) 100,00 %
18.12.2017 01:09 -0,2 C 3,9 C 94 % 1024,7 hPa 0,0 l/m 17,3 km/h (3 Bft) S-SW 198 0 min 0,000 mm 0,0 UV-I 0 W/m -1,0 C -8,5 C 22,5 km/h (4 Bft) 92,31 %
18.12.2017 01:10 -0,2 C 3,9 C 94 % 1024,6 hPa 0,0 l/m 14,1 km/h (3 Bft) SW 225 0 min 0,000 mm 0,0 UV-I 0 W/m -1,0 C -6,7 C 16,1 km/h (3 Bft) 93,33 %
18.12.2017 01:11 -0,3 C 3,9 C 94 % 1024,6 hPa 0,0 l/m 18,4 km/h (3 Bft) W-SW 243 0 min 0,000 mm 0,0 UV-I 0 W/m -1,1 C -9,2 C 22,5 km/h (4 Bft) 100,00 %
18.12.2017 01:12 -0,3 C 3,9 C 94 % 1024,6 hPa 0,0 l/m 17,2 km/h (3 Bft) W-SW 246 0 min 0,000 mm 0,0 UV-I 0 W/m -1,1 C -8,6 C 24,1 km/h (4 Bft) 95,83 %
18.12.2017 01:13 -0,3 C 3,9 C 94 % 1024,6 hPa 0,0 l/m 19,0 km/h (3 Bft) SW 236 0 min 0,000 mm 0,0 UV-I 0 W/m -1,1 C -9,5 C 24,1 km/h (4 Bft) 100,00 %
18.12.2017 01:14 -0,3 C 3,9 C 94 % 1024,6 hPa 0,0 l/m 18,8 km/h (3 Bft) SW 223 0 min 0,000 mm 0,0 UV-I 0 W/m -1,1 C -9,4 C 22,5 km/h (4 Bft) 100,00 %
18.12.2017 01:15 -0,3 C 3,9 C 94 % 1024,6 hPa 0,0 l/m 18,4 km/h (3 Bft) W-SW 256 0 min 0,000 mm 0,0 UV-I 0 W/m -1,1 C -9,2 C 24,1 km/h (4 Bft) 97,73 %
18.12.2017 01:16 -0,3 C 3,9 C 94 % 1024,6 hPa 0,0 l/m 17,5 km/h (3 Bft) S-SW 212 0 min 0,000 mm 0,0 UV-I 0 W/m -1,1 C -8,8 C 20,9 km/h (4 Bft) 93,33 %
18.12.2017 01:17 -0,3 C 3,9 C 94 % 1024,6 hPa 0,0 l/m 14,4 km/h (3 Bft) W 261 0 min 0,000 mm 0,0 UV-I 0 W/m -1,1 C -7,0 C 24,1 km/h (4 Bft) 100,00 %
18.12.2017 01:18 -0,3 C 3,9 C 94 % 1024,6 hPa 0,0 l/m 15,3 km/h (3 Bft) SW 229 0 min 0,000 mm 0,0 UV-I 0 W/m -1,1 C -7,5 C 19,3 km/h (3 Bft) 92,59 %
18.12.2017 01:19 -0,3 C 3,9 C 94 % 1024,6 hPa 0,0 l/m 14,5 km/h (3 Bft) W-SW 242 0 min 0,000 mm 0,0 UV-I 0 W/m -1,1 C -7,0 C 20,9 km/h (4 Bft) 100,00 %
18.12.2017 01:20 -0,3 C 3,9 C 94 % 1024,6 hPa 0,0 l/m 18,6 km/h (3 Bft) SW 234 0 min 0,000 mm 0,0 UV-I 0 W/m -1,1 C -9,3 C 22,5 km/h (4 Bft) 96,30 %
18.12.2017 01:21 -0,3 C 3,9 C 94 % 1024,5 hPa 0,0 l/m 14,6 km/h (3 Bft) W-SW 242 0 min 0,000 mm 0,0 UV-I 0 W/m -1,1 C -7,1 C 22,5 km/h (4 Bft) 100,00 %
18.12.2017 01:22 -0,3 C 3,9 C 94 % 1024,6 hPa 0,0 l/m 15,0 km/h (3 Bft) W-SW 244 0 min 0,000 mm 0,0 UV-I 0 W/m -1,1 C -7,3 C 20,9 km/h (4 Bft) 96,15 %
18.12.2017 01:23 -0,3 C 3,9 C 94 % 1024,5 hPa 0,0 l/m 17,5 km/h (3 Bft) S-SW 207 0 min 0,000 mm 0,0 UV-I 0 W/m -1,1 C -8,8 C 22,5 km/h (4 Bft) 95,83 %
18.12.2017 01:24 -0,3 C 3,9 C 94 % 1024,5 hPa 0,0 l/m 11,0 km/h (2 Bft) S-SW 213 0 min 0,000 mm 0,0 UV-I 0 W/m -1,1 C -4,6 C 17,7 km/h (3 Bft) 100,00 %
18.12.2017 01:25 -0,3 C 3,9 C 94 % 1024,5 hPa 0,0 l/m 14,3 km/h (3 Bft) SW 225 0 min 0,000 mm 0,0 UV-I 0 W/m -1,1 C -6,9 C 20,9 km/h (4 Bft) 96,00 %
18.12.2017 01:26 -0,3 C 3,9 C 94 % 1024,5 hPa 0,0 l/m 12,1 km/h (2 Bft) SW 217 0 min 0,000 mm 0,0 UV-I 0 W/m -1,1 C -5,4 C 16,1 km/h (3 Bft) 100,00 %
18.12.2017 01:27 -0,3 C 3,9 C 94 % 1024,5 hPa 0,0 l/m 14,9 km/h (3 Bft) W-SW 248 0 min 0,000 mm 0,0 UV-I 0 W/m -1,1 C -7,3 C 20,9 km/h (4 Bft) 95,83 %
18.12.2017 01:28 -0,3 C 3,9 C 94 % 1024,5 hPa 0,0 l/m 10,6 km/h (2 Bft) W-SW 244 0 min 0,000 mm 0,0 UV-I 0 W/m -1,1 C -4,3 C 17,7 km/h (3 Bft) 100,00 %
18.12.2017 01:29 -0,3 C 3,9 C 94 % 1024,5 hPa 0,0 l/m 12,3 km/h (3 Bft) W-SW 252 0 min 0,000 mm 0,0 UV-I 0 W/m -1,1 C -5,6 C 17,7 km/h (3 Bft) 96,30 %
18.12.2017 01:30 -0,3 C 3,9 C 94 % 1024,4 hPa 0,0 l/m 16,1 km/h (3 Bft) SW 227 0 min 0,000 mm 0,0 UV-I 0 W/m -1,1 C -8,0 C 22,5 km/h (4 Bft) 93,75 %
18.12.2017 01:31 -0,3 C 3,9 C 94 % 1024,5 hPa 0,0 l/m 17,0 km/h (3 Bft) W-SW 250 0 min 0,000 mm 0,0 UV-I 0 W/m -1,1 C -8,5 C 24,1 km/h (4 Bft) 100,00 %
18.12.2017 01:32 -0,3 C 3,9 C 94 % 1024,5 hPa 0,0 l/m 14,8 km/h (3 Bft) W-SW 251 0 min 0,000 mm 0,0 UV-I 0 W/m -1,1 C -7,2 C 19,3 km/h (3 Bft) 100,00 %
18.12.2017 01:33 -0,3 C 3,9 C 94 % 1024,5 hPa 0,0 l/m 18,3 km/h (3 Bft) SW 228 0 min 0,000 mm 0,0 UV-I 0 W/m -1,1 C -9,2 C 25,7 km/h (4 Bft) 96,97 %
18.12.2017 01:34 -0,3 C 3,9 C 94 % 1024,4 hPa 0,0 l/m 17,0 km/h (3 Bft) SW 214 0 min 0,000 mm 0,0 UV-I 0 W/m -1,1 C -8,5 C 25,7 km/h (4 Bft) 90,91 %
18.12.2017 01:35 -0,3 C 3,9 C 94 % 1024,4 hPa 0,0 l/m 14,2 km/h (3 Bft) SW 232 0 min 0,000 mm 0,0 UV-I 0 W/m -1,1 C -6,8 C 20,9 km/h (4 Bft) 86,67 %
18.12.2017 01:36 -0,3 C 3,9 C 94 % 1024,4 hPa 0,0 l/m 11,9 km/h (2 Bft) SW 235 0 min 0,000 mm 0,0 UV-I 0 W/m -1,1 C -5,3 C 20,9 km/h (4 Bft) 97,37 %
18.12.2017 01:37 -0,3 C 3,9 C 94 % 1024,5 hPa 0,0 l/m 14,8 km/h (3 Bft) W-SW 256 0 min 0,000 mm 0,0 UV-I 0 W/m -1,1 C -7,2 C 20,9 km/h (4 Bft) 100,00 %
18.12.2017 01:38 -0,2 C 3,9 C 94 % 1024,5 hPa 0,0 l/m 15,2 km/h (3 Bft) SW 227 0 min 0,000 mm 0,0 UV-I 0 W/m -1,0 C -7,3 C 24,1 km/h (4 Bft) 95,65 %
18.12.2017 01:39 -0,2 C 3,9 C 94 % 1024,5 hPa 0,0 l/m 16,0 km/h (3 Bft) SW 219 0 min 0,000 mm 0,0 UV-I 0 W/m -1,0 C -7,8 C 20,9 km/h (4 Bft) 95,83 %
18.12.2017 01:40 -0,2 C 3,9 C 94 % 1024,5 hPa 0,0 l/m 18,5 km/h (3 Bft) SW 217 0 min 0,000 mm 0,0 UV-I 0 W/m -1,0 C -9,2 C 22,5 km/h (4 Bft) 94,44 %
18.12.2017 01:41 -0,2 C 3,9 C 93 % 1024,5 hPa 0,0 l/m 15,3 km/h (3 Bft) W-SW 238 0 min 0,000 mm 0,0 UV-I 0 W/m -1,2 C -7,4 C 22,5 km/h (4 Bft) 95,65 %
18.12.2017 01:42 -0,2 C 3,9 C 93 % 1024,5 hPa 0,0 l/m 14,4 km/h (3 Bft) SW 235 0 min 0,000 mm 0,0 UV-I 0 W/m -1,2 C -6,9 C 17,7 km/h (3 Bft) 92,59 %
18.12.2017 01:43 -0,2 C 3,9 C 93 % 1024,5 hPa 0,0 l/m 18,6 km/h (3 Bft) SW 232 0 min 0,000 mm 0,0 UV-I 0 W/m -1,2 C -9,2 C 25,7 km/h (4 Bft) 96,55 %
18.12.2017 01:44 -0,2 C 3,9 C 93 % 1024,5 hPa 0,0 l/m 15,0 km/h (3 Bft) W-SW 242 0 min 0,000 mm 0,0 UV-I 0 W/m -1,2 C -7,2 C 20,9 km/h (4 Bft) 93,33 %
18.12.2017 01:45 -0,2 C 3,9 C 93 % 1024,5 hPa 0,0 l/m 18,1 km/h (3 Bft) W-SW 243 0 min 0,000 mm 0,0 UV-I 0 W/m -1,2 C -9,0 C 24,1 km/h (4 Bft) 93,10 %
18.12.2017 01:46 -0,2 C 3,9 C 93 % 1024,5 hPa 0,0 l/m 17,3 km/h (3 Bft) W-SW 242 0 min 0,000 mm 0,0 UV-I 0 W/m -1,2 C -8,5 C 25,7 km/h (4 Bft) 100,00 %
18.12.2017 01:47 -0,2 C 3,9 C 93 % 1024,5 hPa 0,0 l/m 14,0 km/h (3 Bft) SW 236 0 min 0,000 mm 0,0 UV-I 0 W/m -1,2 C -6,6 C 19,3 km/h (3 Bft) 78,57 %
18.12.2017 01:48 -0,2 C 3,9 C 93 % 1024,5 hPa 0,0 l/m 18,5 km/h (3 Bft) W-SW 254 0 min 0,000 mm 0,0 UV-I 0 W/m -1,2 C -9,2 C 29,0 km/h (5 Bft) 100,00 %
18.12.2017 01:49 -0,2 C 3,9 C 93 % 1024,5 hPa 0,0 l/m 20,5 km/h (4 Bft) W 261 0 min 0,000 mm 0,0 UV-I 0 W/m -1,2 C -10,1 C 25,7 km/h (4 Bft) 92,31 %
18.12.2017 01:50 -0,2 C 3,9 C 93 % 1024,6 hPa 0,0 l/m 10,9 km/h (2 Bft) W-SW 252 0 min 0,000 mm 0,0 UV-I 0 W/m -1,2 C -4,4 C 19,3 km/h (3 Bft) 100,00 %
18.12.2017 01:51 -0,2 C 3,9 C 93 % 1024,6 hPa 0,0 l/m 16,7 km/h (3 Bft) W 263 0 min 0,000 mm 0,0 UV-I 0 W/m -1,2 C -8,2 C 27,4 km/h (4 Bft) 96,15 %
18.12.2017 01:52 -0,2 C 3,9 C 93 % 1024,6 hPa 0,0 l/m 18,8 km/h (3 Bft) SW 219 0 min 0,000 mm 0,0 UV-I 0 W/m -1,2 C -9,3 C 32,2 km/h (5 Bft) 100,00 %
18.12.2017 01:53 -0,1 C 3,9 C 93 % 1024,6 hPa 0,0 l/m 19,0 km/h (3 Bft) W-SW 243 0 min 0,000 mm 0,0 UV-I 0 W/m -1,1 C -9,3 C 27,4 km/h (4 Bft) 91,30 %
18.12.2017 01:54 -0,1 C 3,9 C 93 % 1024,6 hPa 0,0 l/m 16,4 km/h (3 Bft) SW 229 0 min 0,000 mm 0,0 UV-I 0 W/m -1,1 C -7,9 C 24,1 km/h (4 Bft) 91,67 %
18.12.2017 01:55 -0,1 C 3,9 C 92 % 1024,6 hPa 0,0 l/m 19,8 km/h (3 Bft) SW 228 0 min 0,000 mm 0,0 UV-I 0 W/m -1,2 C -9,7 C 25,7 km/h (4 Bft) 100,00 %
18.12.2017 01:56 -0,1 C 3,9 C 92 % 1024,6 hPa 0,0 l/m 15,2 km/h (3 Bft) SW 221 0 min 0,000 mm 0,0 UV-I 0 W/m -1,2 C -7,2 C 19,3 km/h (3 Bft) 91,67 %
18.12.2017 01:57 -0,1 C 3,9 C 92 % 1024,6 hPa 0,0 l/m 17,4 km/h (3 Bft) W-SW 244 0 min 0,000 mm 0,0 UV-I 0 W/m -1,2 C -8,5 C 29,0 km/h (5 Bft) 100,00 %
18.12.2017 01:58 -0,1 C 3,9 C 92 % 1024,6 hPa 0,0 l/m 19,0 km/h (3 Bft) SW 215 0 min 0,000 mm 0,0 UV-I 0 W/m -1,2 C -9,3 C 25,7 km/h (4 Bft) 93,10 %
18.12.2017 01:59 -0,2 C 3,9 C 92 % 1024,6 hPa 0,0 l/m 16,2 km/h (3 Bft) SW 217 0 min 0,000 mm 0,0 UV-I 0 W/m -1,3 C -7,9 C 20,9 km/h (4 Bft) 93,33 %
18.12.2017 02:00 -0,2 C 3,9 C 92 % 1024,6 hPa 0,0 l/m 18,1 km/h (3 Bft) SW 221 0 min 0,000 mm 0,0 UV-I 0 W/m -1,3 C -9,0 C 25,7 km/h (4 Bft) 93,10 %
18.12.2017 02:01 -0,2 C 3,9 C 92 % 1024,6 hPa 0,0 l/m 22,8 km/h (4 Bft) SW 221 0 min 0,000 mm 0,0 UV-I 0 W/m -1,3 C -11,1 C 29,0 km/h (5 Bft) 100,00 %
18.12.2017 02:02 -0,1 C 3,9 C 92 % 1024,6 hPa 0,0 l/m 19,6 km/h (3 Bft) W-SW 242 0 min 0,000 mm 0,0 UV-I 0 W/m -1,2 C -9,6 C 24,1 km/h (4 Bft) 66,67 %
18.12.2017 02:03 -0,2 C 3,9 C 92 % 1024,5 hPa 0,0 l/m 16,6 km/h (3 Bft) W-SW 246 0 min 0,000 mm 0,0 UV-I 0 W/m -1,3 C -8,2 C 20,9 km/h (4 Bft) 100,00 %
18.12.2017 02:04 -0,2 C 3,9 C 92 % 1024,5 hPa 0,0 l/m 15,4 km/h (3 Bft) SW 234 0 min 0,000 mm 0,0 UV-I 0 W/m -1,3 C -7,5 C 22,5 km/h (4 Bft) 92,31 %
18.12.2017 02:05 -0,2 C 3,9 C 92 % 1024,5 hPa 0,0 l/m 21,2 km/h (4 Bft) S-SW 198 0 min 0,000 mm 0,0 UV-I 0 W/m -1,3 C -10,4 C 29,0 km/h (5 Bft) 92,59 %
18.12.2017 02:06 -0,2 C 3,9 C 92 % 1024,5 hPa 0,0 l/m 16,2 km/h (3 Bft) W-SW 242 0 min 0,000 mm 0,0 UV-I 0 W/m -1,3 C -7,9 C 24,1 km/h (4 Bft) 96,55 %
18.12.2017 02:07 -0,2 C 3,9 C 92 % 1024,5 hPa 0,0 l/m 20,4 km/h (4 Bft) SW 235 0 min 0,000 mm 0,0 UV-I 0 W/m -1,3 C -10,1 C 27,4 km/h (4 Bft) 91,67 %
18.12.2017 02:08 -0,2 C 3,9 C 92 % 1024,4 hPa 0,0 l/m 16,9 km/h (3 Bft) W-SW 244 0 min 0,000 mm 0,0 UV-I 0 W/m -1,3 C -8,3 C 22,5 km/h (4 Bft) 95,65 %
18.12.2017 02:09 -0,2 C 3,9 C 92 % 1024,5 hPa 0,0 l/m 17,5 km/h (3 Bft) W-SW 238 0 min 0,000 mm 0,0 UV-I 0 W/m -1,3 C -8,6 C 22,5 km/h (4 Bft) 91,67 %
18.12.2017 02:10 -0,2 C 3,9 C 92 % 1024,5 hPa 0,0 l/m 18,0 km/h (3 Bft) W-SW 238 0 min 0,000 mm 0,0 UV-I 0 W/m -1,3 C -8,9 C 27,4 km/h (4 Bft) 100,00 %
18.12.2017 02:11 -0,2 C 3,9 C 92 % 1024,5 hPa 0,0 l/m 16,9 km/h (3 Bft) SW 236 0 min 0,000 mm 0,0 UV-I 0 W/m -1,3 C -8,3 C 27,4 km/h (4 Bft) 85,19 %
18.12.2017 02:12 -0,2 C 3,9 C 92 % 1024,5 hPa 0,0 l/m 16,1 km/h (3 Bft) SW 234 0 min 0,000 mm 0,0 UV-I 0 W/m -1,3 C -7,9 C 25,7 km/h (4 Bft) 96,15 %
18.12.2017 02:13 -0,2 C 3,9 C 92 % 1024,5 hPa 0,0 l/m 16,9 km/h (3 Bft) W-SW 257 0 min 0,000 mm 0,0 UV-I 0 W/m -1,3 C -8,3 C 19,3 km/h (3 Bft) 97,15 %
18.12.2017 02:14 -0,2 C 3,9 C 92 % 1024,6 hPa 0,0 l/m 14,5 km/h (3 Bft) SW 233 0 min 0,000 mm 0,0 UV-I 0 W/m -1,3 C -6,9 C 22,5 km/h (4 Bft) 95,12 %
18.12.2017 02:15 -0,2 C 3,9 C 92 % 1024,5 hPa 0,0 l/m 17,6 km/h (3 Bft) W-SW 241 0 min 0,000 mm 0,0 UV-I 0 W/m -1,3 C -8,7 C 27,4 km/h (4 Bft) 96,67 %
18.12.2017 02:16 -0,2 C 3,9 C 92 % 1024,5 hPa 0,0 l/m 17,6 km/h (3 Bft) SW 232 0 min 0,000 mm 0,0 UV-I 0 W/m -1,3 C -8,7 C 22,5 km/h (4 Bft) 97,12 %
18.12.2017 02:17 -0,2 C 3,9 C 92 % 1024,5 hPa 0,0 l/m 17,1 km/h (3 Bft) W-SW 247 0 min 0,000 mm 0,0 UV-I 0 W/m -1,3 C -8,4 C 25,7 km/h (4 Bft) 97,73 %
18.12.2017 02:18 -0,2 C 3,9 C 92 % 1024,5 hPa 0,0 l/m 18,1 km/h (3 Bft) SW 230 0 min 0,000 mm 0,0 UV-I 0 W/m -1,3 C -9,0 C 25,7 km/h (4 Bft) 96,15 %
18.12.2017 02:19 -0,2 C 3,9 C 92 % 1024,5 hPa 0,0 l/m 18,0 km/h (3 Bft) SW 225 0 min 0,000 mm 0,0 UV-I 0 W/m -1,3 C -8,9 C 24,1 km/h (4 Bft) 100,00 %
18.12.2017 02:20 -0,2 C 3,9 C 92 % 1024,5 hPa 0,0 l/m 23,6 km/h (4 Bft) W-SW 252 0 min 0,000 mm 0,0 UV-I 0 W/m -1,3 C -11,4 C 27,4 km/h (4 Bft) 100,00 %
18.12.2017 02:21 -0,2 C 3,9 C 92 % 1024,5 hPa 0,0 l/m 17,9 km/h (3 Bft) SW 232 0 min 0,000 mm 0,0 UV-I 0 W/m -1,3 C -8,9 C 24,1 km/h (4 Bft) 100,00 %
18.12.2017 02:22 -0,2 C 3,9 C 93 % 1024,5 hPa 0,0 l/m 14,3 km/h (3 Bft) SW 234 0 min 0,000 mm 0,0 UV-I 0 W/m -1,2 C -6,8 C 20,9 km/h (4 Bft) 95,65 %
18.12.2017 02:23 -0,2 C 3,9 C 93 % 1024,5 hPa 0,0 l/m 19,0 km/h (3 Bft) W-SW 246 0 min 0,000 mm 0,0 UV-I 0 W/m -1,2 C -9,4 C 24,1 km/h (4 Bft) 100,00 %
18.12.2017 02:24 -0,2 C 3,9 C 93 % 1024,5 hPa 0,0 l/m 20,8 km/h (4 Bft) SW 217 0 min 0,000 mm 0,0 UV-I 0 W/m -1,2 C -10,3 C 25,7 km/h (4 Bft) 100,00 %
18.12.2017 02:25 -0,2 C 3,9 C 93 % 1024,5 hPa 0,0 l/m 16,3 km/h (3 Bft) W 265 0 min 0,000 mm 0,0 UV-I 0 W/m -1,2 C -8,0 C 22,5 km/h (4 Bft) 93,33 %
18.12.2017 02:26 -0,2 C 3,9 C 93 % 1024,5 hPa 0,0 l/m 17,5 km/h (3 Bft) W-SW 248 0 min 0,000 mm 0,0 UV-I 0 W/m -1,2 C -8,6 C 22,5 km/h (4 Bft) 100,00 %
18.12.2017 02:27 -0,2 C 3,9 C 93 % 1024,5 hPa 0,0 l/m 15,6 km/h (3 Bft) SW 227 0 min 0,000 mm 0,0 UV-I 0 W/m -1,2 C -7,6 C 20,9 km/h (4 Bft) 100,00 %
18.12.2017 02:28 -0,2 C 3,9 C 93 % 1024,5 hPa 0,0 l/m 15,8 km/h (3 Bft) W-SW 244 0 min 0,000 mm 0,0 UV-I 0 W/m -1,2 C -7,7 C 20,9 km/h (4 Bft) 100,00 %
18.12.2017 02:29 -0,2 C 3,9 C 93 % 1024,5 hPa 0,0 l/m 17,4 km/h (3 Bft) W 261 0 min 0,000 mm 0,0 UV-I 0 W/m -1,2 C -8,6 C 29,0 km/h (5 Bft) 100,00 %
18.12.2017 02:30 -0,2 C 3,9 C 93 % 1024,4 hPa 0,0 l/m 11,4 km/h (2 Bft) W-SW 255 0 min 0,000 mm 0,0 UV-I 0 W/m -1,2 C -4,8 C 14,5 km/h (3 Bft) 100,00 %
18.12.2017 02:31 -0,2 C 3,9 C 93 % 1024,5 hPa 0,0 l/m 12,4 km/h (3 Bft) SW 214 0 min 0,000 mm 0,0 UV-I 0 W/m -1,2 C -5,5 C 16,1 km/h (3 Bft) 100,00 %
18.12.2017 02:32 -0,2 C 3,9 C 93 % 1024,5 hPa 0,0 l/m 13,5 km/h (3 Bft) SW 226 0 min 0,000 mm 0,0 UV-I 0 W/m -1,2 C -6,3 C 19,3 km/h (3 Bft) 100,00 %
18.12.2017 02:33 -0,2 C 3,9 C 93 % 1024,4 hPa 0,0 l/m 13,2 km/h (3 Bft) W 276 0 min 0,000 mm 0,0 UV-I 0 W/m -1,2 C -6,1 C 19,3 km/h (3 Bft) 100,00 %
18.12.2017 02:34 -0,2 C 3,9 C 93 % 1024,4 hPa 0,0 l/m 13,8 km/h (3 Bft) SW 233 0 min 0,000 mm 0,0 UV-I 0 W/m -1,2 C -6,5 C 19,3 km/h (3 Bft) 100,00 %
18.12.2017 02:35 -0,2 C 3,9 C 93 % 1024,4 hPa 0,0 l/m 19,4 km/h (3 Bft) W-SW 244 0 min 0,000 mm 0,0 UV-I 0 W/m -1,2 C -9,6 C 24,1 km/h (4 Bft) 100,00 %
18.12.2017 02:36 -0,2 C 3,9 C 93 % 1024,4 hPa 0,0 l/m 17,0 km/h (3 Bft) SW 220 0 min 0,000 mm 0,0 UV-I 0 W/m -1,2 C -8,4 C 24,1 km/h (4 Bft) 100,00 %
18.12.2017 02:37 -0,2 C 3,9 C 92 % 1024,4 hPa 0,0 l/m 16,7 km/h (3 Bft) SW 222 0 min 0,000 mm 0,0 UV-I 0 W/m -1,3 C -8,2 C 24,1 km/h (4 Bft) 100,00 %
18.12.2017 02:38 -0,2 C 3,9 C 92 % 1024,4 hPa 0,0 l/m 21,4 km/h (4 Bft) SW 216 0 min 0,000 mm 0,0 UV-I 0 W/m -1,3 C -10,5 C 30,6 km/h (5 Bft) 100,00 %
18.12.2017 02:39 -0,2 C 3,9 C 92 % 1024,4 hPa 0,0 l/m 14,2 km/h (3 Bft) SW 229 0 min 0,000 mm 0,0 UV-I 0 W/m -1,3 C -6,7 C 19,3 km/h (3 Bft) 100,00 %
18.12.2017 02:40 -0,2 C 3,9 C 92 % 1024,3 hPa 0,0 l/m 16,0 km/h (3 Bft) W-SW 237 0 min 0,000 mm 0,0 UV-I 0 W/m -1,3 C -7,8 C 22,5 km/h (4 Bft) 96,55 %
18.12.2017 02:41 -0,2 C 3,9 C 92 % 1024,3 hPa 0,0 l/m 14,6 km/h (3 Bft) S-SW 207 0 min 0,000 mm 0,0 UV-I 0 W/m -1,3 C -7,0 C 17,7 km/h (3 Bft) 100,00 %
18.12.2017 02:42 -0,2 C 3,9 C 92 % 1024,3 hPa 0,0 l/m 12,9 km/h (3 Bft) W-SW 247 0 min 0,000 mm 0,0 UV-I 0 W/m -1,3 C -5,9 C 20,9 km/h (4 Bft) 100,00 %
18.12.2017 02:43 -0,2 C 3,9 C 92 % 1024,3 hPa 0,0 l/m 13,9 km/h (3 Bft) W-SW 245 0 min 0,000 mm 0,0 UV-I 0 W/m -1,3 C -6,5 C 17,7 km/h (3 Bft) 96,30 %
18.12.2017 02:44 -0,2 C 3,9 C 92 % 1024,3 hPa 0,0 l/m 16,1 km/h (3 Bft) S-SW 207 0 min 0,000 mm 0,0 UV-I 0 W/m -1,3 C -7,9 C 20,9 km/h (4 Bft) 100,00 %
18.12.2017 02:45 -0,2 C 3,9 C 92 % 1024,3 hPa 0,0 l/m 21,6 km/h (4 Bft) SW 222 0 min 0,000 mm 0,0 UV-I 0 W/m -1,3 C -10,6 C 29,0 km/h (5 Bft) 100,00 %
18.12.2017 02:46 -0,2 C 3,9 C 92 % 1024,3 hPa 0,0 l/m 14,6 km/h (3 Bft) SW 215 0 min 0,000 mm 0,0 UV-I 0 W/m -1,3 C -7,0 C 25,7 km/h (4 Bft) 100,00 %
18.12.2017 02:47 -0,2 C 3,9 C 92 % 1024,3 hPa 0,0 l/m 13,6 km/h (3 Bft) SW 230 0 min 0,000 mm 0,0 UV-I 0 W/m -1,3 C -6,3 C 20,9 km/h (4 Bft) 100,00 %
18.12.2017 02:48 -0,2 C 3,9 C 92 % 1024,2 hPa 0,0 l/m 16,2 km/h (3 Bft) W-SW 237 0 min 0,000 mm 0,0 UV-I 0 W/m -1,3 C -7,9 C 25,7 km/h (4 Bft) 100,00 %
18.12.2017 02:49 -0,2 C 3,9 C 92 % 1024,2 hPa 0,0 l/m 16,8 km/h (3 Bft) SW 226 0 min 0,000 mm 0,0 UV-I 0 W/m -1,3 C -8,3 C 22,5 km/h (4 Bft) 100,00 %
18.12.2017 02:50 -0,2 C 3,9 C 92 % 1024,3 hPa 0,0 l/m 15,4 km/h (3 Bft) SW 219 0 min 0,000 mm 0,0 UV-I 0 W/m -1,3 C -7,5 C 20,9 km/h (4 Bft) 100,00 %
18.12.2017 02:51 -0,2 C 3,9 C 92 % 1024,3 hPa 0,0 l/m 14,7 km/h (3 Bft) SW 232 0 min 0,000 mm 0,0 UV-I 0 W/m -1,3 C -7,0 C 17,7 km/h (3 Bft) 100,00 %
18.12.2017 02:52 -0,2 C 3,9 C 92 % 1024,2 hPa 0,0 l/m 15,8 km/h (3 Bft) W-SW 244 0 min 0,000 mm 0,0 UV-I 0 W/m -1,3 C -7,7 C 20,9 km/h (4 Bft) 100,00 %
18.12.2017 02:53 -0,2 C 3,9 C 92 % 1024,2 hPa 0,0 l/m 16,6 km/h (3 Bft) W-SW 255 0 min 0,000 mm 0,0 UV-I 0 W/m -1,3 C -8,2 C 22,5 km/h (4 Bft) 95,83 %
18.12.2017 02:54 -0,2 C 3,9 C 92 % 1024,3 hPa 0,0 l/m 18,7 km/h (3 Bft) SW 230 0 min 0,000 mm 0,0 UV-I 0 W/m -1,3 C -9,3 C 25,7 km/h (4 Bft) 100,00 %
18.12.2017 02:55 -0,2 C 3,9 C 92 % 1024,2 hPa 0,0 l/m 18,2 km/h (3 Bft) SW 236 0 min 0,000 mm 0,0 UV-I 0 W/m -1,3 C -9,0 C 24,1 km/h (4 Bft) 100,00 %
18.12.2017 02:56 -0,2 C 3,9 C 92 % 1024,2 hPa 0,0 l/m 18,0 km/h (3 Bft) SW 219 0 min 0,000 mm 0,0 UV-I 0 W/m -1,3 C -8,9 C 27,4 km/h (4 Bft) 100,00 %
18.12.2017 02:57 -0,2 C 3,9 C 92 % 1024,3 hPa 0,0 l/m 17,0 km/h (3 Bft) W-SW 239 0 min 0,000 mm 0,0 UV-I 0 W/m -1,3 C -8,4 C 24,1 km/h (4 Bft) 100,00 %
18.12.2017 02:58 -0,2 C 3,9 C 91 % 1024,2 hPa 0,0 l/m 14,6 km/h (3 Bft) SW 225 0 min 0,000 mm 0,0 UV-I 0 W/m -1,5 C -7,0 C 22,5 km/h (4 Bft) 100,00 %
18.12.2017 02:59 -0,2 C 3,9 C 92 % 1024,2 hPa 0,0 l/m 17,9 km/h (3 Bft) W-SW 251 0 min 0,000 mm 0,0 UV-I 0 W/m -1,3 C -8,9 C 20,9 km/h (4 Bft) 100,00 %
18.12.2017 03:00 -0,2 C 3,9 C 92 % 1024,2 hPa 0,0 l/m 17,9 km/h (3 Bft) W-SW 242 0 min 0,000 mm 0,0 UV-I 0 W/m -1,3 C -8,9 C 22,5 km/h (4 Bft) 100,00 %
18.12.2017 03:01 -0,2 C 3,9 C 92 % 1024,2 hPa 0,0 l/m 15,8 km/h (3 Bft) S-SW 200 0 min 0,000 mm 0,0 UV-I 0 W/m -1,3 C -7,7 C 20,9 km/h (4 Bft) 100,00 %
18.12.2017 03:02 -0,2 C 3,9 C 92 % 1024,2 hPa 0,0 l/m 15,0 km/h (3 Bft) SW 227 0 min 0,000 mm 0,0 UV-I 0 W/m -1,3 C -7,2 C 19,3 km/h (3 Bft) 100,00 %
18.12.2017 03:03 -0,2 C 3,9 C 92 % 1024,2 hPa 0,0 l/m 14,1 km/h (3 Bft) SW 229 0 min 0,000 mm 0,0 UV-I 0 W/m -1,3 C -6,7 C 19,3 km/h (3 Bft) 91,67 %
18.12.2017 03:04 -0,2 C 3,9 C 92 % 1024,2 hPa 0,0 l/m 16,8 km/h (3 Bft) W-SW 248 0 min 0,000 mm 0,0 UV-I 0 W/m -1,3 C -8,3 C 20,9 km/h (4 Bft) 100,00 %
18.12.2017 03:05 -0,2 C 3,9 C 92 % 1024,2 hPa 0,0 l/m 16,2 km/h (3 Bft) SW 217 0 min 0,000 mm 0,0 UV-I 0 W/m -1,3 C -7,9 C 20,9 km/h (4 Bft) 100,00 %
18.12.2017 03:06 -0,2 C 3,9 C 92 % 1024,2 hPa 0,0 l/m 16,3 km/h (3 Bft) SW 219 0 min 0,000 mm 0,0 UV-I 0 W/m -1,3 C -8,0 C 24,1 km/h (4 Bft) 100,00 %
18.12.2017 03:07 -0,2 C 3,9 C 92 % 1024,2 hPa 0,0 l/m 14,9 km/h (3 Bft) SW 231 0 min 0,000 mm 0,0 UV-I 0 W/m -1,3 C -7,2 C 19,3 km/h (3 Bft) 100,00 %
18.12.2017 03:08 -0,2 C 3,9 C 92 % 1024,2 hPa 0,0 l/m 12,8 km/h (3 Bft) W-SW 244 0 min 0,000 mm 0,0 UV-I 0 W/m -1,3 C -5,8 C 16,1 km/h (3 Bft) 100,00 %
18.12.2017 03:09 -0,2 C 3,9 C 92 % 1024,2 hPa 0,0 l/m 17,2 km/h (3 Bft) W-SW 253 0 min 0,000 mm 0,0 UV-I 0 W/m -1,3 C -8,5 C 22,5 km/h (4 Bft) 100,00 %
18.12.2017 03:10 -0,2 C 3,9 C 92 % 1024,2 hPa 0,0 l/m 16,3 km/h (3 Bft) W 281 0 min 0,000 mm 0,0 UV-I 0 W/m -1,3 C -8,0 C 24,1 km/h (4 Bft) 100,00 %
18.12.2017 03:11 -0,2 C 3,9 C 92 % 1024,2 hPa 0,0 l/m 13,9 km/h (3 Bft) S-SW 199 0 min 0,000 mm 0,0 UV-I 0 W/m -1,3 C -6,5 C 17,7 km/h (3 Bft) 100,00 %
18.12.2017 03:12 -0,2 C 3,9 C 92 % 1024,1 hPa 0,0 l/m 15,4 km/h (3 Bft) W-SW 244 0 min 0,000 mm 0,0 UV-I 0 W/m -1,3 C -7,5 C 24,1 km/h (4 Bft) 100,00 %
18.12.2017 03:13 -0,2 C 3,9 C 92 % 1024,2 hPa 0,0 l/m 15,1 km/h (3 Bft) W-SW 254 0 min 0,000 mm 0,0 UV-I 0 W/m -1,3 C -7,3 C 22,5 km/h (4 Bft) 100,00 %
18.12.2017 03:14 -0,2 C 3,9 C 92 % 1024,2 hPa 0,0 l/m 14,8 km/h (3 Bft) SW 231 0 min 0,000 mm 0,0 UV-I 0 W/m -1,3 C -7,1 C 20,9 km/h (4 Bft) 100,00 %
18.12.2017 03:15 -0,2 C 3,9 C 91 % 1024,1 hPa 0,0 l/m 13,1 km/h (3 Bft) SW 234 0 min 0,000 mm 0,0 UV-I 0 W/m -1,5 C -6,0 C 16,1 km/h (3 Bft) 100,00 %
18.12.2017 03:16 -0,2 C 3,9 C 92 % 1024,2 hPa 0,0 l/m 17,4 km/h (3 Bft) W-SW 238 0 min 0,000 mm 0,0 UV-I 0 W/m -1,3 C -8,6 C 22,5 km/h (4 Bft) 100,00 %
18.12.2017 03:17 -0,1 C 3,9 C 91 % 1024,2 hPa 0,0 l/m 14,6 km/h (3 Bft) W-SW 252 0 min 0,000 mm 0,0 UV-I 0 W/m -1,4 C -6,9 C 19,3 km/h (3 Bft) 100,00 %
18.12.2017 03:18 -0,2 C 3,9 C 91 % 1024,2 hPa 0,0 l/m 12,0 km/h (2 Bft) SW 228 0 min 0,000 mm 0,0 UV-I 0 W/m -1,5 C -5,2 C 19,3 km/h (3 Bft) 100,00 %
18.12.2017 03:19 -0,2 C 3,9 C 91 % 1024,1 hPa 0,0 l/m 10,1 km/h (2 Bft) W 270 0 min 0,000 mm 0,0 UV-I 0 W/m -1,5 C -3,8 C 14,5 km/h (3 Bft) 100,00 %
18.12.2017 03:20 -0,2 C 3,9 C 92 % 1024,1 hPa 0,0 l/m 13,5 km/h (3 Bft) W-SW 249 0 min 0,000 mm 0,0 UV-I 0 W/m -1,3 C -6,3 C 17,7 km/h (3 Bft) 100,00 %
18.12.2017 03:21 -0,2 C 3,9 C 92 % 1024,1 hPa 0,0 l/m 16,2 km/h (3 Bft) S 186 0 min 0,000 mm 0,0 UV-I 0 W/m -1,3 C -7,9 C 22,5 km/h (4 Bft) 100,00 %
18.12.2017 03:22 -0,2 C 3,9 C 92 % 1024,1 hPa 0,0 l/m 17,1 km/h (3 Bft) W-SW 255 0 min 0,000 mm 0,0 UV-I 0 W/m -1,3 C -8,4 C 24,1 km/h (4 Bft) 100,00 %
18.12.2017 03:23 -0,2 C 3,9 C 91 % 1024,1 hPa 0,0 l/m 16,8 km/h (3 Bft) W-SW 244 0 min 0,000 mm 0,0 UV-I 0 W/m -1,5 C -8,3 C 20,9 km/h (4 Bft) 100,00 %
18.12.2017 03:24 -0,2 C 3,9 C 91 % 1024,1 hPa 0,0 l/m 14,4 km/h (3 Bft) SW 226 0 min 0,000 mm 0,0 UV-I 0 W/m -1,5 C -6,9 C 19,3 km/h (3 Bft) 97,92 %
18.12.2017 03:25 -0,2 C 3,9 C 91 % 1024,1 hPa 0,0 l/m 13,8 km/h (3 Bft) SW 219 0 min 0,000 mm 0,0 UV-I 0 W/m -1,5 C -6,5 C 19,3 km/h (3 Bft) 100,00 %
18.12.2017 03:26 -0,2 C 3,9 C 91 % 1024,1 hPa 0,0 l/m 12,1 km/h (2 Bft) SW 236 0 min 0,000 mm 0,0 UV-I 0 W/m -1,5 C -5,3 C 17,7 km/h (3 Bft) 100,00 %
18.12.2017 03:27 -0,2 C 3,9 C 91 % 1024,1 hPa 0,0 l/m 12,8 km/h (3 Bft) SW 225 0 min 0,000 mm 0,0 UV-I 0 W/m -1,5 C -5,8 C 16,1 km/h (3 Bft) 100,00 %
18.12.2017 03:28 -0,2 C 3,9 C 91 % 1024,1 hPa 0,0 l/m 20,5 km/h (4 Bft) SW 236 0 min 0,000 mm 0,0 UV-I 0 W/m -1,5 C -10,1 C 25,7 km/h (4 Bft) 100,00 %
18.12.2017 03:29 -0,2 C 3,9 C 91 % 1024,1 hPa 0,0 l/m 17,1 km/h (3 Bft) W-SW 256 0 min 0,000 mm 0,0 UV-I 0 W/m -1,5 C -8,4 C 20,9 km/h (4 Bft) 100,00 %
18.12.2017 03:30 -0,2 C 3,9 C 91 % 1024,1 hPa 0,0 l/m 11,6 km/h (2 Bft) W 264 0 min 0,000 mm 0,0 UV-I 0 W/m -1,5 C -4,9 C 17,7 km/h (3 Bft) 100,00 %
18.12.2017 03:31 -0,1 C 3,9 C 91 % 1024,1 hPa 0,0 l/m 18,2 km/h (3 Bft) W-SW 254 0 min 0,000 mm 0,0 UV-I 0 W/m -1,4 C -8,9 C 24,1 km/h (4 Bft) 100,00 %
18.12.2017 03:32 -0,1 C 3,9 C 90 % 1024,1 hPa 0,0 l/m 14,4 km/h (3 Bft) W-SW 241 0 min 0,000 mm 0,0 UV-I 0 W/m -1,5 C -6,7 C 19,3 km/h (3 Bft) 100,00 %
18.12.2017 03:33 -0,1 C 3,9 C 90 % 1024,1 hPa 0,0 l/m 13,0 km/h (3 Bft) S-SW 205 0 min 0,000 mm 0,0 UV-I 0 W/m -1,5 C -5,8 C 20,9 km/h (4 Bft) 100,00 %
18.12.2017 03:34 -0,2 C 3,9 C 90 % 1024,1 hPa 0,0 l/m 13,7 km/h (3 Bft) W 263 0 min 0,000 mm 0,0 UV-I 0 W/m -1,6 C -6,4 C 27,4 km/h (4 Bft) 100,00 %
18.12.2017 03:35 -0,2 C 3,9 C 90 % 1024,1 hPa 0,0 l/m 16,0 km/h (3 Bft) SW 234 0 min 0,000 mm 0,0 UV-I 0 W/m -1,6 C -7,8 C 22,5 km/h (4 Bft) 100,00 %
18.12.2017 03:36 -0,1 C 3,9 C 91 % 1024,1 hPa 0,0 l/m 17,4 km/h (3 Bft) W-SW 257 0 min 0,000 mm 0,0 UV-I 0 W/m -1,4 C -8,5 C 22,5 km/h (4 Bft) 95,65 %
18.12.2017 03:37 -0,1 C 3,9 C 90 % 1024,1 hPa 0,0 l/m 16,8 km/h (3 Bft) SW 230 0 min 0,000 mm 0,0 UV-I 0 W/m -1,5 C -8,1 C 22,5 km/h (4 Bft) 100,00 %
18.12.2017 03:38 -0,1 C 3,9 C 90 % 1024,1 hPa 0,0 l/m 14,5 km/h (3 Bft) W 262 0 min 0,000 mm 0,0 UV-I 0 W/m -1,5 C -6,8 C 19,3 km/h (3 Bft) 100,00 %
18.12.2017 03:39 -0,1 C 3,9 C 90 % 1024,1 hPa 0,0 l/m 18,3 km/h (3 Bft) S-SW 209 0 min 0,000 mm 0,0 UV-I 0 W/m -1,5 C -8,9 C 22,5 km/h (4 Bft) 95,65 %
18.12.2017 03:40 -0,1 C 3,9 C 90 % 1024,1 hPa 0,0 l/m 13,8 km/h (3 Bft) SW 215 0 min 0,000 mm 0,0 UV-I 0 W/m -1,5 C -6,4 C 20,9 km/h (4 Bft) 100,00 %
18.12.2017 03:41 -0,1 C 3,9 C 90 % 1024,0 hPa 0,0 l/m 15,4 km/h (3 Bft) SW 234 0 min 0,000 mm 0,0 UV-I 0 W/m -1,5 C -7,3 C 22,5 km/h (4 Bft) 96,30 %
18.12.2017 03:42 -0,1 C 3,9 C 90 % 1024,0 hPa 0,0 l/m 17,3 km/h (3 Bft) W-SW 240 0 min 0,000 mm 0,0 UV-I 0 W/m -1,5 C -8,4 C 22,5 km/h (4 Bft) 100,00 %
18.12.2017 03:43 -0,1 C 3,9 C 90 % 1024,0 hPa 0,0 l/m 16,8 km/h (3 Bft) W-SW 244 0 min 0,000 mm 0,0 UV-I 0 W/m -1,5 C -8,1 C 24,1 km/h (4 Bft) 100,00 %
18.12.2017 03:44 -0,1 C 3,9 C 90 % 1024,0 hPa 0,0 l/m 17,6 km/h (3 Bft) W-SW 249 0 min 0,000 mm 0,0 UV-I 0 W/m -1,5 C -8,6 C 22,5 km/h (4 Bft) 96,55 %
18.12.2017 03:45 -0,1 C 3,9 C 90 % 1024,0 hPa 0,0 l/m 10,9 km/h (2 Bft) W-SW 246 0 min 0,000 mm 0,0 UV-I 0 W/m -1,5 C -4,3 C 14,5 km/h (3 Bft) 100,00 %
18.12.2017 03:46 -0,1 C 3,9 C 90 % 1024,0 hPa 0,0 l/m 12,6 km/h (3 Bft) W-SW 237 0 min 0,000 mm 0,0 UV-I 0 W/m -1,5 C -5,5 C 17,7 km/h (3 Bft) 100,00 %
18.12.2017 03:47 -0,1 C 3,9 C 90 % 1024,0 hPa 0,0 l/m 12,0 km/h (2 Bft) W-SW 244 0 min 0,000 mm 0,0 UV-I 0 W/m -1,5 C -5,1 C 17,7 km/h (3 Bft) 100,00 %
18.12.2017 03:48 -0,1 C 3,9 C 90 % 1024,1 hPa 0,0 l/m 14,1 km/h (3 Bft) W-SW 250 0 min 0,000 mm 0,0 UV-I 0 W/m -1,5 C -6,5 C 17,7 km/h (3 Bft) 100,00 %
18.12.2017 03:49 -0,1 C 3,9 C 90 % 1024,1 hPa 0,0 l/m 15,4 km/h (3 Bft) SW 219 0 min 0,000 mm 0,0 UV-I 0 W/m -1,5 C -7,3 C 22,5 km/h (4 Bft) 95,65 %
18.12.2017 03:50 -0,1 C 3,9 C 90 % 1024,0 hPa 0,0 l/m 12,9 km/h (3 Bft) W-SW 252 0 min 0,000 mm 0,0 UV-I 0 W/m -1,5 C -5,8 C 16,1 km/h (3 Bft) 100,00 %
18.12.2017 03:51 -0,1 C 3,9 C 90 % 1024,0 hPa 0,0 l/m 13,8 km/h (3 Bft) SW 228 0 min 0,000 mm 0,0 UV-I 0 W/m -1,5 C -6,4 C 19,3 km/h (3 Bft) 95,65 %
18.12.2017 03:52 -0,1 C 3,9 C 90 % 1024,0 hPa 0,0 l/m 14,8 km/h (3 Bft) W 264 0 min 0,000 mm 0,0 UV-I 0 W/m -1,5 C -7,0 C 20,9 km/h (4 Bft) 100,00 %
18.12.2017 03:53 -0,1 C 3,9 C 90 % 1024,0 hPa 0,0 l/m 15,9 km/h (3 Bft) W-SW 242 0 min 0,000 mm 0,0 UV-I 0 W/m -1,5 C -7,6 C 19,3 km/h (3 Bft) 94,12 %
18.12.2017 03:54 -0,1 C 3,9 C 90 % 1024,0 hPa 0,0 l/m 11,6 km/h (2 Bft) W-SW 244 0 min 0,000 mm 0,0 UV-I 0 W/m -1,5 C -4,8 C 16,1 km/h (3 Bft) 100,00 %
18.12.2017 03:55 -0,1 C 3,9 C 91 % 1024,0 hPa 0,0 l/m 14,0 km/h (3 Bft) W-SW 252 0 min 0,000 mm 0,0 UV-I 0 W/m -1,4 C -6,5 C 17,7 km/h (3 Bft) 95,45 %
18.12.2017 03:56 -0,2 C 3,9 C 90 % 1024,0 hPa 0,0 l/m 14,8 km/h (3 Bft) SW 228 0 min 0,000 mm 0,0 UV-I 0 W/m -1,6 C -7,1 C 17,7 km/h (3 Bft) 94,44 %
18.12.2017 03:57 -0,2 C 3,9 C 91 % 1024,0 hPa 0,0 l/m 12,7 km/h (3 Bft) W 267 0 min 0,000 mm 0,0 UV-I 0 W/m -1,5 C -5,7 C 17,7 km/h (3 Bft) 100,00 %
18.12.2017 03:58 -0,2 C 3,9 C 91 % 1024,0 hPa 0,0 l/m 13,0 km/h (3 Bft) W 266 0 min 0,000 mm 0,0 UV-I 0 W/m -1,5 C -5,9 C 20,9 km/h (4 Bft) 96,30 %
18.12.2017 03:59 -0,2 C 3,9 C 91 % 1024,1 hPa 0,0 l/m 12,0 km/h (2 Bft) W-SW 243 0 min 0,000 mm 0,0 UV-I 0 W/m -1,5 C -5,2 C 20,9 km/h (4 Bft) 100,00 %
18.12.2017 04:00 -0,2 C 3,9 C 91 % 1024,0 hPa 0,0 l/m 15,2 km/h (3 Bft) W-SW 240 0 min 0,000 mm 0,0 UV-I 0 W/m -1,5 C -7,3 C 24,1 km/h (4 Bft) 91,67 %
18.12.2017 04:02 -0,2 C 3,9 C 91 % 1024,0 hPa 0,0 l/m 14,1 km/h (3 Bft) SW 220 0 min 0,000 mm 0,0 UV-I 0 W/m -1,5 C -6,7 C 17,7 km/h (3 Bft) 95,83 %
18.12.2017 04:03 -0,2 C 3,9 C 91 % 1024,0 hPa 0,0 l/m 11,6 km/h (2 Bft) SW 225 0 min 0,000 mm 0,0 UV-I 0 W/m -1,5 C -4,9 C 19,3 km/h (3 Bft) 100,00 %
18.12.2017 04:04 -0,2 C 3,9 C 91 % 1024,0 hPa 0,0 l/m 15,5 km/h (3 Bft) SW 231 0 min 0,000 mm 0,0 UV-I 0 W/m -1,5 C -7,5 C 20,9 km/h (4 Bft) 96,15 %
18.12.2017 04:05 -0,2 C 3,9 C 91 % 1024,0 hPa 0,0 l/m 15,6 km/h (3 Bft) S-SW 210 0 min 0,000 mm 0,0 UV-I 0 W/m -1,5 C -7,6 C 24,1 km/h (4 Bft) 95,83 %
18.12.2017 04:06 -0,2 C 3,9 C 91 % 1023,9 hPa 0,0 l/m 13,6 km/h (3 Bft) S-SW 194 0 min 0,000 mm 0,0 UV-I 0 W/m -1,5 C -6,3 C 19,3 km/h (3 Bft) 100,00 %
18.12.2017 04:07 -0,2 C 3,9 C 91 % 1024,0 hPa 0,0 l/m 15,0 km/h (3 Bft) SW 219 0 min 0,000 mm 0,0 UV-I 0 W/m -1,5 C -7,2 C 19,3 km/h (3 Bft) 91,67 %
18.12.2017 04:08 -0,2 C 3,9 C 91 % 1023,9 hPa 0,0 l/m 15,9 km/h (3 Bft) S-SW 211 0 min 0,000 mm 0,0 UV-I 0 W/m -1,5 C -7,8 C 22,5 km/h (4 Bft) 100,00 %
18.12.2017 04:09 -0,2 C 3,9 C 91 % 1023,9 hPa 0,0 l/m 14,8 km/h (3 Bft) SW 221 0 min 0,000 mm 0,0 UV-I 0 W/m -1,5 C -7,1 C 19,3 km/h (3 Bft) 95,83 %
18.12.2017 04:10 -0,2 C 3,9 C 91 % 1024,0 hPa 0,0 l/m 14,8 km/h (3 Bft) S-SW 209 0 min 0,000 mm 0,0 UV-I 0 W/m -1,5 C -7,1 C 19,3 km/h (3 Bft) 100,00 %
18.12.2017 04:11 -0,2 C 3,9 C 91 % 1023,9 hPa 0,0 l/m 19,8 km/h (3 Bft) SW 235 0 min 0,000 mm 0,0 UV-I 0 W/m -1,5 C -9,8 C 27,4 km/h (4 Bft) 96,30 %
18.12.2017 04:12 -0,2 C 3,9 C 91 % 1023,9 hPa 0,0 l/m 19,1 km/h (3 Bft) SW 224 0 min 0,000 mm 0,0 UV-I 0 W/m -1,5 C -9,5 C 24,1 km/h (4 Bft) 100,00 %
18.12.2017 04:13 -0,2 C 3,9 C 91 % 1023,9 hPa 0,0 l/m 20,2 km/h (4 Bft) S 191 0 min 0,000 mm 0,0 UV-I 0 W/m -1,5 C -10,0 C 25,7 km/h (4 Bft) 93,33 %
18.12.2017 04:14 -0,2 C 3,9 C 91 % 1023,9 hPa 0,0 l/m 15,4 km/h (3 Bft) SW 233 0 min 0,000 mm 0,0 UV-I 0 W/m -1,5 C -7,5 C 22,5 km/h (4 Bft) 94,74 %
18.12.2017 04:15 -0,2 C 3,9 C 91 % 1023,9 hPa 0,0 l/m 16,6 km/h (3 Bft) W 259 0 min 0,000 mm 0,0 UV-I 0 W/m -1,5 C -8,2 C 24,1 km/h (4 Bft) 96,30 %
18.12.2017 04:16 -0,2 C 3,9 C 91 % 1023,9 hPa 0,0 l/m 19,2 km/h (3 Bft) SW 218 0 min 0,000 mm 0,0 UV-I 0 W/m -1,5 C -9,5 C 24,1 km/h (4 Bft) 96,15 %
18.12.2017 04:17 -0,2 C 3,9 C 91 % 1024,0 hPa 0,0 l/m 20,4 km/h (4 Bft) W-SW 254 0 min 0,000 mm 0,0 UV-I 0 W/m -1,5 C -10,1 C 25,7 km/h (4 Bft) 100,00 %
18.12.2017 04:18 -0,2 C 3,9 C 91 % 1024,0 hPa 0,0 l/m 15,7 km/h (3 Bft) SW 221 0 min 0,000 mm 0,0 UV-I 0 W/m -1,5 C -7,6 C 19,3 km/h (3 Bft) 92,31 %
18.12.2017 04:19 -0,2 C 3,9 C 91 % 1024,0 hPa 0,0 l/m 12,7 km/h (3 Bft) SW 220 0 min 0,000 mm 0,0 UV-I 0 W/m -1,5 C -5,7 C 16,1 km/h (3 Bft) 100,00 %
18.12.2017 04:20 -0,2 C 3,9 C 91 % 1024,0 hPa 0,0 l/m 15,2 km/h (3 Bft) W 261 0 min 0,000 mm 0,0 UV-I 0 W/m -1,5 C -7,3 C 17,7 km/h (3 Bft) 93,33 %
18.12.2017 04:21 -0,2 C 3,9 C 91 % 1024,0 hPa 0,0 l/m 14,1 km/h (3 Bft) SW 215 0 min 0,000 mm 0,0 UV-I 0 W/m -1,5 C -6,7 C 19,3 km/h (3 Bft) 100,00 %
18.12.2017 04:22 -0,2 C 3,9 C 91 % 1024,0 hPa 0,0 l/m 11,4 km/h (2 Bft) SW 219 0 min 0,000 mm 0,0 UV-I 0 W/m -1,5 C -4,8 C 17,7 km/h (3 Bft) 91,67 %
18.12.2017 04:23 -0,2 C 3,9 C 91 % 1023,9 hPa 0,0 l/m 12,2 km/h (2 Bft) SW 226 0 min 0,000 mm 0,0 UV-I 0 W/m -1,5 C -5,4 C 17,7 km/h (3 Bft) 96,15 %
18.12.2017 04:24 -0,2 C 3,9 C 91 % 1023,9 hPa 0,0 l/m 9,5 km/h (2 Bft) SW 229 0 min 0,000 mm 0,0 UV-I 0 W/m -1,5 C -3,2 C 16,1 km/h (3 Bft) 96,30 %
18.12.2017 04:25 -0,2 C 3,9 C 91 % 1024,0 hPa 0,0 l/m 11,3 km/h (2 Bft) W 265 0 min 0,000 mm 0,0 UV-I 0 W/m -1,5 C -4,7 C 16,1 km/h (3 Bft) 91,30 %
18.12.2017 04:26 -0,3 C 3,9 C 91 % 1024,0 hPa 0,0 l/m 9,8 km/h (2 Bft) W-SW 250 0 min 0,000 mm 0,0 UV-I 0 W/m -1,6 C -3,6 C 16,1 km/h (3 Bft) 100,00 %
18.12.2017 04:27 -0,3 C 3,9 C 92 % 1024,0 hPa 0,0 l/m 10,1 km/h (2 Bft) SW 236 0 min 0,000 mm 0,0 UV-I 0 W/m -1,4 C -3,9 C 12,9 km/h (3 Bft) 95,65 %
18.12.2017 04:28 -0,3 C 3,9 C 92 % 1024,0 hPa 0,0 l/m 9,6 km/h (2 Bft) W 263 0 min 0,000 mm 0,0 UV-I 0 W/m -1,4 C -3,4 C 14,5 km/h (3 Bft) 100,00 %
18.12.2017 04:29 -0,3 C 3,9 C 92 % 1024,0 hPa 0,0 l/m 8,9 km/h (2 Bft) W-SW 257 0 min 0,000 mm 0,0 UV-I 0 W/m -1,4 C -2,8 C 12,9 km/h (3 Bft) 100,00 %
18.12.2017 04:30 -0,3 C 3,9 C 92 % 1024,0 hPa 0,0 l/m 12,1 km/h (2 Bft) SW 229 0 min 0,000 mm 0,0 UV-I 0 W/m -1,4 C -5,4 C 16,1 km/h (3 Bft) 96,30 %
18.12.2017 04:31 -0,3 C 3,9 C 92 % 1024,0 hPa 0,0 l/m 12,3 km/h (3 Bft) SW 236 0 min 0,000 mm 0,0 UV-I 0 W/m -1,4 C -5,6 C 16,1 km/h (3 Bft) 100,00 %
18.12.2017 04:32 -0,3 C 3,9 C 92 % 1024,0 hPa 0,0 l/m 10,7 km/h (2 Bft) W-SW 249 0 min 0,000 mm 0,0 UV-I 0 W/m -1,4 C -4,4 C 14,5 km/h (3 Bft) 100,00 %
18.12.2017 04:33 -0,3 C 3,9 C 92 % 1023,9 hPa 0,0 l/m 6,8 km/h (2 Bft) W-SW 244 0 min 0,000 mm 0,0 UV-I 0 W/m -1,4 C -0,7 C 11,3 km/h (2 Bft) 100,00 %
18.12.2017 04:34 -0,3 C 3,9 C 92 % 1023,9 hPa 0,0 l/m 7,6 km/h (2 Bft) S-SW 213 0 min 0,000 mm 0,0 UV-I 0 W/m -1,4 C -1,6 C 11,3 km/h (2 Bft) 100,00 %
18.12.2017 04:35 -0,3 C 3,9 C 92 % 1024,0 hPa 0,0 l/m 8,4 km/h (2 Bft) W-SW 249 0 min 0,000 mm 0,0 UV-I 0 W/m -1,4 C -2,4 C 11,3 km/h (2 Bft) 97,03 %
18.12.2017 04:36 -0,3 C 3,9 C 92 % 1024,0 hPa 0,0 l/m 8,6 km/h (2 Bft) W 270 0 min 0,000 mm 0,0 UV-I 0 W/m -1,4 C -2,5 C 11,3 km/h (2 Bft) 100,00 %
18.12.2017 04:37 -0,3 C 3,9 C 92 % 1024,0 hPa 0,0 l/m 9,5 km/h (2 Bft) SW 229 0 min 0,000 mm 0,0 UV-I 0 W/m -1,4 C -3,4 C 12,9 km/h (3 Bft) 100,00 %
18.12.2017 04:38 -0,3 C 3,9 C 92 % 1024,0 hPa 0,0 l/m 12,6 km/h (3 Bft) SW 221 0 min 0,000 mm 0,0 UV-I 0 W/m -1,4 C -5,8 C 17,7 km/h (3 Bft) 100,00 %
18.12.2017 04:39 -0,3 C 3,9 C 92 % 1023,9 hPa 0,0 l/m 10,8 km/h (2 Bft) SW 224 0 min 0,000 mm 0,0 UV-I 0 W/m -1,4 C -4,4 C 14,5 km/h (3 Bft) 100,00 %
18.12.2017 04:40 -0,3 C 3,9 C 92 % 1024,0 hPa 0,0 l/m 9,8 km/h (2 Bft) SW 231 0 min 0,000 mm 0,0 UV-I 0 W/m -1,4 C -3,6 C 12,9 km/h (3 Bft) 96,15 %
18.12.2017 04:41 -0,3 C 3,9 C 92 % 1023,9 hPa 0,0 l/m 12,4 km/h (3 Bft) W-SW 239 0 min 0,000 mm 0,0 UV-I 0 W/m -1,4 C -5,6 C 16,1 km/h (3 Bft) 100,00 %
18.12.2017 04:42 -0,3 C 3,9 C 92 % 1023,9 hPa 0,0 l/m 9,7 km/h (2 Bft) W-SW 250 0 min 0,000 mm 0,0 UV-I 0 W/m -1,4 C -3,5 C 11,3 km/h (2 Bft) 100,00 %
18.12.2017 04:43 -0,3 C 3,9 C 92 % 1024,0 hPa 0,0 l/m 9,8 km/h (2 Bft) W-SW 247 0 min 0,000 mm 0,0 UV-I 0 W/m -1,4 C -3,6 C 14,5 km/h (3 Bft) 100,00 %
18.12.2017 04:44 -0,3 C 3,9 C 92 % 1024,0 hPa 0,0 l/m 12,7 km/h (3 Bft) SW 232 0 min 0,000 mm 0,0 UV-I 0 W/m -1,4 C -5,8 C 16,1 km/h (3 Bft) 100,00 %
18.12.2017 04:45 -0,3 C 3,9 C 92 % 1024,0 hPa 0,0 l/m 8,5 km/h (2 Bft) W-SW 251 0 min 0,000 mm 0,0 UV-I 0 W/m -1,4 C -2,4 C 12,9 km/h (3 Bft) 100,00 %
18.12.2017 04:46 -0,3 C 3,9 C 92 % 1024,0 hPa 0,0 l/m 11,1 km/h (2 Bft) W-SW 240 0 min 0,000 mm 0,0 UV-I 0 W/m -1,4 C -4,7 C 16,1 km/h (3 Bft) 97,68 %
18.12.2017 04:47 -0,3 C 3,9 C 92 % 1024,0 hPa 0,0 l/m 9,9 km/h (2 Bft) W-SW 256 0 min 0,000 mm 0,0 UV-I 0 W/m -1,4 C -3,7 C 14,5 km/h (3 Bft) 100,00 %
18.12.2017 04:48 -0,3 C 3,9 C 92 % 1023,9 hPa 0,0 l/m 14,2 km/h (3 Bft) W-SW 252 0 min 0,000 mm 0,0 UV-I 0 W/m -1,4 C -6,8 C 17,7 km/h (3 Bft) 100,00 %
18.12.2017 04:49 -0,3 C 3,9 C 92 % 1024,0 hPa 0,0 l/m 8,2 km/h (2 Bft) W-SW 244 0 min 0,000 mm 0,0 UV-I 0 W/m -1,4 C -2,2 C 11,3 km/h (2 Bft) 100,00 %
18.12.2017 04:50 -0,3 C 3,9 C 92 % 1023,9 hPa 0,0 l/m 10,9 km/h (2 Bft) W-SW 257 0 min 0,000 mm 0,0 UV-I 0 W/m -1,4 C -4,5 C 12,9 km/h (3 Bft) 100,00 %
18.12.2017 04:51 -0,3 C 3,9 C 92 % 1023,9 hPa 0,0 l/m 10,2 km/h (2 Bft) SW 215 0 min 0,000 mm 0,0 UV-I 0 W/m -1,4 C -3,9 C 16,1 km/h (3 Bft) 100,00 %
18.12.2017 04:52 -0,3 C 3,9 C 92 % 1023,9 hPa 0,0 l/m 8,0 km/h (2 Bft) SW 229 0 min 0,000 mm 0,0 UV-I 0 W/m -1,4 C -2,0 C 11,3 km/h (2 Bft) 86,96 %
18.12.2017 04:53 -0,3 C 3,9 C 91 % 1023,9 hPa 0,0 l/m 11,0 km/h (2 Bft) SW 223 0 min 0,000 mm 0,0 UV-I 0 W/m -1,6 C -4,6 C 16,1 km/h (3 Bft) 100,00 %
18.12.2017 04:54 -0,3 C 3,9 C 91 % 1024,0 hPa 0,0 l/m 11,0 km/h (2 Bft) SW 236 0 min 0,000 mm 0,0 UV-I 0 W/m -1,6 C -4,6 C 16,1 km/h (3 Bft) 97,78 %
18.12.2017 04:55 -0,3 C 3,9 C 91 % 1023,9 hPa 0,0 l/m 10,9 km/h (2 Bft) W-SW 242 0 min 0,000 mm 0,0 UV-I 0 W/m -1,6 C -4,5 C 16,1 km/h (3 Bft) 100,00 %
18.12.2017 04:56 -0,3 C 3,9 C 91 % 1024,0 hPa 0,0 l/m 12,0 km/h (2 Bft) W 267 0 min 0,000 mm 0,0 UV-I 0 W/m -1,6 C -5,3 C 19,3 km/h (3 Bft) 100,00 %
18.12.2017 04:57 -0,3 C 3,9 C 91 % 1024,0 hPa 0,0 l/m 10,4 km/h (2 Bft) W-SW 251 0 min 0,000 mm 0,0 UV-I 0 W/m -1,6 C -4,1 C 16,1 km/h (3 Bft) 96,30 %
18.12.2017 04:58 -0,3 C 3,9 C 91 % 1023,9 hPa 0,0 l/m 14,6 km/h (3 Bft) W 265 0 min 0,000 mm 0,0 UV-I 0 W/m -1,6 C -7,1 C 19,3 km/h (3 Bft) 100,00 %
18.12.2017 04:59 -0,3 C 3,9 C 91 % 1023,9 hPa 0,0 l/m 14,1 km/h (3 Bft) W-SW 249 0 min 0,000 mm 0,0 UV-I 0 W/m -1,6 C -6,8 C 16,1 km/h (3 Bft) 100,00 %
18.12.2017 05:00 -0,2 C 3,9 C 91 % 1023,9 hPa 0,0 l/m 9,6 km/h (2 Bft) SW 226 0 min 0,000 mm 0,0 UV-I 0 W/m -1,5 C -3,3 C 12,9 km/h (3 Bft) 100,00 %
18.12.2017 05:01 -0,3 C 3,9 C 91 % 1023,9 hPa 0,0 l/m 11,1 km/h (2 Bft) W-SW 248 0 min 0,000 mm 0,0 UV-I 0 W/m -1,6 C -4,7 C 16,1 km/h (3 Bft) 100,00 %
18.12.2017 05:02 -0,2 C 3,9 C 91 % 1024,0 hPa 0,0 l/m 10,2 km/h (2 Bft) SW 215 0 min 0,000 mm 0,0 UV-I 0 W/m -1,5 C -3,8 C 16,1 km/h (3 Bft) 94,44 %
18.12.2017 05:03 -0,3 C 3,9 C 91 % 1023,9 hPa 0,0 l/m 11,7 km/h (2 Bft) W-SW 244 0 min 0,000 mm 0,0 UV-I 0 W/m -1,6 C -5,1 C 16,1 km/h (3 Bft) 100,00 %
18.12.2017 05:04 -0,3 C 3,9 C 91 % 1023,9 hPa 0,0 l/m 9,5 km/h (2 Bft) W-SW 239 0 min 0,000 mm 0,0 UV-I 0 W/m -1,6 C -3,4 C 14,5 km/h (3 Bft) 100,00 %
18.12.2017 05:05 -0,2 C 3,9 C 91 % 1023,9 hPa 0,0 l/m 10,9 km/h (2 Bft) W-SW 250 0 min 0,000 mm 0,0 UV-I 0 W/m -1,5 C -4,4 C 16,1 km/h (3 Bft) 95,65 %
18.12.2017 05:06 -0,3 C 3,9 C 90 % 1023,9 hPa 0,0 l/m 12,0 km/h (2 Bft) W 259 0 min 0,000 mm 0,0 UV-I 0 W/m -1,7 C -5,3 C 14,5 km/h (3 Bft) 96,43 %
18.12.2017 05:07 -0,3 C 3,9 C 90 % 1023,9 hPa 0,0 l/m 10,9 km/h (2 Bft) W-SW 239 0 min 0,000 mm 0,0 UV-I 0 W/m -1,7 C -4,5 C 16,1 km/h (3 Bft) 95,65 %
18.12.2017 05:08 -0,2 C 3,9 C 90 % 1023,9 hPa 0,0 l/m 11,7 km/h (2 Bft) W-SW 250 0 min 0,000 mm 0,0 UV-I 0 W/m -1,6 C -5,0 C 14,5 km/h (3 Bft) 95,83 %
18.12.2017 05:09 -0,2 C 3,9 C 90 % 1023,9 hPa 0,0 l/m 10,8 km/h (2 Bft) SW 216 0 min 0,000 mm 0,0 UV-I 0 W/m -1,6 C -4,3 C 16,1 km/h (3 Bft) 100,00 %
18.12.2017 05:10 -0,2 C 3,9 C 90 % 1023,9 hPa 0,0 l/m 10,0 km/h (2 Bft) W-SW 252 0 min 0,000 mm 0,0 UV-I 0 W/m -1,6 C -3,7 C 17,7 km/h (3 Bft) 91,67 %
18.12.2017 05:11 -0,2 C 3,9 C 90 % 1023,9 hPa 0,0 l/m 9,3 km/h (2 Bft) S-SW 205 0 min 0,000 mm 0,0 UV-I 0 W/m -1,6 C -3,1 C 12,9 km/h (3 Bft) 100,00 %
18.12.2017 05:12 -0,2 C 3,9 C 90 % 1023,9 hPa 0,0 l/m 12,2 km/h (2 Bft) W-SW 248 0 min 0,000 mm 0,0 UV-I 0 W/m -1,6 C -5,4 C 16,1 km/h (3 Bft) 96,30 %
18.12.2017 05:13 -0,2 C 3,9 C 90 % 1023,9 hPa 0,0 l/m 10,9 km/h (2 Bft) W-SW 254 0 min 0,000 mm 0,0 UV-I 0 W/m -1,6 C -4,4 C 14,5 km/h (3 Bft) 100,00 %
18.12.2017 05:14 -0,2 C 3,9 C 90 % 1023,9 hPa 0,0 l/m 14,3 km/h (3 Bft) W-SW 251 0 min 0,000 mm 0,0 UV-I 0 W/m -1,6 C -6,8 C 17,7 km/h (3 Bft) 95,83 %
18.12.2017 05:15 -0,2 C 3,9 C 90 % 1023,9 hPa 0,0 l/m 9,3 km/h (2 Bft) W-SW 250 0 min 0,000 mm 0,0 UV-I 0 W/m -1,6 C -3,1 C 12,9 km/h (3 Bft) 100,00 %
18.12.2017 05:16 -0,2 C 3,9 C 90 % 1023,9 hPa 0,0 l/m 10,4 km/h (2 Bft) W 277 0 min 0,000 mm 0,0 UV-I 0 W/m -1,6 C -4,0 C 19,3 km/h (3 Bft) 95,83 %
18.12.2017 05:17 -0,2 C 3,9 C 90 % 1023,9 hPa 0,0 l/m 12,1 km/h (2 Bft) W-SW 244 0 min 0,000 mm 0,0 UV-I 0 W/m -1,6 C -5,3 C 19,3 km/h (3 Bft) 95,65 %
18.12.2017 05:18 -0,2 C 3,9 C 89 % 1023,9 hPa 0,0 l/m 11,3 km/h (2 Bft) W-SW 247 0 min 0,000 mm 0,0 UV-I 0 W/m -1,8 C -4,7 C 16,1 km/h (3 Bft) 100,00 %
18.12.2017 05:19 -0,2 C 3,9 C 89 % 1023,9 hPa 0,0 l/m 13,1 km/h (3 Bft) SW 229 0 min 0,000 mm 0,0 UV-I 0 W/m -1,8 C -6,0 C 19,3 km/h (3 Bft) 91,30 %
18.12.2017 05:20 -0,2 C 3,9 C 89 % 1023,9 hPa 0,0 l/m 10,2 km/h (2 Bft) W-SW 246 0 min 0,000 mm 0,0 UV-I 0 W/m -1,8 C -3,8 C 12,9 km/h (3 Bft) 100,00 %
18.12.2017 05:21 -0,2 C 3,9 C 89 % 1023,9 hPa 0,0 l/m 8,5 km/h (2 Bft) W-SW 240 0 min 0,000 mm 0,0 UV-I 0 W/m -1,8 C -2,3 C 11,3 km/h (2 Bft) 95,83 %
18.12.2017 05:22 -0,2 C 3,9 C 89 % 1023,9 hPa 0,0 l/m 10,2 km/h (2 Bft) W-SW 249 0 min 0,000 mm 0,0 UV-I 0 W/m -1,8 C -3,8 C 17,7 km/h (3 Bft) 100,00 %
18.12.2017 05:23 -0,2 C 3,9 C 89 % 1023,9 hPa 0,0 l/m 9,4 km/h (2 Bft) W-SW 253 0 min 0,000 mm 0,0 UV-I 0 W/m -1,8 C -3,2 C 14,5 km/h (3 Bft) 96,15 %
18.12.2017 05:24 -0,2 C 3,9 C 89 % 1023,9 hPa 0,0 l/m 10,8 km/h (2 Bft) W 259 0 min 0,000 mm 0,0 UV-I 0 W/m -1,8 C -4,3 C 14,5 km/h (3 Bft) 100,00 %
18.12.2017 05:25 -0,2 C 3,9 C 89 % 1024,0 hPa 0,0 l/m 10,8 km/h (2 Bft) W-NW 283 0 min 0,000 mm 0,0 UV-I 0 W/m -1,8 C -4,3 C 12,9 km/h (3 Bft) 96,30 %
18.12.2017 05:26 -0,2 C 3,9 C 89 % 1024,0 hPa 0,0 l/m 10,9 km/h (2 Bft) W-SW 256 0 min 0,000 mm 0,0 UV-I 0 W/m -1,8 C -4,4 C 16,1 km/h (3 Bft) 95,65 %
18.12.2017 05:27 -0,2 C 3,9 C 89 % 1023,9 hPa 0,0 l/m 13,8 km/h (3 Bft) W-SW 252 0 min 0,000 mm 0,0 UV-I 0 W/m -1,8 C -6,5 C 17,7 km/h (3 Bft) 96,30 %
18.12.2017 05:32 -0,1 C 3,9 C 89 % 1024,0 hPa 0,0 l/m 10,0 km/h (2 Bft) SW 223 0 min 0,000 mm 0,0 UV-I 0 W/m -1,7 C -3,6 C 16,1 km/h (3 Bft) 95,29 %
18.12.2017 05:34 -0,2 C 3,9 C 89 % 1024,0 hPa 0,0 l/m 8,4 km/h (2 Bft) W-SW 246 0 min 0,000 mm 0,0 UV-I 0 W/m -1,8 C -2,2 C 16,1 km/h (3 Bft) 95,74 %
18.12.2017 05:36 -0,2 C 3,9 C 89 % 1024,0 hPa 0,0 l/m 9,4 km/h (2 Bft) W-SW 242 0 min 0,000 mm 0,0 UV-I 0 W/m -1,8 C -3,2 C 14,5 km/h (3 Bft) 97,44 %
18.12.2017 05:38 -0,2 C 3,9 C 89 % 1024,0 hPa 0,0 l/m 8,4 km/h (2 Bft) W-SW 240 0 min 0,000 mm 0,0 UV-I 0 W/m -1,8 C -2,2 C 11,3 km/h (2 Bft) 97,87 %
18.12.2017 05:40 -0,2 C 3,9 C 89 % 1024,0 hPa 0,0 l/m 7,8 km/h (2 Bft) W 269 0 min 0,000 mm 0,0 UV-I 0 W/m -1,8 C -1,7 C 12,9 km/h (3 Bft) 96,00 %
18.12.2017 05:42 -0,2 C 3,9 C 90 % 1024,0 hPa 0,0 l/m 7,3 km/h (2 Bft) W 265 0 min 0,000 mm 0,0 UV-I 0 W/m -1,6 C -1,1 C 12,9 km/h (3 Bft) 96,08 %
18.12.2017 05:44 -0,3 C 3,9 C 90 % 1023,9 hPa 0,0 l/m 7,3 km/h (2 Bft) W-SW 249 0 min 0,000 mm 0,0 UV-I 0 W/m -1,7 C -1,2 C 11,3 km/h (2 Bft) 97,87 %
18.12.2017 05:46 -0,3 C 3,9 C 90 % 1023,9 hPa 0,0 l/m 7,4 km/h (2 Bft) SW 230 0 min 0,000 mm 0,0 UV-I 0 W/m -1,7 C -1,4 C 11,3 km/h (2 Bft) 96,15 %
18.12.2017 05:48 -0,3 C 3,9 C 90 % 1023,9 hPa 0,0 l/m 6,4 km/h (2 Bft) W-SW 257 0 min 0,000 mm 0,0 UV-I 0 W/m -1,7 C -0,3 C 11,3 km/h (2 Bft) 98,46 %
18.12.2017 05:50 -0,3 C 3,9 C 90 % 1023,9 hPa 0,0 l/m 8,4 km/h (2 Bft) W-SW 250 0 min 0,000 mm 0,0 UV-I 0 W/m -1,7 C -2,4 C 14,5 km/h (3 Bft) 94,74 %
18.12.2017 05:52 -0,3 C 3,9 C 90 % 1023,9 hPa 0,0 l/m 7,4 km/h (2 Bft) W 267 0 min 0,000 mm 0,0 UV-I 0 W/m -1,7 C -1,4 C 11,3 km/h (2 Bft) 94,64 %
18.12.2017 05:54 -0,3 C 3,9 C 89 % 1023,9 hPa 0,0 l/m 6,9 km/h (2 Bft) W 265 0 min 0,000 mm 0,0 UV-I 0 W/m -1,9 C -0,8 C 11,3 km/h (2 Bft) 98,00 %
18.12.2017 05:56 -0,3 C 3,9 C 89 % 1023,9 hPa 0,0 l/m 7,4 km/h (2 Bft) SW 228 0 min 0,000 mm 0,0 UV-I 0 W/m -1,9 C -1,4 C 16,1 km/h (3 Bft) 95,12 %
18.12.2017 05:58 -0,3 C 3,9 C 89 % 1023,9 hPa 0,0 l/m 7,3 km/h (2 Bft) W-SW 240 0 min 0,000 mm 0,0 UV-I 0 W/m -1,9 C -1,2 C 11,3 km/h (2 Bft) 97,56 %
18.12.2017 06:00 -0,2 C 3,9 C 89 % 1023,9 hPa 0,0 l/m 8,1 km/h (2 Bft) W 274 0 min 0,000 mm 0,0 UV-I 0 W/m -1,8 C -2,0 C 12,9 km/h (3 Bft) 98,21 %
18.12.2017 06:02 -0,2 C 3,9 C 89 % 1023,9 hPa 0,0 l/m 8,9 km/h (2 Bft) W-SW 251 0 min 0,000 mm 0,0 UV-I 0 W/m -1,8 C -2,7 C 14,5 km/h (3 Bft) 94,29 %
18.12.2017 06:04 -0,2 C 3,9 C 89 % 1023,9 hPa 0,0 l/m 6,6 km/h (2 Bft) W 263 0 min 0,000 mm 0,0 UV-I 0 W/m -1,8 C -0,4 C 11,3 km/h (2 Bft) 94,34 %
18.12.2017 06:06 -0,2 C 3,9 C 89 % 1023,9 hPa 0,0 l/m 6,8 km/h (2 Bft) W-SW 255 0 min 0,000 mm 0,0 UV-I 0 W/m -1,8 C -0,6 C 11,3 km/h (2 Bft) 96,23 %
18.12.2017 06:08 -0,2 C 3,9 C 88 % 1023,9 hPa 0,0 l/m 9,1 km/h (2 Bft) W-SW 252 0 min 0,000 mm 0,0 UV-I 0 W/m -1,9 C -2,9 C 12,9 km/h (3 Bft) 95,12 %
18.12.2017 06:10 -0,2 C 3,9 C 88 % 1023,9 hPa 0,0 l/m 7,5 km/h (2 Bft) W-NW 284 0 min 0,000 mm 0,0 UV-I 0 W/m -1,9 C -1,4 C 11,3 km/h (2 Bft) 96,23 %
18.12.2017 06:12 -0,2 C 3,9 C 88 % 1023,9 hPa 0,0 l/m 7,7 km/h (2 Bft) W-SW 240 0 min 0,000 mm 0,0 UV-I 0 W/m -1,9 C -1,6 C 12,9 km/h (3 Bft) 97,44 %
18.12.2017 06:14 -0,2 C 3,9 C 88 % 1023,8 hPa 0,0 l/m 8,1 km/h (2 Bft) W-SW 239 0 min 0,000 mm 0,0 UV-I 0 W/m -1,9 C -2,0 C 14,5 km/h (3 Bft) 96,15 %
18.12.2017 06:16 -0,2 C 3,9 C 87 % 1023,8 hPa 0,0 l/m 8,6 km/h (2 Bft) W 265 0 min 0,000 mm 0,0 UV-I 0 W/m -2,1 C -2,4 C 12,9 km/h (3 Bft) 97,92 %
18.12.2017 06:18 -0,2 C 3,9 C 87 % 1023,8 hPa 0,0 l/m 7,8 km/h (2 Bft) SW 221 0 min 0,000 mm 0,0 UV-I 0 W/m -2,1 C -1,7 C 14,5 km/h (3 Bft) 97,87 %
18.12.2017 06:20 -0,2 C 3,9 C 87 % 1023,7 hPa 0,0 l/m 7,5 km/h (2 Bft) SW 232 0 min 0,000 mm 0,0 UV-I 0 W/m -2,1 C -1,4 C 12,9 km/h (3 Bft) 94,00 %
18.12.2017 06:22 -0,2 C 3,9 C 87 % 1023,7 hPa 0,0 l/m 7,5 km/h (2 Bft) S-SW 210 0 min 0,000 mm 0,0 UV-I 0 W/m -2,1 C -1,4 C 11,3 km/h (2 Bft) 97,87 %
18.12.2017 06:24 -0,2 C 3,9 C 87 % 1023,7 hPa 0,0 l/m 8,3 km/h (2 Bft) W-SW 248 0 min 0,000 mm 0,0 UV-I 0 W/m -2,1 C -2,1 C 12,9 km/h (3 Bft) 96,88 %
18.12.2017 06:26 -0,2 C 3,9 C 87 % 1023,7 hPa 0,0 l/m 8,4 km/h (2 Bft) SW 226 0 min 0,000 mm 0,0 UV-I 0 W/m -2,1 C -2,2 C 11,3 km/h (2 Bft) 98,21 %
18.12.2017 06:28 -0,2 C 3,9 C 87 % 1023,8 hPa 0,0 l/m 6,9 km/h (2 Bft) W-SW 237 0 min 0,000 mm 0,0 UV-I 0 W/m -2,1 C -0,7 C 11,3 km/h (2 Bft) 95,45 %
18.12.2017 06:30 -0,2 C 3,9 C 87 % 1023,7 hPa 0,0 l/m 8,1 km/h (2 Bft) SW 220 0 min 0,000 mm 0,0 UV-I 0 W/m -2,1 C -2,0 C 11,3 km/h (2 Bft) 98,00 %
18.12.2017 06:32 -0,2 C 3,9 C 87 % 1023,7 hPa 0,0 l/m 7,4 km/h (2 Bft) W-SW 244 0 min 0,000 mm 0,0 UV-I 0 W/m -2,1 C -1,2 C 12,9 km/h (3 Bft) 96,00 %
18.12.2017 06:34 -0,2 C 3,9 C 87 % 1023,8 hPa 0,0 l/m 5,2 km/h (1 Bft) W-SW 238 0 min 0,000 mm 0,0 UV-I 0 W/m -2,1 C -0,2 C 6,4 km/h (2 Bft) 95,74 %
18.12.2017 06:36 -0,2 C 3,9 C 87 % 1023,8 hPa 0,0 l/m 5,9 km/h (2 Bft) SW 223 0 min 0,000 mm 0,0 UV-I 0 W/m -2,1 C -0,2 C 8,0 km/h (2 Bft) 95,12 %
18.12.2017 06:38 -0,2 C 3,9 C 87 % 1023,8 hPa 0,0 l/m 4,2 km/h (1 Bft) W-SW 246 0 min 0,000 mm 0,0 UV-I 0 W/m -2,1 C -0,2 C 6,4 km/h (2 Bft) 100,00 %
18.12.2017 06:40 -0,2 C 3,9 C 88 % 1023,8 hPa 0,0 l/m 6,4 km/h (2 Bft) W 262 0 min 0,000 mm 0,0 UV-I 0 W/m -1,9 C -0,2 C 11,3 km/h (2 Bft) 97,37 %
18.12.2017 06:42 -0,3 C 3,9 C 88 % 1023,8 hPa 0,0 l/m 5,1 km/h (1 Bft) W 269 0 min 0,000 mm 0,0 UV-I 0 W/m -2,0 C -0,3 C 9,7 km/h (2 Bft) 100,00 %
18.12.2017 06:44 -0,3 C 3,9 C 88 % 1023,9 hPa 0,0 l/m 6,1 km/h (2 Bft) W-SW 254 0 min 0,000 mm 0,0 UV-I 0 W/m -2,0 C -0,3 C 9,7 km/h (2 Bft) 100,00 %
18.12.2017 06:46 -0,3 C 3,9 C 87 % 1023,8 hPa 0,0 l/m 5,9 km/h (2 Bft) W 259 0 min 0,000 mm 0,0 UV-I 0 W/m -2,2 C -0,3 C 8,0 km/h (2 Bft) 95,12 %
18.12.2017 06:48 -0,2 C 3,9 C 87 % 1023,8 hPa 0,0 l/m 6,6 km/h (2 Bft) W 280 0 min 0,000 mm 0,0 UV-I 0 W/m -2,1 C -0,4 C 11,3 km/h (2 Bft) 98,00 %
18.12.2017 06:50 -0,3 C 3,9 C 87 % 1023,9 hPa 0,0 l/m 6,0 km/h (2 Bft) W 259 0 min 0,000 mm 0,0 UV-I 0 W/m -2,2 C -0,3 C 9,7 km/h (2 Bft) 100,00 %
18.12.2017 06:52 -0,3 C 3,9 C 88 % 1023,9 hPa 0,0 l/m 6,4 km/h (2 Bft) W 259 0 min 0,000 mm 0,0 UV-I 0 W/m -2,0 C -0,3 C 9,7 km/h (2 Bft) 100,00 %
18.12.2017 06:54 -0,3 C 3,9 C 88 % 1023,9 hPa 0,0 l/m 5,9 km/h (2 Bft) W 265 0 min 0,000 mm 0,0 UV-I 0 W/m -2,0 C -0,3 C 11,3 km/h (2 Bft) 100,00 %
18.12.2017 06:56 -0,3 C 3,9 C 88 % 1023,9 hPa 0,0 l/m 5,8 km/h (2 Bft) W-SW 255 0 min 0,000 mm 0,0 UV-I 0 W/m -2,0 C -0,3 C 8,0 km/h (2 Bft) 96,61 %
18.12.2017 06:58 -0,2 C 3,9 C 88 % 1023,9 hPa 0,0 l/m 5,6 km/h (1 Bft) W 259 0 min 0,000 mm 0,0 UV-I 0 W/m -1,9 C -0,2 C 8,0 km/h (2 Bft) 100,00 %
18.12.2017 07:00 -0,3 C 3,9 C 88 % 1023,9 hPa 0,0 l/m 5,4 km/h (1 Bft) W-SW 256 0 min 0,000 mm 0,0 UV-I 0 W/m -2,0 C -0,3 C 8,0 km/h (2 Bft) 100,00 %
18.12.2017 07:02 -0,3 C 3,9 C 88 % 1024,0 hPa 0,0 l/m 5,2 km/h (1 Bft) W 262 0 min 0,000 mm 0,0 UV-I 0 W/m -2,0 C -0,3 C 8,0 km/h (2 Bft) 100,00 %
18.12.2017 07:04 -0,3 C 3,9 C 88 % 1024,0 hPa 0,0 l/m 6,4 km/h (2 Bft) W-SW 254 0 min 0,000 mm 0,0 UV-I 0 W/m -2,0 C -0,3 C 11,3 km/h (2 Bft) 100,00 %
18.12.2017 07:06 -0,3 C 3,9 C 88 % 1024,0 hPa 0,0 l/m 5,9 km/h (2 Bft) W-SW 258 0 min 0,000 mm 0,0 UV-I 0 W/m -2,0 C -0,3 C 9,7 km/h (2 Bft) 100,00 %
18.12.2017 07:08 -0,3 C 3,9 C 88 % 1023,9 hPa 0,0 l/m 5,7 km/h (1 Bft) W-SW 257 0 min 0,000 mm 0,0 UV-I 0 W/m -2,0 C -0,3 C 8,0 km/h (2 Bft) 97,87 %
18.12.2017 07:10 -0,3 C 3,9 C 88 % 1023,9 hPa 0,0 l/m 5,9 km/h (2 Bft) W 259 0 min 0,000 mm 0,0 UV-I 0 W/m -2,0 C -0,3 C 11,3 km/h (2 Bft) 100,00 %
18.12.2017 07:12 -0,3 C 3,9 C 88 % 1023,9 hPa 0,0 l/m 5,4 km/h (1 Bft) W 261 0 min 0,000 mm 0,0 UV-I 0 W/m -2,0 C -0,3 C 8,0 km/h (2 Bft) 97,73 %
18.12.2017 07:14 -0,3 C 3,9 C 88 % 1023,9 hPa 0,0 l/m 6,6 km/h (2 Bft) W-SW 250 0 min 0,000 mm 0,0 UV-I 0 W/m -2,0 C -0,5 C 9,7 km/h (2 Bft) 100,00 %
18.12.2017 07:16 -0,3 C 3,9 C 88 % 1023,9 hPa 0,0 l/m 5,4 km/h (1 Bft) W-SW 258 0 min 0,000 mm 0,0 UV-I 0 W/m -2,0 C -0,3 C 12,9 km/h (3 Bft) 98,00 %
18.12.2017 07:18 -0,3 C 3,9 C 88 % 1023,9 hPa 0,0 l/m 7,0 km/h (2 Bft) W-SW 247 0 min 0,000 mm 0,0 UV-I 0 W/m -2,0 C -0,9 C 11,3 km/h (2 Bft) 100,00 %
18.12.2017 07:20 -0,3 C 3,9 C 88 % 1023,9 hPa 0,0 l/m 5,1 km/h (1 Bft) W 265 0 min 0,000 mm 0,0 UV-I 0 W/m -2,0 C -0,3 C 6,4 km/h (2 Bft) 100,00 %
18.12.2017 07:22 -0,3 C 3,9 C 88 % 1023,9 hPa 0,0 l/m 7,0 km/h (2 Bft) W 273 0 min 0,000 mm 0,0 UV-I 0 W/m -2,0 C -0,9 C 11,3 km/h (2 Bft) 100,00 %
18.12.2017 07:24 -0,3 C 3,9 C 88 % 1023,9 hPa 0,0 l/m 6,4 km/h (2 Bft) W-SW 247 0 min 0,000 mm 0,0 UV-I 0 W/m -2,0 C -0,3 C 9,7 km/h (2 Bft) 100,00 %
18.12.2017 07:26 -0,3 C 3,9 C 88 % 1023,9 hPa 0,0 l/m 7,9 km/h (2 Bft) W-SW 250 0 min 0,000 mm 0,0 UV-I 0 W/m -2,0 C -1,9 C 12,9 km/h (3 Bft) 100,00 %
18.12.2017 07:28 -0,3 C 3,9 C 88 % 1024,0 hPa 0,0 l/m 6,5 km/h (2 Bft) SW 233 0 min 0,000 mm 0,0 UV-I 0 W/m -2,0 C -0,4 C 9,7 km/h (2 Bft) 100,00 %
18.12.2017 07:30 -0,3 C 3,9 C 88 % 1023,9 hPa 0,0 l/m 5,0 km/h (1 Bft) W-SW 254 0 min 0,000 mm 0,0 UV-I 0 W/m -2,0 C -0,3 C 8,0 km/h (2 Bft) 96,00 %
18.12.2017 07:32 -0,3 C 3,9 C 88 % 1024,0 hPa 0,0 l/m 4,2 km/h (1 Bft) W-SW 244 0 min 0,000 mm 0,0 UV-I 0 W/m -2,0 C -0,3 C 6,4 km/h (2 Bft) 100,00 %
18.12.2017 07:34 -0,3 C 3,9 C 88 % 1024,0 hPa 0,0 l/m 4,1 km/h (1 Bft) SW 224 0 min 0,000 mm 0,0 UV-I 0 W/m -2,0 C -0,3 C 6,4 km/h (2 Bft) 98,00 %
18.12.2017 07:36 -0,3 C 3,9 C 88 % 1024,0 hPa 0,0 l/m 4,9 km/h (1 Bft) W-SW 254 0 min 0,000 mm 0,0 UV-I 0 W/m -2,0 C -0,3 C 6,4 km/h (2 Bft) 97,62 %
18.12.2017 07:38 -0,3 C 3,9 C 88 % 1024,0 hPa 0,0 l/m 5,5 km/h (1 Bft) W-SW 246 0 min 0,000 mm 0,0 UV-I 0 W/m -2,0 C -0,3 C 8,0 km/h (2 Bft) 98,00 %
18.12.2017 07:40 -0,4 C 3,9 C 88 % 1024,0 hPa 0,0 l/m 3,8 km/h (1 Bft) W 267 0 min 0,000 mm 0,0 UV-I 0 W/m -2,1 C -0,4 C 6,4 km/h (2 Bft) 100,00 %
18.12.2017 07:42 -0,4 C 3,9 C 88 % 1024,1 hPa 0,0 l/m 4,2 km/h (1 Bft) W-SW 239 0 min 0,000 mm 0,0 UV-I 5 W/m -2,1 C -0,4 C 6,4 km/h (2 Bft) 98,11 %
18.12.2017 07:44 -0,3 C 3,9 C 87 % 1024,0 hPa 0,0 l/m 3,0 km/h (1 Bft) W-SW 239 0 min 0,000 mm 0,0 UV-I 5 W/m -2,2 C -0,3 C 4,8 km/h (1 Bft) 100,00 %
18.12.2017 07:46 -0,3 C 3,9 C 88 % 1024,1 hPa 0,0 l/m 1,9 km/h (1 Bft) W-SW 239 0 min 0,000 mm 0,0 UV-I 5 W/m -2,0 C -0,3 C 3,2 km/h (1 Bft) 100,00 %
18.12.2017 07:48 -0,4 C 3,9 C 87 % 1024,1 hPa 0,0 l/m 3,4 km/h (1 Bft) W-SW 239 0 min 0,000 mm 0,0 UV-I 5 W/m -2,3 C -0,4 C 6,4 km/h (2 Bft) 100,00 %
18.12.2017 07:50 -0,3 C 3,9 C 88 % 1024,0 hPa 0,0 l/m 3,2 km/h (1 Bft) W-SW 239 0 min 0,000 mm 0,0 UV-I 5 W/m -2,0 C -0,3 C 4,8 km/h (1 Bft) 97,37 %
18.12.2017 07:52 -0,3 C 3,9 C 87 % 1024,1 hPa 0,0 l/m 3,5 km/h (1 Bft) W-SW 239 0 min 0,000 mm 0,0 UV-I 5 W/m -2,2 C -0,3 C 6,4 km/h (2 Bft) 100,00 %
18.12.2017 07:54 -0,3 C 3,9 C 88 % 1024,1 hPa 0,0 l/m 3,4 km/h (1 Bft) W-SW 239 0 min 0,000 mm 0,0 UV-I 5 W/m -2,0 C -0,3 C 4,8 km/h (1 Bft) 100,00 %
18.12.2017 07:56 -0,4 C 3,9 C 88 % 1024,1 hPa 0,0 l/m 3,4 km/h (1 Bft) W-SW 239 0 min 0,000 mm 0,0 UV-I 5 W/m -2,1 C -0,4 C 4,8 km/h (1 Bft) 100,00 %
18.12.2017 07:58 -0,4 C 3,9 C 88 % 1024,1 hPa 0,0 l/m 3,5 km/h (1 Bft) W-SW 239 0 min 0,000 mm 0,0 UV-I 5 W/m -2,1 C -0,4 C 4,8 km/h (1 Bft) 97,87 %
18.12.2017 08:00 -0,4 C 3,9 C 88 % 1024,1 hPa 0,0 l/m 3,4 km/h (1 Bft) W-SW 239 0 min 0,000 mm 0,0 UV-I 5 W/m -2,1 C -0,4 C 4,8 km/h (1 Bft) 100,00 %
18.12.2017 08:02 -0,4 C 3,9 C 88 % 1024,1 hPa 0,0 l/m 4,1 km/h (1 Bft) W-SW 239 0 min 0,000 mm 0,0 UV-I 7 W/m -2,1 C -0,4 C 6,4 km/h (2 Bft) 100,00 %
18.12.2017 08:04 -0,4 C 3,9 C 89 % 1024,1 hPa 0,0 l/m 3,7 km/h (1 Bft) SW 214 0 min 0,000 mm 0,0 UV-I 7 W/m -2,0 C -0,4 C 6,4 km/h (2 Bft) 98,00 %
18.12.2017 08:06 -0,5 C 3,9 C 88 % 1024,1 hPa 0,0 l/m 3,8 km/h (1 Bft) SW 214 0 min 0,000 mm 0,0 UV-I 7 W/m -2,2 C -0,5 C 4,8 km/h (1 Bft) 95,45 %
18.12.2017 08:08 -0,5 C 3,9 C 88 % 1024,2 hPa 0,0 l/m 4,0 km/h (1 Bft) SW 214 0 min 0,000 mm 0,0 UV-I 7 W/m -2,2 C -0,5 C 4,8 km/h (1 Bft) 100,00 %
18.12.2017 08:10 -0,5 C 3,9 C 88 % 1024,2 hPa 0,0 l/m 4,8 km/h (1 Bft) SW 215 0 min 0,000 mm 0,0 UV-I 8 W/m -2,2 C -0,5 C 8,0 km/h (2 Bft) 98,00 %
18.12.2017 08:12 -0,5 C 3,9 C 88 % 1024,2 hPa 0,0 l/m 5,2 km/h (1 Bft) SW 215 0 min 0,000 mm 0,0 UV-I 9 W/m -2,2 C -0,5 C 8,0 km/h (2 Bft) 97,22 %
18.12.2017 08:14 -0,5 C 3,9 C 87 % 1024,2 hPa 0,0 l/m 5,9 km/h (2 Bft) SW 215 0 min 0,000 mm 0,0 UV-I 9 W/m -2,4 C -0,5 C 8,0 km/h (2 Bft) 98,00 %
18.12.2017 08:16 -0,5 C 3,9 C 87 % 1024,2 hPa 0,0 l/m 4,8 km/h (1 Bft) SW 215 0 min 0,000 mm 0,0 UV-I 9 W/m -2,4 C -0,5 C 6,4 km/h (2 Bft) 94,00 %
18.12.2017 08:18 -0,5 C 3,9 C 88 % 1024,2 hPa 0,0 l/m 3,8 km/h (1 Bft) SW 215 0 min 0,000 mm 0,0 UV-I 11 W/m -2,2 C -0,5 C 6,4 km/h (2 Bft) 98,00 %
18.12.2017 08:20 -0,5 C 3,9 C 87 % 1024,2 hPa 0,0 l/m 3,5 km/h (1 Bft) SW 215 0 min 0,000 mm 0,0 UV-I 12 W/m -2,4 C -0,5 C 4,8 km/h (1 Bft) 96,00 %
18.12.2017 08:22 -0,5 C 3,9 C 87 % 1024,1 hPa 0,0 l/m 3,5 km/h (1 Bft) SW 214 0 min 0,000 mm 0,0 UV-I 15 W/m -2,4 C -0,5 C 8,0 km/h (2 Bft) 95,74 %
18.12.2017 08:24 -0,5 C 3,9 C 87 % 1024,2 hPa 0,0 l/m 3,3 km/h (1 Bft) SW 215 0 min 0,000 mm 0,0 UV-I 19 W/m -2,4 C -0,5 C 4,8 km/h (1 Bft) 97,73 %
18.12.2017 08:26 -0,6 C 3,9 C 87 % 1024,1 hPa 0,0 l/m 4,1 km/h (1 Bft) SW 234 0 min 0,000 mm 0,0 UV-I 22 W/m -2,5 C -0,6 C 6,4 km/h (2 Bft) 98,00 %
18.12.2017 08:28 -0,5 C 3,9 C 87 % 1024,1 hPa 0,0 l/m 4,0 km/h (1 Bft) W-SW 243 0 min 0,000 mm 0,0 UV-I 26 W/m -2,4 C -0,5 C 6,4 km/h (2 Bft) 97,87 %
18.12.2017 08:30 -0,5 C 3,9 C 87 % 1024,2 hPa 0,0 l/m 1,3 km/h (1 Bft) W-SW 243 0 min 0,000 mm 0,0 UV-I 25 W/m -2,4 C -0,5 C 3,2 km/h (1 Bft) 91,49 %
18.12.2017 08:32 -0,4 C 3,9 C 88 % 1024,2 hPa 0,0 l/m 0,0 km/h (0 Bft) W-SW 243 0 min 0,000 mm 0,0 UV-I 25 W/m -2,1 C -0,4 C 0,0 km/h (0 Bft) 93,62 %
18.12.2017 08:34 -0,4 C 3,9 C 87 % 1024,2 hPa 0,0 l/m 3,1 km/h (1 Bft) W-SW 243 0 min 0,000 mm 0,0 UV-I 25 W/m -2,3 C -0,4 C 4,8 km/h (1 Bft) 95,12 %
18.12.2017 08:36 -0,4 C 3,9 C 87 % 1024,2 hPa 0,0 l/m 3,3 km/h (1 Bft) W-SW 243 0 min 0,000 mm 0,0 UV-I 26 W/m -2,3 C -0,4 C 4,8 km/h (1 Bft) 98,00 %
18.12.2017 08:38 -0,4 C 3,9 C 87 % 1024,2 hPa 0,0 l/m 2,7 km/h (1 Bft) W-SW 243 0 min 0,000 mm 0,0 UV-I 29 W/m -2,3 C -0,4 C 4,8 km/h (1 Bft) 94,74 %
18.12.2017 08:40 -0,5 C 3,9 C 88 % 1024,2 hPa 0,0 l/m 2,8 km/h (1 Bft) W-SW 243 0 min 0,000 mm 0,0 UV-I 32 W/m -2,2 C -0,5 C 4,8 km/h (1 Bft) 98,11 %
18.12.2017 08:42 -0,5 C 3,9 C 88 % 1024,2 hPa 0,0 l/m 1,3 km/h (1 Bft) W-SW 243 0 min 0,000 mm 0,0 UV-I 31 W/m -2,2 C -0,5 C 3,2 km/h (1 Bft) 94,00 %
18.12.2017 08:44 -0,6 C 3,9 C 88 % 1024,1 hPa 0,0 l/m 0,7 km/h (0 Bft) W-SW 243 0 min 0,000 mm 0,0 UV-I 28 W/m -2,3 C -0,6 C 1,6 km/h (1 Bft) 100,00 %
18.12.2017 08:46 -0,6 C 3,9 C 88 % 1024,2 hPa 0,0 l/m 0,8 km/h (0 Bft) W-SW 243 0 min 0,000 mm 0,0 UV-I 28 W/m -2,3 C -0,6 C 3,2 km/h (1 Bft) 97,87 %
18.12.2017 08:48 -0,7 C 3,9 C 88 % 1024,1 hPa 0,0 l/m 0,8 km/h (0 Bft) W-SW 243 0 min 0,000 mm 0,0 UV-I 28 W/m -2,4 C -0,7 C 3,2 km/h (1 Bft) 97,50 %
18.12.2017 08:50 -0,8 C 3,9 C 88 % 1024,1 hPa 0,0 l/m 1,6 km/h (1 Bft) W-SW 243 0 min 0,000 mm 0,0 UV-I 31 W/m -2,5 C -0,8 C 3,2 km/h (1 Bft) 96,00 %
18.12.2017 08:52 -0,8 C 3,9 C 88 % 1024,1 hPa 0,0 l/m 0,2 km/h (0 Bft) W-SW 243 0 min 0,000 mm 0,0 UV-I 33 W/m -2,5 C -0,8 C 1,6 km/h (1 Bft) 97,44 %
18.12.2017 08:54 -0,8 C 3,9 C 88 % 1024,2 hPa 0,0 l/m 0,6 km/h (0 Bft) W-SW 243 0 min 0,000 mm 0,0 UV-I 36 W/m -2,5 C -0,8 C 3,2 km/h (1 Bft) 97,37 %
18.12.2017 08:56 -0,8 C 3,9 C 88 % 1024,2 hPa 0,0 l/m 0,7 km/h (0 Bft) W-SW 243 0 min 0,000 mm 0,0 UV-I 39 W/m -2,5 C -0,8 C 3,2 km/h (1 Bft) 98,46 %
18.12.2017 08:58 -0,9 C 3,9 C 88 % 1024,2 hPa 0,0 l/m 1,0 km/h (0 Bft) W-SW 243 0 min 0,000 mm 0,0 UV-I 43 W/m -2,6 C -0,9 C 3,2 km/h (1 Bft) 95,74 %
18.12.2017 09:00 -0,9 C 3,9 C 88 % 1024,2 hPa 0,0 l/m 1,5 km/h (1 Bft) W-SW 243 0 min 0,000 mm 0,0 UV-I 52 W/m -2,6 C -0,9 C 3,2 km/h (1 Bft) 95,74 %
18.12.2017 09:02 -0,9 C 3,9 C 89 % 1024,1 hPa 0,0 l/m 0,4 km/h (0 Bft) W-SW 243 2 min 0,000 mm 0,0 UV-I 113 W/m -2,5 C -0,9 C 3,2 km/h (1 Bft) 93,62 %
18.12.2017 09:04 -1,0 C 3,9 C 89 % 1024,2 hPa 0,0 l/m 1,6 km/h (1 Bft) W-SW 243 2 min 0,000 mm 0,0 UV-I 127 W/m -2,6 C -1,0 C 3,2 km/h (1 Bft) 100,00 %
18.12.2017 09:06 -1,1 C 3,9 C 90 % 1024,2 hPa 0,0 l/m 3,1 km/h (1 Bft) W-SW 243 2 min 0,000 mm 0,0 UV-I 147 W/m -2,5 C -1,1 C 3,2 km/h (1 Bft) 93,62 %
18.12.2017 09:08 -1,0 C 3,9 C 90 % 1024,2 hPa 0,0 l/m 2,7 km/h (1 Bft) W-SW 242 2 min 0,000 mm 0,0 UV-I 154 W/m -2,4 C -1,0 C 3,2 km/h (1 Bft) 98,18 %
18.12.2017 09:10 -0,8 C 3,9 C 90 % 1024,1 hPa 0,0 l/m 2,8 km/h (1 Bft) W-SW 242 2 min 0,000 mm 0,0 UV-I 158 W/m -2,2 C -0,8 C 3,2 km/h (1 Bft) 97,56 %
18.12.2017 09:12 -0,7 C 3,9 C 90 % 1024,1 hPa 0,0 l/m 2,7 km/h (1 Bft) W-SW 242 2 min 0,000 mm 0,0 UV-I 167 W/m -2,1 C -0,7 C 3,2 km/h (1 Bft) 98,11 %
18.12.2017 09:14 -0,6 C 3,9 C 89 % 1024,2 hPa 0,0 l/m 2,5 km/h (1 Bft) W-SW 242 2 min 0,000 mm 0,0 UV-I 177 W/m -2,2 C -0,6 C 4,8 km/h (1 Bft) 98,00 %
18.12.2017 09:16 -0,5 C 3,9 C 89 % 1024,2 hPa 0,0 l/m 2,0 km/h (1 Bft) W-SW 242 2 min 0,000 mm 0,0 UV-I 185 W/m -2,1 C -0,5 C 3,2 km/h (1 Bft) 97,37 %
18.12.2017 09:18 -0,5 C 3,9 C 88 % 1024,2 hPa 0,0 l/m 1,7 km/h (1 Bft) W-SW 242 2 min 0,000 mm 0,0 UV-I 190 W/m -2,2 C -0,5 C 3,2 km/h (1 Bft) 98,11 %
18.12.2017 09:20 -0,4 C 3,9 C 88 % 1024,2 hPa 0,0 l/m 1,8 km/h (1 Bft) W-SW 242 2 min 0,000 mm 0,0 UV-I 192 W/m -2,1 C -0,4 C 3,2 km/h (1 Bft) 97,14 %
18.12.2017 09:22 -0,3 C 3,9 C 88 % 1024,2 hPa 0,0 l/m 0,5 km/h (0 Bft) W-SW 242 2 min 0,000 mm 0,0 UV-I 105 W/m -2,0 C -0,3 C 1,6 km/h (1 Bft) 95,16 %
18.12.2017 09:24 -0,3 C 3,9 C 87 % 1024,2 hPa 0,0 l/m 2,4 km/h (1 Bft) W-SW 242 2 min 0,000 mm 0,0 UV-I 104 W/m -2,2 C -0,3 C 4,8 km/h (1 Bft) 97,56 %
18.12.2017 09:26 -0,3 C 3,9 C 87 % 1024,3 hPa 0,0 l/m 0,7 km/h (0 Bft) W-SW 242 2 min 0,000 mm 0,0 UV-I 201 W/m -2,2 C -0,3 C 3,2 km/h (1 Bft) 98,00 %
18.12.2017 09:28 -0,3 C 3,9 C 87 % 1024,3 hPa 0,0 l/m 1,5 km/h (1 Bft) W-SW 242 2 min 0,000 mm 0,0 UV-I 202 W/m -2,2 C -0,3 C 3,2 km/h (1 Bft) 94,87 %
18.12.2017 09:30 -0,3 C 3,9 C 87 % 1024,4 hPa 0,0 l/m 3,0 km/h (1 Bft) W-SW 242 2 min 0,000 mm 0,0 UV-I 177 W/m -2,2 C -0,3 C 4,8 km/h (1 Bft) 97,87 %
18.12.2017 09:32 -0,2 C 3,9 C 87 % 1024,4 hPa 0,0 l/m 3,3 km/h (1 Bft) W-SW 242 2 min 0,000 mm 0,0 UV-I 217 W/m -2,1 C -0,2 C 4,8 km/h (1 Bft) 96,00 %
18.12.2017 09:34 -0,2 C 3,9 C 86 % 1024,4 hPa 0,0 l/m 3,8 km/h (1 Bft) W-SW 242 2 min 0,000 mm 0,0 UV-I 208 W/m -2,3 C -0,2 C 4,8 km/h (1 Bft) 97,87 %
18.12.2017 09:36 -0,2 C 3,9 C 86 % 1024,5 hPa 0,0 l/m 2,8 km/h (1 Bft) W-SW 242 2 min 0,000 mm 0,0 UV-I 180 W/m -2,3 C -0,2 C 4,8 km/h (1 Bft) 95,74 %
18.12.2017 09:38 -0,2 C 3,9 C 86 % 1024,5 hPa 0,0 l/m 0,5 km/h (0 Bft) W-SW 242 2 min 0,000 mm 0,0 UV-I 158 W/m -2,3 C -0,2 C 3,2 km/h (1 Bft) 98,00 %
18.12.2017 09:40 -0,2 C 3,9 C 86 % 1024,5 hPa 0,0 l/m 0,0 km/h (0 Bft) W-SW 242 2 min 0,000 mm 0,0 UV-I 197 W/m -2,3 C -0,2 C 1,6 km/h (1 Bft) 97,56 %
18.12.2017 09:42 -0,1 C 3,9 C 86 % 1024,5 hPa 0,0 l/m 0,0 km/h (0 Bft) W-SW 242 2 min 0,000 mm 0,0 UV-I 206 W/m -2,2 C -0,1 C 0,0 km/h (0 Bft) 97,87 %
18.12.2017 09:44 0,0 C 3,9 C 86 % 1024,5 hPa 0,0 l/m 0,0 km/h (0 Bft) W-SW 242 2 min 0,000 mm 0,0 UV-I 160 W/m -2,1 C 0,0 C 0,0 km/h (0 Bft) 96,23 %
18.12.2017 09:46 -0,1 C 3,9 C 86 % 1024,5 hPa 0,0 l/m 0,0 km/h (0 Bft) W-SW 242 2 min 0,000 mm 0,0 UV-I 145 W/m -2,2 C -0,1 C 1,6 km/h (1 Bft) 97,37 %
18.12.2017 09:48 -0,1 C 3,9 C 85 % 1024,6 hPa 0,0 l/m 0,2 km/h (0 Bft) W-SW 242 2 min 0,000 mm 0,0 UV-I 191 W/m -2,3 C -0,1 C 1,6 km/h (1 Bft) 97,87 %
18.12.2017 09:50 -0,1 C 3,9 C 85 % 1024,6 hPa 0,0 l/m 1,1 km/h (1 Bft) W-SW 242 2 min 0,000 mm 0,0 UV-I 195 W/m -2,3 C -0,1 C 1,6 km/h (1 Bft) 95,74 %
18.12.2017 09:52 0,1 C 3,9 C 86 % 1024,6 hPa 0,0 l/m 1,7 km/h (1 Bft) W-SW 242 2 min 0,000 mm 0,0 UV-I 174 W/m -2,0 C 0,1 C 3,2 km/h (1 Bft) 98,11 %
18.12.2017 09:54 0,0 C 3,9 C 85 % 1024,6 hPa 0,0 l/m 2,1 km/h (1 Bft) W-SW 242 2 min 0,000 mm 0,0 UV-I 128 W/m -2,2 C 0,0 C 3,2 km/h (1 Bft) 97,87 %
18.12.2017 09:56 0,1 C 3,9 C 85 % 1024,6 hPa 0,0 l/m 2,1 km/h (1 Bft) W-SW 242 0 min 0,000 mm 0,0 UV-I 107 W/m -2,1 C 0,1 C 3,2 km/h (1 Bft) 98,00 %
18.12.2017 09:58 0,0 C 3,9 C 84 % 1024,6 hPa 0,0 l/m 1,7 km/h (1 Bft) W-SW 242 0 min 0,000 mm 0,0 UV-I 129 W/m -2,4 C 0,0 C 3,2 km/h (1 Bft) 95,74 %
18.12.2017 10:00 0,0 C 3,9 C 84 % 1024,6 hPa 0,0 l/m 1,1 km/h (1 Bft) W-SW 242 2 min 0,051 mm 0,0 UV-I 162 W/m -2,4 C 0,0 C 1,6 km/h (1 Bft) 100,00 %
18.12.2017 10:02 0,1 C 3,9 C 84 % 1024,6 hPa 0,0 l/m 0,9 km/h (0 Bft) W-SW 242 2 min 0,000 mm 0,0 UV-I 208 W/m -2,3 C 0,1 C 1,6 km/h (1 Bft) 100,00 %
18.12.2017 10:04 0,1 C 3,9 C 84 % 1024,6 hPa 0,0 l/m 0,5 km/h (0 Bft) W-SW 242 2 min 0,000 mm 0,0 UV-I 220 W/m -2,3 C 0,1 C 1,6 km/h (1 Bft) 97,87 %
18.12.2017 10:06 0,1 C 3,9 C 84 % 1024,6 hPa 0,0 l/m 0,4 km/h (0 Bft) W-SW 242 2 min 0,000 mm 0,0 UV-I 196 W/m -2,3 C 0,1 C 1,6 km/h (1 Bft) 98,00 %
18.12.2017 10:08 0,0 C 3,9 C 84 % 1024,6 hPa 0,2 l/m 0,7 km/h (0 Bft) W-SW 242 0 min 0,000 mm 0,0 UV-I 71 W/m -2,4 C 0,0 C 1,6 km/h (1 Bft) 100,00 %
18.12.2017 10:10 0,0 C 3,9 C 84 % 1024,6 hPa 0,0 l/m 1,8 km/h (1 Bft) W-SW 242 0 min 0,000 mm 0,0 UV-I 71 W/m -2,4 C 0,0 C 3,2 km/h (1 Bft) 100,00 %
18.12.2017 10:12 -0,1 C 3,9 C 85 % 1024,7 hPa 0,0 l/m 3,0 km/h (1 Bft) W-SW 242 2 min 0,000 mm 0,0 UV-I 177 W/m -2,3 C -0,1 C 3,2 km/h (1 Bft) 98,39 %
18.12.2017 10:14 -0,1 C 3,9 C 85 % 1024,7 hPa 0,0 l/m 2,6 km/h (1 Bft) W-SW 242 2 min 0,000 mm 0,0 UV-I 187 W/m -2,3 C -0,1 C 4,8 km/h (1 Bft) 100,00 %
18.12.2017 10:16 0,0 C 3,9 C 84 % 1024,7 hPa 0,0 l/m 2,3 km/h (1 Bft) W-SW 242 2 min 0,000 mm 0,0 UV-I 155 W/m -2,4 C 0,0 C 3,2 km/h (1 Bft) 98,00 %
18.12.2017 10:18 0,1 C 3,9 C 84 % 1024,7 hPa 0,0 l/m 2,5 km/h (1 Bft) W-SW 242 2 min 0,000 mm 0,0 UV-I 154 W/m -2,3 C 0,1 C 4,8 km/h (1 Bft) 100,00 %
18.12.2017 10:20 0,1 C 3,9 C 84 % 1024,7 hPa 0,0 l/m 3,3 km/h (1 Bft) W-SW 242 0 min 0,000 mm 0,0 UV-I 127 W/m -2,3 C 0,1 C 4,8 km/h (1 Bft) 98,11 %
18.12.2017 10:22 0,1 C 3,9 C 84 % 1024,7 hPa 0,0 l/m 2,2 km/h (1 Bft) W-SW 242 0 min 0,000 mm 0,0 UV-I 100 W/m -2,3 C 0,1 C 3,2 km/h (1 Bft) 97,37 %
18.12.2017 10:24 0,0 C 3,9 C 84 % 1024,7 hPa 0,0 l/m 1,2 km/h (1 Bft) W-SW 242 0 min 0,000 mm 0,0 UV-I 83 W/m -2,4 C 0,0 C 3,2 km/h (1 Bft) 98,11 %
18.12.2017 10:26 -0,1 C 3,9 C 84 % 1024,7 hPa 0,0 l/m 0,0 km/h (0 Bft) W-SW 242 0 min 0,000 mm 0,0 UV-I 80 W/m -2,5 C -0,1 C 1,6 km/h (1 Bft) 97,87 %
18.12.2017 10:28 -0,1 C 3,9 C 85 % 1024,7 hPa 0,0 l/m 0,0 km/h (0 Bft) W-SW 242 0 min 0,000 mm 0,0 UV-I 80 W/m -2,3 C -0,1 C 0,0 km/h (0 Bft) 95,74 %
18.12.2017 10:30 0,1 C 3,9 C 84 % 1024,7 hPa 0,0 l/m 0,0 km/h (0 Bft) W-SW 242 0 min 0,000 mm 0,0 UV-I 82 W/m -2,3 C 0,1 C 0,0 km/h (0 Bft) 98,00 %
18.12.2017 10:32 0,2 C 3,9 C 84 % 1024,7 hPa 0,0 l/m 0,0 km/h (0 Bft) W-SW 242 0 min 0,000 mm 0,0 UV-I 86 W/m -2,2 C 0,2 C 0,0 km/h (0 Bft) 93,62 %
18.12.2017 10:34 0,3 C 3,9 C 83 % 1024,7 hPa 0,0 l/m 0,0 km/h (0 Bft) W-SW 242 0 min 0,000 mm 0,0 UV-I 96 W/m -2,2 C 0,3 C 0,0 km/h (0 Bft) 97,56 %
18.12.2017 10:36 0,3 C 3,9 C 82 % 1024,7 hPa 0,0 l/m 0,0 km/h (0 Bft) W-SW 242 0 min 0,000 mm 0,0 UV-I 89 W/m -2,4 C 0,3 C 0,0 km/h (0 Bft) 97,87 %
18.12.2017 10:38 0,2 C 3,9 C 83 % 1024,7 hPa 0,0 l/m 0,0 km/h (0 Bft) W-SW 242 0 min 0,000 mm 0,0 UV-I 89 W/m -2,3 C 0,2 C 0,0 km/h (0 Bft) 93,62 %
18.12.2017 10:40 0,0 C 3,9 C 85 % 1024,7 hPa 0,0 l/m 0,0 km/h (0 Bft) W-SW 242 0 min 0,000 mm 0,0 UV-I 86 W/m -2,2 C 0,0 C 0,0 km/h (0 Bft) 97,87 %
18.12.2017 10:42 -0,1 C 3,9 C 85 % 1024,7 hPa 0,0 l/m 0,0 km/h (0 Bft) W-SW 242 0 min 0,000 mm 0,0 UV-I 89 W/m -2,3 C -0,1 C 0,0 km/h (0 Bft) 97,37 %
18.12.2017 10:44 -0,2 C 3,9 C 86 % 1024,7 hPa 0,0 l/m 0,0 km/h (0 Bft) W-SW 242 0 min 0,000 mm 0,0 UV-I 98 W/m -2,3 C -0,2 C 0,0 km/h (0 Bft) 98,11 %
18.12.2017 10:46 -0,3 C 3,9 C 86 % 1024,7 hPa 0,0 l/m 0,3 km/h (0 Bft) W-SW 242 0 min 0,000 mm 0,0 UV-I 101 W/m -2,3 C -0,3 C 3,2 km/h (1 Bft) 97,87 %
18.12.2017 10:48 -0,3 C 3,9 C 86 % 1024,7 hPa 0,0 l/m 1,8 km/h (1 Bft) W-SW 242 0 min 0,000 mm 0,0 UV-I 98 W/m -2,3 C -0,3 C 3,2 km/h (1 Bft) 97,62 %
18.12.2017 10:50 -0,3 C 3,9 C 86 % 1024,7 hPa 0,0 l/m 2,1 km/h (1 Bft) W-SW 242 0 min 0,000 mm 0,0 UV-I 94 W/m -2,3 C -0,3 C 3,2 km/h (1 Bft) 98,00 %
18.12.2017 10:52 -0,2 C 3,9 C 85 % 1024,6 hPa 0,0 l/m 2,3 km/h (1 Bft) W-SW 242 0 min 0,000 mm 0,1 UV-I 106 W/m -2,4 C -0,2 C 3,2 km/h (1 Bft) 100,00 %
18.12.2017 10:54 -0,1 C 3,9 C 85 % 1024,7 hPa 0,0 l/m 2,3 km/h (1 Bft) W-SW 242 2 min 0,000 mm 0,5 UV-I 187 W/m -2,3 C -0,1 C 3,2 km/h (1 Bft) 98,11 %
18.12.2017 10:56 0,0 C 3,9 C 85 % 1024,6 hPa 0,0 l/m 2,0 km/h (1 Bft) W-SW 242 2 min 0,000 mm 0,5 UV-I 291 W/m -2,2 C 0,0 C 3,2 km/h (1 Bft) 98,11 %
18.12.2017 10:58 0,1 C 3,9 C 85 % 1024,6 hPa 0,0 l/m 2,3 km/h (1 Bft) W-SW 242 2 min 0,000 mm 0,5 UV-I 226 W/m -2,1 C 0,1 C 3,2 km/h (1 Bft) 100,00 %
18.12.2017 11:00 0,2 C 3,9 C 84 % 1024,6 hPa 0,0 l/m 3,1 km/h (1 Bft) W-SW 242 2 min 0,051 mm 0,5 UV-I 193 W/m -2,2 C 0,2 C 4,8 km/h (1 Bft) 97,56 %
18.12.2017 11:02 0,2 C 3,9 C 84 % 1024,6 hPa 0,0 l/m 3,0 km/h (1 Bft) W-SW 242 0 min 0,000 mm 0,5 UV-I 103 W/m -2,2 C 0,2 C 4,8 km/h (1 Bft) 98,11 %
18.12.2017 11:04 0,2 C 3,9 C 84 % 1024,7 hPa 0,0 l/m 3,6 km/h (1 Bft) W-SW 242 0 min 0,000 mm 0,5 UV-I 97 W/m -2,2 C 0,2 C 4,8 km/h (1 Bft) 100,00 %
18.12.2017 11:06 0,1 C 3,9 C 84 % 1024,7 hPa 0,0 l/m 2,8 km/h (1 Bft) W-SW 242 0 min 0,000 mm 0,5 UV-I 114 W/m -2,3 C 0,1 C 3,2 km/h (1 Bft) 95,74 %
18.12.2017 11:08 0,1 C 3,9 C 84 % 1024,7 hPa 0,0 l/m 2,7 km/h (1 Bft) W-SW 242 2 min 0,000 mm 0,5 UV-I 225 W/m -2,3 C 0,1 C 3,2 km/h (1 Bft) 100,00 %
18.12.2017 11:10 0,3 C 3,9 C 84 % 1024,6 hPa 0,0 l/m 2,3 km/h (1 Bft) W-SW 242 2 min 0,000 mm 0,5 UV-I 289 W/m -2,1 C 0,3 C 3,2 km/h (1 Bft) 100,00 %
18.12.2017 11:12 0,2 C 3,9 C 84 % 1024,7 hPa 0,0 l/m 1,6 km/h (1 Bft) W-SW 242 2 min 0,000 mm 0,5 UV-I 251 W/m -2,2 C 0,2 C 3,2 km/h (1 Bft) 100,00 %
18.12.2017 11:14 0,2 C 3,9 C 85 % 1024,6 hPa 0,0 l/m 2,1 km/h (1 Bft) W-SW 242 0 min 0,000 mm 0,5 UV-I 166 W/m -2,0 C 0,2 C 3,2 km/h (1 Bft) 100,00 %
18.12.2017 11:16 0,3 C 3,9 C 84 % 1024,7 hPa 0,0 l/m 2,8 km/h (1 Bft) W-SW 242 0 min 0,000 mm 0,5 UV-I 160 W/m -2,1 C 0,3 C 3,2 km/h (1 Bft) 100,00 %
18.12.2017 11:18 0,3 C 3,9 C 84 % 1024,6 hPa 0,0 l/m 2,3 km/h (1 Bft) W-SW 242 0 min 0,000 mm 0,5 UV-I 132 W/m -2,1 C 0,3 C 3,2 km/h (1 Bft) 100,00 %
18.12.2017 11:20 0,3 C 3,9 C 83 % 1024,6 hPa 0,0 l/m 1,8 km/h (1 Bft) W-SW 242 0 min 0,000 mm 0,5 UV-I 173 W/m -2,2 C 0,3 C 3,2 km/h (1 Bft) 100,00 %
18.12.2017 11:22 0,3 C 3,9 C 83 % 1024,6 hPa 0,0 l/m 2,1 km/h (1 Bft) W-SW 242 2 min 0,000 mm 0,5 UV-I 224 W/m -2,2 C 0,3 C 3,2 km/h (1 Bft) 100,00 %
18.12.2017 11:24 0,3 C 3,9 C 83 % 1024,5 hPa 0,0 l/m 2,5 km/h (1 Bft) W-SW 242 2 min 0,000 mm 0,5 UV-I 248 W/m -2,2 C 0,3 C 3,2 km/h (1 Bft) 100,00 %
18.12.2017 11:26 0,3 C 3,9 C 82 % 1024,6 hPa 0,0 l/m 2,0 km/h (1 Bft) W-SW 242 2 min 0,000 mm 0,5 UV-I 232 W/m -2,4 C 0,3 C 3,2 km/h (1 Bft) 100,00 %
18.12.2017 11:28 0,3 C 3,9 C 83 % 1024,5 hPa 0,0 l/m 1,8 km/h (1 Bft) W-SW 242 2 min 0,000 mm 0,5 UV-I 269 W/m -2,2 C 0,3 C 3,2 km/h (1 Bft) 100,00 %
18.12.2017 11:30 0,4 C 3,9 C 83 % 1024,5 hPa 0,0 l/m 1,8 km/h (1 Bft) W-SW 242 2 min 0,000 mm 0,6 UV-I 338 W/m -2,1 C 0,4 C 3,2 km/h (1 Bft) 98,08 %
18.12.2017 11:32 0,5 C 3,9 C 83 % 1024,5 hPa 0,0 l/m 2,4 km/h (1 Bft) W-SW 242 2 min 0,000 mm 0,5 UV-I 273 W/m -2,0 C 0,5 C 4,8 km/h (1 Bft) 100,00 %
18.12.2017 11:34 0,7 C 3,9 C 83 % 1024,4 hPa 0,2 l/m 2,7 km/h (1 Bft) W-SW 242 2 min 0,000 mm 0,5 UV-I 186 W/m -1,8 C 0,7 C 3,2 km/h (1 Bft) 100,00 %
18.12.2017 11:36 0,7 C 3,9 C 82 % 1024,4 hPa 0,0 l/m 2,3 km/h (1 Bft) W-SW 242 2 min 0,000 mm 0,5 UV-I 184 W/m -2,0 C 0,7 C 3,2 km/h (1 Bft) 100,00 %
18.12.2017 11:38 0,6 C 3,9 C 81 % 1024,4 hPa 0,0 l/m 2,5 km/h (1 Bft) W-SW 242 2 min 0,000 mm 0,5 UV-I 197 W/m -2,3 C 0,6 C 3,2 km/h (1 Bft) 97,87 %
18.12.2017 11:40 0,5 C 3,9 C 82 % 1024,4 hPa 0,0 l/m 2,9 km/h (1 Bft) W-SW 242 2 min 0,000 mm 0,5 UV-I 211 W/m -2,2 C 0,5 C 4,8 km/h (1 Bft) 100,00 %
18.12.2017 11:42 0,5 C 3,9 C 82 % 1024,4 hPa 0,0 l/m 1,7 km/h (1 Bft) W-SW 242 0 min 0,000 mm 0,5 UV-I 166 W/m -2,2 C 0,5 C 3,2 km/h (1 Bft) 100,00 %
18.12.2017 11:44 0,4 C 3,9 C 82 % 1024,4 hPa 0,0 l/m 2,4 km/h (1 Bft) W-SW 242 0 min 0,000 mm 0,5 UV-I 167 W/m -2,3 C 0,4 C 3,2 km/h (1 Bft) 98,00 %
18.12.2017 11:46 0,4 C 3,9 C 82 % 1024,4 hPa 0,0 l/m 1,8 km/h (1 Bft) W-SW 242 2 min 0,000 mm 0,5 UV-I 180 W/m -2,3 C 0,4 C 3,2 km/h (1 Bft) 100,00 %
18.12.2017 11:48 0,4 C 3,9 C 82 % 1024,5 hPa 0,0 l/m 1,6 km/h (1 Bft) W-SW 242 2 min 0,000 mm 0,5 UV-I 184 W/m -2,3 C 0,4 C 3,2 km/h (1 Bft) 100,00 %
18.12.2017 11:50 0,4 C 3,9 C 82 % 1024,4 hPa 0,0 l/m 2,4 km/h (1 Bft) W-SW 242 2 min 0,000 mm 0,5 UV-I 182 W/m -2,3 C 0,4 C 3,2 km/h (1 Bft) 95,74 %
18.12.2017 11:52 0,4 C 3,9 C 82 % 1024,5 hPa 0,0 l/m 2,5 km/h (1 Bft) W-SW 242 2 min 0,000 mm 0,5 UV-I 179 W/m -2,3 C 0,4 C 4,8 km/h (1 Bft) 100,00 %
18.12.2017 11:54 0,4 C 3,9 C 81 % 1024,5 hPa 0,0 l/m 2,6 km/h (1 Bft) W-SW 242 0 min 0,000 mm 0,5 UV-I 170 W/m -2,5 C 0,4 C 3,2 km/h (1 Bft) 100,00 %
18.12.2017 11:56 0,5 C 3,9 C 82 % 1024,4 hPa 0,0 l/m 2,7 km/h (1 Bft) W-SW 242 0 min 0,000 mm 0,2 UV-I 163 W/m -2,2 C 0,5 C 3,2 km/h (1 Bft) 100,00 %
18.12.2017 11:58 0,6 C 3,9 C 81 % 1024,5 hPa 0,0 l/m 2,2 km/h (1 Bft) W-SW 242 0 min 0,000 mm 0,0 UV-I 157 W/m -2,3 C 0,6 C 3,2 km/h (1 Bft) 100,00 %
18.12.2017 12:00 0,6 C 3,9 C 82 % 1024,4 hPa 0,0 l/m 2,5 km/h (1 Bft) W-SW 242 0 min 0,076 mm 0,0 UV-I 155 W/m -2,1 C 0,6 C 3,2 km/h (1 Bft) 98,21 %
18.12.2017 12:02 0,7 C 3,9 C 81 % 1024,4 hPa 0,0 l/m 3,0 km/h (1 Bft) W-SW 242 0 min 0,000 mm 0,0 UV-I 152 W/m -2,2 C 0,7 C 3,2 km/h (1 Bft) 100,00 %
18.12.2017 12:04 0,7 C 3,9 C 81 % 1024,3 hPa 0,0 l/m 2,4 km/h (1 Bft) W-SW 242 0 min 0,000 mm 0,0 UV-I 149 W/m -2,2 C 0,7 C 3,2 km/h (1 Bft) 94,34 %
18.12.2017 12:06 0,7 C 3,9 C 81 % 1024,3 hPa 0,0 l/m 1,5 km/h (1 Bft) W-SW 242 0 min 0,000 mm 0,0 UV-I 149 W/m -2,2 C 0,7 C 3,2 km/h (1 Bft) 97,22 %
18.12.2017 12:08 0,6 C 3,9 C 80 % 1024,3 hPa 0,0 l/m 0,0 km/h (0 Bft) W-SW 242 0 min 0,000 mm 0,0 UV-I 152 W/m -2,4 C 0,6 C 0,0 km/h (0 Bft) 98,36 %
18.12.2017 12:10 0,7 C 3,9 C 81 % 1024,2 hPa 0,0 l/m 0,0 km/h (0 Bft) W-SW 242 0 min 0,000 mm 0,0 UV-I 154 W/m -2,2 C 0,7 C 0,0 km/h (0 Bft) 97,87 %
18.12.2017 12:12 0,8 C 3,9 C 81 % 1024,2 hPa 0,0 l/m 0,0 km/h (0 Bft) W-SW 242 0 min 0,000 mm 0,0 UV-I 155 W/m -2,1 C 0,8 C 0,0 km/h (0 Bft) 97,87 %
18.12.2017 12:14 0,9 C 3,9 C 81 % 1024,3 hPa 0,0 l/m 0,4 km/h (0 Bft) W-SW 242 0 min 0,000 mm 0,0 UV-I 157 W/m -2,0 C 0,9 C 1,6 km/h (1 Bft) 97,44 %
18.12.2017 12:16 0,8 C 3,9 C 82 % 1024,2 hPa 0,0 l/m 0,2 km/h (0 Bft) W-SW 242 0 min 0,000 mm 0,0 UV-I 161 W/m -1,9 C 0,8 C 1,6 km/h (1 Bft) 97,87 %
18.12.2017 12:18 0,8 C 3,9 C 81 % 1024,2 hPa 0,0 l/m 1,5 km/h (1 Bft) W-SW 242 0 min 0,000 mm 0,0 UV-I 163 W/m -2,1 C 0,8 C 3,2 km/h (1 Bft) 93,62 %
18.12.2017 12:20 0,8 C 3,9 C 80 % 1024,2 hPa 0,0 l/m 0,7 km/h (0 Bft) W-SW 242 0 min 0,000 mm 0,0 UV-I 165 W/m -2,2 C 0,8 C 3,2 km/h (1 Bft) 92,45 %
18.12.2017 12:22 0,9 C 3,9 C 81 % 1024,2 hPa 0,0 l/m 2,6 km/h (1 Bft) W-SW 242 0 min 0,000 mm 0,0 UV-I 164 W/m -2,0 C 0,9 C 4,8 km/h (1 Bft) 97,87 %
18.12.2017 12:24 1,0 C 3,9 C 81 % 1024,3 hPa 0,0 l/m 4,0 km/h (1 Bft) W-SW 242 0 min 0,000 mm 0,0 UV-I 162 W/m -1,9 C 1,0 C 4,8 km/h (1 Bft) 97,37 %
18.12.2017 12:26 0,9 C 3,9 C 82 % 1024,3 hPa 0,0 l/m 3,7 km/h (1 Bft) W-SW 242 0 min 0,000 mm 0,0 UV-I 160 W/m -1,8 C 0,9 C 4,8 km/h (1 Bft) 94,00 %
18.12.2017 12:28 0,9 C 3,9 C 80 % 1024,3 hPa 0,0 l/m 4,1 km/h (1 Bft) W-SW 242 0 min 0,000 mm 0,0 UV-I 156 W/m -2,2 C 0,9 C 4,8 km/h (1 Bft) 97,87 %
18.12.2017 12:30 0,9 C 3,9 C 80 % 1024,2 hPa 0,0 l/m 3,6 km/h (1 Bft) W-SW 242 0 min 0,000 mm 0,0 UV-I 151 W/m -2,2 C 0,9 C 4,8 km/h (1 Bft) 98,11 %
18.12.2017 12:32 0,8 C 3,9 C 80 % 1024,2 hPa 0,0 l/m 3,7 km/h (1 Bft) W-SW 242 0 min 0,000 mm 0,0 UV-I 148 W/m -2,2 C 0,8 C 4,8 km/h (1 Bft) 100,00 %
18.12.2017 12:34 0,9 C 3,9 C 80 % 1024,3 hPa 0,0 l/m 4,4 km/h (1 Bft) O 80 0 min 0,000 mm 0,0 UV-I 144 W/m -2,2 C 0,9 C 6,4 km/h (2 Bft) 98,21 %
18.12.2017 12:36 0,9 C 3,9 C 80 % 1024,3 hPa 0,0 l/m 3,9 km/h (1 Bft) O 80 0 min 0,000 mm 0,0 UV-I 142 W/m -2,2 C 0,9 C 4,8 km/h (1 Bft) 100,00 %
18.12.2017 12:38 0,9 C 3,9 C 80 % 1024,2 hPa 0,0 l/m 4,1 km/h (1 Bft) O 80 0 min 0,000 mm 0,0 UV-I 142 W/m -2,2 C 0,9 C 6,4 km/h (2 Bft) 95,74 %
18.12.2017 12:40 0,9 C 3,9 C 80 % 1024,2 hPa 0,0 l/m 3,3 km/h (1 Bft) O 80 0 min 0,000 mm 0,0 UV-I 142 W/m -2,2 C 0,9 C 4,8 km/h (1 Bft) 100,00 %
18.12.2017 12:43 0,9 C 3,9 C 80 % 1024,3 hPa 0,0 l/m 3,1 km/h (1 Bft) O 80 0 min 0,000 mm 0,0 UV-I 140 W/m -2,2 C 0,9 C 4,8 km/h (1 Bft) 98,65 %
18.12.2017 12:44 0,9 C 3,9 C 80 % 1024,3 hPa 0,0 l/m 3,2 km/h (1 Bft) O 80 0 min 0,000 mm 0,0 UV-I 137 W/m -2,2 C 0,9 C 4,8 km/h (1 Bft) 100,00 %
18.12.2017 12:46 0,9 C 3,9 C 80 % 1024,3 hPa 0,0 l/m 3,0 km/h (1 Bft) O 80 0 min 0,000 mm 0,0 UV-I 137 W/m -2,2 C 0,9 C 4,8 km/h (1 Bft) 100,00 %
18.12.2017 12:48 0,9 C 3,9 C 81 % 1024,3 hPa 0,0 l/m 3,2 km/h (1 Bft) O 80 0 min 0,000 mm 0,0 UV-I 142 W/m -2,0 C 0,9 C 4,8 km/h (1 Bft) 100,00 %
18.12.2017 12:50 1,0 C 3,9 C 82 % 1024,3 hPa 0,0 l/m 4,1 km/h (1 Bft) O 80 0 min 0,000 mm 0,0 UV-I 144 W/m -1,7 C 1,0 C 6,4 km/h (2 Bft) 100,00 %
18.12.2017 12:52 1,0 C 3,9 C 81 % 1024,3 hPa 0,0 l/m 4,3 km/h (1 Bft) O 80 0 min 0,000 mm 0,0 UV-I 149 W/m -1,9 C 1,0 C 6,4 km/h (2 Bft) 100,00 %
18.12.2017 12:54 1,0 C 3,9 C 81 % 1024,3 hPa 0,0 l/m 3,1 km/h (1 Bft) O 80 0 min 0,000 mm 0,0 UV-I 152 W/m -1,9 C 1,0 C 4,8 km/h (1 Bft) 100,00 %
18.12.2017 12:56 1,1 C 3,9 C 81 % 1024,3 hPa 0,0 l/m 2,8 km/h (1 Bft) O 80 0 min 0,000 mm 0,0 UV-I 155 W/m -1,8 C 1,1 C 3,2 km/h (1 Bft) 100,00 %
18.12.2017 12:58 1,0 C 3,9 C 80 % 1024,3 hPa 0,0 l/m 2,7 km/h (1 Bft) O 80 0 min 0,000 mm 0,0 UV-I 156 W/m -2,1 C 1,0 C 4,8 km/h (1 Bft) 97,56 %
18.12.2017 13:00 1,1 C 3,9 C 80 % 1024,2 hPa 0,0 l/m 0,3 km/h (0 Bft) O 80 0 min 0,051 mm 0,0 UV-I 162 W/m -2,0 C 1,1 C 1,6 km/h (1 Bft) 100,00 %
18.12.2017 13:02 1,1 C 3,9 C 79 % 1024,2 hPa 0,0 l/m 0,4 km/h (0 Bft) O 80 2 min 0,000 mm 0,0 UV-I 172 W/m -2,1 C 1,1 C 1,6 km/h (1 Bft) 95,12 %
18.12.2017 13:04 1,2 C 3,9 C 80 % 1024,2 hPa 0,0 l/m 0,7 km/h (0 Bft) O 80 2 min 0,000 mm 0,0 UV-I 177 W/m -1,9 C 1,2 C 3,2 km/h (1 Bft) 100,00 %
18.12.2017 13:06 1,1 C 3,9 C 82 % 1024,3 hPa 0,0 l/m 4,9 km/h (1 Bft) NO 49 2 min 0,000 mm 0,0 UV-I 178 W/m -1,6 C 1,1 C 6,4 km/h (2 Bft) 100,00 %
18.12.2017 13:08 1,1 C 3,9 C 82 % 1024,2 hPa 0,0 l/m 2,2 km/h (1 Bft) NO 36 2 min 0,000 mm 0,0 UV-I 170 W/m -1,6 C 1,1 C 4,8 km/h (1 Bft) 100,00 %
18.12.2017 13:10 0,9 C 3,9 C 83 % 1024,2 hPa 0,0 l/m 2,4 km/h (1 Bft) N-NO 24 0 min 0,000 mm 0,0 UV-I 162 W/m -1,7 C 0,9 C 6,4 km/h (2 Bft) 100,00 %
18.12.2017 13:12 0,8 C 3,9 C 83 % 1024,2 hPa 0,0 l/m 1,4 km/h (1 Bft) N-NO 13 0 min 0,000 mm 0,0 UV-I 157 W/m -1,8 C 0,8 C 1,6 km/h (1 Bft) 100,00 %
18.12.2017 13:14 0,8 C 3,9 C 84 % 1024,2 hPa 0,0 l/m 1,1 km/h (1 Bft) N-NO 13 0 min 0,000 mm 0,0 UV-I 153 W/m -1,6 C 0,8 C 3,2 km/h (1 Bft) 100,00 %
18.12.2017 13:16 0,7 C 3,9 C 84 % 1024,3 hPa 0,0 l/m 2,9 km/h (1 Bft) N-NO 31 0 min 0,000 mm 0,0 UV-I 157 W/m -1,7 C 0,7 C 6,4 km/h (2 Bft) 98,21 %
18.12.2017 13:18 0,7 C 3,9 C 84 % 1024,3 hPa 0,0 l/m 3,6 km/h (1 Bft) N-NO 13 0 min 0,000 mm 0,0 UV-I 150 W/m -1,7 C 0,7 C 11,3 km/h (2 Bft) 100,00 %
18.12.2017 13:20 0,7 C 3,9 C 85 % 1024,3 hPa 0,0 l/m 4,2 km/h (1 Bft) N-NO 22 2 min 0,000 mm 0,0 UV-I 173 W/m -1,5 C 0,7 C 8,0 km/h (2 Bft) 100,00 %
18.12.2017 13:22 0,7 C 3,9 C 85 % 1024,3 hPa 0,0 l/m 2,2 km/h (1 Bft) N-NO 22 2 min 0,000 mm 0,0 UV-I 167 W/m -1,5 C 0,7 C 6,4 km/h (2 Bft) 97,87 %
18.12.2017 13:24 0,7 C 3,9 C 84 % 1024,3 hPa 0,0 l/m 0,5 km/h (0 Bft) N-NO 22 2 min 0,000 mm 0,0 UV-I 170 W/m -1,7 C 0,7 C 3,2 km/h (1 Bft) 100,00 %
18.12.2017 13:26 0,7 C 3,9 C 84 % 1024,3 hPa 0,0 l/m 0,4 km/h (0 Bft) N-NO 22 0 min 0,000 mm 0,0 UV-I 150 W/m -1,7 C 0,7 C 1,6 km/h (1 Bft) 100,00 %
18.12.2017 13:28 0,7 C 3,9 C 85 % 1024,3 hPa 0,0 l/m 1,2 km/h (1 Bft) N-NO 22 2 min 0,000 mm 0,0 UV-I 220 W/m -1,5 C 0,7 C 4,8 km/h (1 Bft) 100,00 %
18.12.2017 13:30 0,7 C 3,9 C 85 % 1024,3 hPa 0,0 l/m 4,7 km/h (1 Bft) N-NO 24 2 min 0,000 mm 0,0 UV-I 168 W/m -1,5 C 0,7 C 8,0 km/h (2 Bft) 100,00 %
18.12.2017 13:32 0,7 C 3,9 C 85 % 1024,3 hPa 0,0 l/m 1,6 km/h (1 Bft) N-NO 24 0 min 0,000 mm 0,0 UV-I 137 W/m -1,5 C 0,7 C 3,2 km/h (1 Bft) 100,00 %
18.12.2017 13:34 0,6 C 3,9 C 85 % 1024,3 hPa 0,0 l/m 2,9 km/h (1 Bft) N-NO 24 0 min 0,000 mm 0,0 UV-I 110 W/m -1,6 C 0,6 C 8,0 km/h (2 Bft) 98,00 %
18.12.2017 13:36 0,5 C 3,9 C 86 % 1024,3 hPa 0,0 l/m 5,8 km/h (2 Bft) N-NO 22 0 min 0,000 mm 0,0 UV-I 103 W/m -1,6 C 0,5 C 9,7 km/h (2 Bft) 100,00 %
18.12.2017 13:38 0,4 C 3,9 C 85 % 1024,3 hPa 0,0 l/m 5,4 km/h (1 Bft) N-NO 15 0 min 0,000 mm 0,0 UV-I 94 W/m -1,8 C 0,4 C 8,0 km/h (2 Bft) 100,00 %
18.12.2017 13:40 0,3 C 3,9 C 85 % 1024,3 hPa 0,0 l/m 4,6 km/h (1 Bft) N-NO 20 0 min 0,000 mm 0,0 UV-I 89 W/m -1,9 C 0,3 C 8,0 km/h (2 Bft) 98,11 %
18.12.2017 13:42 0,3 C 3,9 C 85 % 1024,3 hPa 0,0 l/m 2,9 km/h (1 Bft) N-NO 20 0 min 0,000 mm 0,0 UV-I 84 W/m -1,9 C 0,3 C 6,4 km/h (2 Bft) 100,00 %
18.12.2017 13:44 0,3 C 3,9 C 86 % 1024,3 hPa 0,0 l/m 2,8 km/h (1 Bft) N-NO 18 0 min 0,000 mm 0,0 UV-I 80 W/m -1,8 C 0,3 C 4,8 km/h (1 Bft) 98,00 %
18.12.2017 13:46 0,2 C 3,9 C 86 % 1024,3 hPa 0,0 l/m 3,0 km/h (1 Bft) N-NO 17 0 min 0,000 mm 0,0 UV-I 79 W/m -1,9 C 0,2 C 6,4 km/h (2 Bft) 98,00 %
18.12.2017 13:48 0,2 C 3,9 C 86 % 1024,3 hPa 0,0 l/m 5,7 km/h (1 Bft) N-NO 19 0 min 0,000 mm 0,0 UV-I 79 W/m -1,9 C 0,2 C 9,7 km/h (2 Bft) 100,00 %
18.12.2017 13:50 0,2 C 3,9 C 86 % 1024,2 hPa 0,0 l/m 3,1 km/h (1 Bft) N-NO 17 0 min 0,000 mm 0,0 UV-I 81 W/m -1,9 C 0,2 C 6,4 km/h (2 Bft) 98,00 %
18.12.2017 13:52 0,1 C 3,9 C 87 % 1024,2 hPa 0,0 l/m 5,8 km/h (2 Bft) N-NO 31 0 min 0,000 mm 0,0 UV-I 85 W/m -1,8 C 0,1 C 8,0 km/h (2 Bft) 97,56 %
18.12.2017 13:54 0,1 C 3,9 C 86 % 1024,3 hPa 0,0 l/m 5,2 km/h (1 Bft) N-NO 28 0 min 0,000 mm 0,0 UV-I 90 W/m -2,0 C 0,1 C 9,7 km/h (2 Bft) 96,23 %
18.12.2017 13:56 0,1 C 3,9 C 86 % 1024,3 hPa 0,0 l/m 5,4 km/h (1 Bft) N-NO 28 0 min 0,000 mm 0,0 UV-I 96 W/m -2,0 C 0,1 C 8,0 km/h (2 Bft) 97,87 %
18.12.2017 13:58 0,1 C 3,9 C 86 % 1024,3 hPa 0,0 l/m 4,8 km/h (1 Bft) N-NO 28 0 min 0,000 mm 0,0 UV-I 101 W/m -2,0 C 0,1 C 6,4 km/h (2 Bft) 98,00 %
18.12.2017 14:00 0,1 C 3,9 C 86 % 1024,3 hPa 0,0 l/m 4,7 km/h (1 Bft) N-NO 27 0 min 0,050 mm 0,0 UV-I 102 W/m -2,0 C 0,1 C 8,0 km/h (2 Bft) 96,00 %
18.12.2017 14:02 0,1 C 3,9 C 86 % 1024,5 hPa 0,0 l/m 3,3 km/h (1 Bft) N-NO 26 0 min 0,000 mm 0,0 UV-I 116 W/m -2,0 C 0,1 C 6,4 km/h (2 Bft) 97,87 %
18.12.2017 14:04 0,1 C 3,9 C 86 % 1024,4 hPa 0,0 l/m 0,4 km/h (0 Bft) N-NO 26 0 min 0,000 mm 0,0 UV-I 121 W/m -2,0 C 0,1 C 1,6 km/h (1 Bft) 97,87 %
18.12.2017 14:06 0,1 C 3,9 C 86 % 1024,4 hPa 0,0 l/m 1,4 km/h (1 Bft) N-NO 26 0 min 0,000 mm 0,0 UV-I 102 W/m -2,0 C 0,1 C 4,8 km/h (1 Bft) 93,18 %
18.12.2017 14:07 0,1 C 3,9 C 86 % 1024,4 hPa 0,0 l/m 1,6 km/h (1 Bft) N-NO 22 0 min 0,000 mm 0,0 UV-I 120 W/m -2,0 C 0,1 C 3,2 km/h (1 Bft) 95,65 %
18.12.2017 14:08 0,1 C 3,9 C 86 % 1024,4 hPa 0,0 l/m 3,2 km/h (1 Bft) N-NO 22 0 min 0,000 mm 0,0 UV-I 111 W/m -2,0 C 0,1 C 8,0 km/h (2 Bft) 100,00 %
18.12.2017 14:09 0,1 C 3,9 C 86 % 1024,4 hPa 0,0 l/m 4,8 km/h (1 Bft) N-NO 22 1 min 0,000 mm 0,0 UV-I 206 W/m -2,0 C 0,1 C 8,0 km/h (2 Bft) 100,00 %
18.12.2017 14:12 0,2 C 3,9 C 86 % 1024,5 hPa 0,0 l/m 4,5 km/h (1 Bft) N-NO 26 0 min 0,000 mm 0,0 UV-I 109 W/m -1,9 C 0,2 C 6,4 km/h (2 Bft) 98,44 %
18.12.2017 14:14 0,2 C 3,9 C 86 % 1024,5 hPa 0,0 l/m 5,5 km/h (1 Bft) N-NO 26 0 min 0,000 mm 0,0 UV-I 87 W/m -1,9 C 0,2 C 6,4 km/h (2 Bft) 95,45 %
18.12.2017 14:16 0,2 C 3,9 C 86 % 1024,4 hPa 0,0 l/m 4,2 km/h (1 Bft) N-NO 26 0 min 0,000 mm 0,0 UV-I 87 W/m -1,9 C 0,2 C 8,0 km/h (2 Bft) 97,87 %
18.12.2017 14:17 0,2 C 3,9 C 86 % 1024,5 hPa 0,0 l/m 4,8 km/h (1 Bft) N-NO 22 0 min 0,000 mm 0,0 UV-I 76 W/m -1,9 C 0,2 C 6,4 km/h (2 Bft) 100,00 %
18.12.2017 14:18 0,2 C 3,9 C 86 % 1024,4 hPa 0,0 l/m 4,8 km/h (1 Bft) N-NO 22 0 min 0,000 mm 0,0 UV-I 72 W/m -1,9 C 0,2 C 8,0 km/h (2 Bft) 100,00 %
18.12.2017 14:19 0,2 C 3,9 C 86 % 1024,4 hPa 0,0 l/m 3,2 km/h (1 Bft) N-NO 22 0 min 0,000 mm 0,0 UV-I 68 W/m -1,9 C 0,2 C 6,4 km/h (2 Bft) 100,00 %
18.12.2017 14:20 0,2 C 3,9 C 86 % 1024,5 hPa 0,0 l/m 1,6 km/h (1 Bft) N-NO 22 0 min 0,000 mm 0,0 UV-I 70 W/m -1,9 C 0,2 C 3,2 km/h (1 Bft) 100,00 %
18.12.2017 14:21 0,1 C 3,9 C 86 % 1024,4 hPa 0,0 l/m 0,0 km/h (0 Bft) N-NO 22 0 min 0,000 mm 0,0 UV-I 67 W/m -2,0 C 0,1 C 1,6 km/h (1 Bft) 91,30 %
18.12.2017 14:22 0,1 C 3,9 C 87 % 1024,4 hPa 0,0 l/m 0,0 km/h (0 Bft) N-NO 22 0 min 0,000 mm 0,0 UV-I 67 W/m -1,8 C 0,1 C 1,6 km/h (1 Bft) 95,65 %
18.12.2017 14:23 0,1 C 3,9 C 87 % 1024,4 hPa 0,0 l/m 0,0 km/h (0 Bft) N-NO 22 0 min 0,000 mm 0,0 UV-I 65 W/m -1,8 C 0,1 C 1,6 km/h (1 Bft) 100,00 %
18.12.2017 14:24 0,0 C 3,9 C 87 % 1024,5 hPa 0,0 l/m 0,0 km/h (0 Bft) N-NO 22 0 min 0,000 mm 0,0 UV-I 69 W/m -1,9 C 0,0 C 1,6 km/h (1 Bft) 91,30 %
18.12.2017 14:25 0,0 C 3,9 C 87 % 1024,5 hPa 0,0 l/m 0,0 km/h (0 Bft) N-NO 22 0 min 0,000 mm 0,0 UV-I 61 W/m -1,9 C 0,0 C 1,6 km/h (1 Bft) 100,00 %
18.12.2017 14:26 -0,1 C 3,9 C 87 % 1024,5 hPa 0,0 l/m 0,0 km/h (0 Bft) N-NO 22 0 min 0,000 mm 0,0 UV-I 54 W/m -2,0 C -0,1 C 1,6 km/h (1 Bft) 95,65 %
18.12.2017 14:27 -0,1 C 3,9 C 87 % 1024,5 hPa 0,0 l/m 1,6 km/h (1 Bft) N-NO 22 0 min 0,000 mm 0,0 UV-I 53 W/m -2,0 C -0,1 C 3,2 km/h (1 Bft) 95,65 %
18.12.2017 14:28 -0,1 C 3,9 C 86 % 1024,5 hPa 0,0 l/m 0,0 km/h (0 Bft) N 0 0 min 0,000 mm 0,0 UV-I 53 W/m -2,2 C -0,1 C 0,0 km/h (0 Bft) 95,65 %
18.12.2017 14:29 -0,1 C 3,9 C 86 % 1024,5 hPa 0,0 l/m 0,0 km/h (0 Bft) N-NO 22 0 min 0,000 mm 0,0 UV-I 54 W/m -2,2 C -0,1 C 1,6 km/h (1 Bft) 73,91 %
18.12.2017 14:33 0,1 C 3,9 C 86 % 1024,6 hPa 0,0 l/m 0,0 km/h (0 Bft) N 0 4 min 0,000 mm 0,0 UV-I 169 W/m -2,0 C 0,1 C 0,0 km/h (0 Bft) 43,48 %
18.12.2017 14:34 0,1 C 3,9 C 87 % 1024,6 hPa 0,0 l/m 0,0 km/h (0 Bft) N 0 1 min 0,000 mm 0,0 UV-I 169 W/m -1,8 C 0,1 C 0,0 km/h (0 Bft) 100,00 %
18.12.2017 14:35 0,1 C 3,9 C 87 % 1024,6 hPa 0,0 l/m 1,6 km/h (1 Bft) N-NO 22 1 min 0,000 mm 0,0 UV-I 165 W/m -1,8 C 0,1 C 3,2 km/h (1 Bft) 91,30 %
18.12.2017 14:36 0,1 C 3,9 C 86 % 1024,6 hPa 0,0 l/m 1,6 km/h (1 Bft) N-NO 22 1 min 0,000 mm 0,0 UV-I 163 W/m -2,0 C 0,1 C 3,2 km/h (1 Bft) 95,65 %
18.12.2017 14:37 0,2 C 3,9 C 86 % 1024,6 hPa 0,0 l/m 1,6 km/h (1 Bft) N-NO 22 1 min 0,000 mm 0,0 UV-I 163 W/m -1,9 C 0,2 C 4,8 km/h (1 Bft) 100,00 %
18.12.2017 14:38 0,2 C 3,9 C 86 % 1024,6 hPa 0,0 l/m 3,2 km/h (1 Bft) N-NO 22 1 min 0,000 mm 0,0 UV-I 160 W/m -1,9 C 0,2 C 6,4 km/h (2 Bft) 95,65 %
18.12.2017 14:39 0,2 C 3,9 C 86 % 1024,6 hPa 0,0 l/m 1,6 km/h (1 Bft) N-NO 22 1 min 0,000 mm 0,0 UV-I 158 W/m -1,9 C 0,2 C 3,2 km/h (1 Bft) 100,00 %
18.12.2017 14:40 0,2 C 3,9 C 86 % 1024,6 hPa 0,0 l/m 4,8 km/h (1 Bft) N-NO 22 1 min 0,000 mm 0,0 UV-I 158 W/m -1,9 C 0,2 C 6,4 km/h (2 Bft) 95,65 %
18.12.2017 14:41 0,2 C 3,9 C 86 % 1024,6 hPa 0,0 l/m 3,2 km/h (1 Bft) N-NO 22 1 min 0,000 mm 0,0 UV-I 160 W/m -1,9 C 0,2 C 4,8 km/h (1 Bft) 100,00 %
18.12.2017 14:42 0,3 C 3,9 C 86 % 1024,7 hPa 0,0 l/m 4,8 km/h (1 Bft) N-NO 22 1 min 0,000 mm 0,0 UV-I 114 W/m -1,8 C 0,3 C 6,4 km/h (2 Bft) 91,30 %
18.12.2017 14:43 0,3 C 3,9 C 86 % 1024,7 hPa 0,0 l/m 4,8 km/h (1 Bft) N-NO 22 0 min 0,000 mm 0,0 UV-I 72 W/m -1,8 C 0,3 C 6,4 km/h (2 Bft) 100,00 %
18.12.2017 14:44 0,3 C 3,9 C 86 % 1024,6 hPa 0,0 l/m 3,2 km/h (1 Bft) N-NO 22 1 min 0,000 mm 0,0 UV-I 107 W/m -1,8 C 0,3 C 4,8 km/h (1 Bft) 91,30 %
18.12.2017 14:45 0,3 C 3,9 C 85 % 1024,6 hPa 0,0 l/m 4,8 km/h (1 Bft) N-NO 22 1 min 0,000 mm 0,0 UV-I 111 W/m -1,9 C 0,3 C 6,4 km/h (2 Bft) 95,65 %
18.12.2017 14:46 0,3 C 3,9 C 86 % 1024,6 hPa 0,0 l/m 4,8 km/h (1 Bft) N-NO 22 0 min 0,000 mm 0,0 UV-I 88 W/m -1,8 C 0,3 C 6,4 km/h (2 Bft) 100,00 %
18.12.2017 14:47 0,3 C 3,9 C 86 % 1024,7 hPa 0,0 l/m 6,4 km/h (2 Bft) N-NO 22 1 min 0,000 mm 0,0 UV-I 107 W/m -1,8 C 0,3 C 8,0 km/h (2 Bft) 95,65 %
18.12.2017 14:48 0,3 C 3,9 C 86 % 1024,7 hPa 0,0 l/m 6,4 km/h (2 Bft) N-NO 22 1 min 0,000 mm 0,0 UV-I 119 W/m -1,8 C 0,3 C 8,0 km/h (2 Bft) 100,00 %
18.12.2017 14:49 0,3 C 3,9 C 86 % 1024,7 hPa 0,0 l/m 4,8 km/h (1 Bft) N-NO 22 1 min 0,000 mm 0,0 UV-I 132 W/m -1,8 C 0,3 C 6,4 km/h (2 Bft) 91,30 %
18.12.2017 14:50 0,2 C 3,9 C 86 % 1024,7 hPa 0,0 l/m 6,4 km/h (2 Bft) N-NO 22 1 min 0,000 mm 0,0 UV-I 127 W/m -1,9 C 0,2 C 8,0 km/h (2 Bft) 100,00 %
18.12.2017 14:51 0,2 C 3,9 C 86 % 1024,7 hPa 0,0 l/m 6,4 km/h (2 Bft) N-NO 22 1 min 0,000 mm 0,0 UV-I 93 W/m -1,9 C 0,2 C 8,0 km/h (2 Bft) 91,30 %
18.12.2017 14:52 0,2 C 3,9 C 86 % 1024,7 hPa 0,0 l/m 6,4 km/h (2 Bft) N-NO 22 0 min 0,000 mm 0,0 UV-I 62 W/m -1,9 C 0,2 C 6,4 km/h (2 Bft) 95,65 %
18.12.2017 14:53 0,2 C 3,9 C 86 % 1024,7 hPa 0,0 l/m 6,4 km/h (2 Bft) N-NO 22 0 min 0,000 mm 0,0 UV-I 54 W/m -1,9 C 0,2 C 8,0 km/h (2 Bft) 100,00 %
18.12.2017 14:54 0,2 C 3,9 C 86 % 1024,8 hPa 0,0 l/m 4,8 km/h (1 Bft) N-NO 22 0 min 0,000 mm 0,0 UV-I 57 W/m -1,9 C 0,2 C 6,4 km/h (2 Bft) 95,65 %
18.12.2017 14:55 0,2 C 3,9 C 86 % 1024,8 hPa 0,0 l/m 4,8 km/h (1 Bft) N-NO 22 0 min 0,000 mm 0,0 UV-I 53 W/m -1,9 C 0,2 C 6,4 km/h (2 Bft) 100,00 %
18.12.2017 14:56 0,1 C 3,9 C 86 % 1024,8 hPa 0,0 l/m 4,8 km/h (1 Bft) N-NO 22 0 min 0,000 mm 0,0 UV-I 49 W/m -2,0 C 0,1 C 6,4 km/h (2 Bft) 91,30 %
18.12.2017 14:57 0,1 C 3,9 C 86 % 1024,9 hPa 0,0 l/m 4,8 km/h (1 Bft) N-NO 22 0 min 0,000 mm 0,0 UV-I 49 W/m -2,0 C 0,1 C 6,4 km/h (2 Bft) 100,00 %
18.12.2017 14:58 0,1 C 3,9 C 87 % 1024,9 hPa 0,0 l/m 3,2 km/h (1 Bft) N-NO 22 0 min 0,000 mm 0,0 UV-I 49 W/m -1,8 C 0,1 C 4,8 km/h (1 Bft) 95,65 %
18.12.2017 14:59 0,1 C 3,9 C 87 % 1024,9 hPa 0,0 l/m 1,6 km/h (1 Bft) N-NO 22 0 min 0,000 mm 0,0 UV-I 47 W/m -1,8 C 0,1 C 3,2 km/h (1 Bft) 100,00 %
18.12.2017 15:00 0,1 C 3,9 C 87 % 1024,9 hPa 0,0 l/m 3,2 km/h (1 Bft) N-NO 22 0 min 0,025 mm 0,0 UV-I 47 W/m -1,8 C 0,1 C 4,8 km/h (1 Bft) 95,65 %
18.12.2017 15:01 0,1 C 3,9 C 87 % 1024,9 hPa 0,0 l/m 1,6 km/h (1 Bft) N-NO 22 0 min 0,000 mm 0,0 UV-I 46 W/m -1,8 C 0,1 C 4,8 km/h (1 Bft) 100,00 %
18.12.2017 15:02 0,1 C 3,9 C 87 % 1024,9 hPa 0,0 l/m 0,0 km/h (0 Bft) N-NO 22 0 min 0,000 mm 0,0 UV-I 44 W/m -1,8 C 0,1 C 1,6 km/h (1 Bft) 100,00 %
18.12.2017 15:03 0,0 C 3,9 C 87 % 1025,0 hPa 0,0 l/m 1,6 km/h (1 Bft) N-NO 22 0 min 0,000 mm 0,0 UV-I 44 W/m -1,9 C 0,0 C 3,2 km/h (1 Bft) 91,30 %
18.12.2017 15:04 0,0 C 3,9 C 87 % 1025,0 hPa 0,0 l/m 0,0 km/h (0 Bft) N-NO 22 0 min 0,000 mm 0,0 UV-I 42 W/m -1,9 C 0,0 C 3,2 km/h (1 Bft) 100,00 %
18.12.2017 15:05 -0,1 C 3,9 C 87 % 1025,0 hPa 0,0 l/m 0,0 km/h (0 Bft) N-NO 22 0 min 0,000 mm 0,0 UV-I 42 W/m -2,0 C -0,1 C 3,2 km/h (1 Bft) 95,65 %
18.12.2017 15:06 -0,1 C 3,9 C 87 % 1025,0 hPa 0,0 l/m 1,6 km/h (1 Bft) N-NO 22 0 min 0,000 mm 0,0 UV-I 41 W/m -2,0 C -0,1 C 3,2 km/h (1 Bft) 100,00 %
18.12.2017 15:07 -0,1 C 3,9 C 88 % 1025,1 hPa 0,0 l/m 3,2 km/h (1 Bft) N-NO 22 0 min 0,000 mm 0,0 UV-I 40 W/m -1,8 C -0,1 C 4,8 km/h (1 Bft) 100,00 %
18.12.2017 15:08 -0,1 C 3,9 C 88 % 1025,1 hPa 0,0 l/m 1,6 km/h (1 Bft) N-NO 22 0 min 0,000 mm 0,0 UV-I 39 W/m -1,8 C -0,1 C 6,4 km/h (2 Bft) 100,00 %
18.12.2017 15:09 -0,1 C 3,9 C 88 % 1025,1 hPa 0,0 l/m 3,2 km/h (1 Bft) N-NO 22 0 min 0,000 mm 0,0 UV-I 39 W/m -1,8 C -0,1 C 3,2 km/h (1 Bft) 95,65 %
18.12.2017 15:10 -0,1 C 3,9 C 88 % 1025,1 hPa 0,0 l/m 3,2 km/h (1 Bft) N-NO 22 0 min 0,000 mm 0,0 UV-I 39 W/m -1,8 C -0,1 C 4,8 km/h (1 Bft) 91,30 %
18.12.2017 15:11 -0,1 C 3,9 C 88 % 1025,1 hPa 0,0 l/m 1,6 km/h (1 Bft) N-NO 22 0 min 0,000 mm 0,0 UV-I 37 W/m -1,8 C -0,1 C 3,2 km/h (1 Bft) 95,65 %
18.12.2017 15:12 -0,1 C 3,9 C 88 % 1025,1 hPa 0,0 l/m 3,2 km/h (1 Bft) N-NO 22 0 min 0,000 mm 0,0 UV-I 37 W/m -1,8 C -0,1 C 4,8 km/h (1 Bft) 95,65 %
18.12.2017 15:13 -0,1 C 3,9 C 88 % 1025,1 hPa 0,0 l/m 3,2 km/h (1 Bft) N-NO 22 0 min 0,000 mm 0,0 UV-I 37 W/m -1,8 C -0,1 C 4,8 km/h (1 Bft) 100,00 %
18.12.2017 15:14 -0,1 C 3,9 C 88 % 1025,1 hPa 0,0 l/m 4,8 km/h (1 Bft) N-NO 22 0 min 0,000 mm 0,0 UV-I 37 W/m -1,8 C -0,1 C 4,8 km/h (1 Bft) 95,65 %
18.12.2017 15:15 -0,1 C 3,9 C 88 % 1025,1 hPa 0,0 l/m 3,2 km/h (1 Bft) N-NO 22 0 min 0,000 mm 0,0 UV-I 37 W/m -1,8 C -0,1 C 4,8 km/h (1 Bft) 100,00 %
18.12.2017 15:16 -0,1 C 3,9 C 88 % 1025,1 hPa 0,0 l/m 1,6 km/h (1 Bft) N-NO 22 0 min 0,000 mm 0,0 UV-I 39 W/m -1,8 C -0,1 C 3,2 km/h (1 Bft) 91,30 %
18.12.2017 15:17 -0,1 C 3,9 C 88 % 1025,1 hPa 0,0 l/m 3,2 km/h (1 Bft) N-NO 22 0 min 0,000 mm 0,0 UV-I 39 W/m -1,8 C -0,1 C 3,2 km/h (1 Bft) 95,65 %
18.12.2017 15:18 -0,2 C 3,9 C 88 % 1025,1 hPa 0,0 l/m 3,2 km/h (1 Bft) N-NO 22 0 min 0,000 mm 0,0 UV-I 38 W/m -1,9 C -0,2 C 4,8 km/h (1 Bft) 95,65 %
18.12.2017 15:19 -0,2 C 3,9 C 88 % 1025,1 hPa 0,0 l/m 1,6 km/h (1 Bft) N-NO 22 0 min 0,000 mm 0,0 UV-I 37 W/m -1,9 C -0,2 C 3,2 km/h (1 Bft) 100,00 %
18.12.2017 15:20 -0,2 C 3,9 C 88 % 1025,1 hPa 0,0 l/m 1,6 km/h (1 Bft) N-NO 22 0 min 0,000 mm 0,0 UV-I 37 W/m -1,9 C -0,2 C 3,2 km/h (1 Bft) 95,65 %
18.12.2017 15:21 -0,3 C 3,9 C 88 % 1025,1 hPa 0,0 l/m 1,6 km/h (1 Bft) N-NO 22 0 min 0,000 mm 0,0 UV-I 35 W/m -2,0 C -0,3 C 3,2 km/h (1 Bft) 100,00 %
18.12.2017 15:22 -0,3 C 3,9 C 89 % 1025,1 hPa 0,0 l/m 1,6 km/h (1 Bft) N-NO 22 0 min 0,000 mm 0,0 UV-I 35 W/m -1,9 C -0,3 C 3,2 km/h (1 Bft) 95,65 %
18.12.2017 15:23 -0,4 C 3,9 C 89 % 1025,1 hPa 0,0 l/m 3,2 km/h (1 Bft) N-NO 22 0 min 0,000 mm 0,0 UV-I 33 W/m -2,0 C -0,4 C 3,2 km/h (1 Bft) 100,00 %
18.12.2017 15:24 -0,4 C 3,9 C 89 % 1025,1 hPa 0,0 l/m 1,6 km/h (1 Bft) N-NO 22 0 min 0,000 mm 0,0 UV-I 33 W/m -2,0 C -0,4 C 3,2 km/h (1 Bft) 91,30 %
18.12.2017 15:25 -0,4 C 3,9 C 89 % 1025,1 hPa 0,0 l/m 1,6 km/h (1 Bft) N-NO 22 0 min 0,000 mm 0,0 UV-I 33 W/m -2,0 C -0,4 C 3,2 km/h (1 Bft) 95,65 %
18.12.2017 15:26 -0,4 C 3,9 C 89 % 1025,1 hPa 0,0 l/m 3,2 km/h (1 Bft) N-NO 22 0 min 0,000 mm 0,0 UV-I 33 W/m -2,0 C -0,4 C 3,2 km/h (1 Bft) 95,65 %
18.12.2017 15:27 -0,4 C 3,9 C 89 % 1025,2 hPa 0,0 l/m 1,6 km/h (1 Bft) N-NO 22 0 min 0,000 mm 0,0 UV-I 33 W/m -2,0 C -0,4 C 3,2 km/h (1 Bft) 100,00 %
18.12.2017 15:28 -0,5 C 3,9 C 89 % 1025,1 hPa 0,0 l/m 3,2 km/h (1 Bft) N-NO 22 0 min 0,000 mm 0,0 UV-I 32 W/m -2,1 C -0,5 C 4,8 km/h (1 Bft) 91,30 %
18.12.2017 15:29 -0,5 C 3,9 C 89 % 1025,2 hPa 0,0 l/m 3,2 km/h (1 Bft) N-NO 22 0 min 0,000 mm 0,0 UV-I 32 W/m -2,1 C -0,5 C 4,8 km/h (1 Bft) 100,00 %
18.12.2017 15:30 -0,6 C 3,9 C 89 % 1025,2 hPa 0,0 l/m 3,2 km/h (1 Bft) N-NO 22 0 min 0,000 mm 0,0 UV-I 30 W/m -2,2 C -0,6 C 3,2 km/h (1 Bft) 95,65 %
18.12.2017 15:31 -0,6 C 3,9 C 89 % 1025,2 hPa 0,0 l/m 3,2 km/h (1 Bft) N-NO 22 0 min 0,000 mm 0,0 UV-I 30 W/m -2,2 C -0,6 C 4,8 km/h (1 Bft) 95,65 %
18.12.2017 15:32 -0,6 C 3,9 C 89 % 1025,2 hPa 0,0 l/m 3,2 km/h (1 Bft) N-NO 22 0 min 0,000 mm 0,0 UV-I 30 W/m -2,2 C -0,6 C 3,2 km/h (1 Bft) 91,30 %
18.12.2017 15:33 -0,5 C 3,9 C 90 % 1025,2 hPa 0,0 l/m 3,2 km/h (1 Bft) N-NO 22 0 min 0,000 mm 0,0 UV-I 30 W/m -1,9 C -0,5 C 3,2 km/h (1 Bft) 95,65 %
18.12.2017 15:34 -0,5 C 3,9 C 89 % 1025,1 hPa 0,0 l/m 3,2 km/h (1 Bft) N-NO 22 0 min 0,000 mm 0,0 UV-I 28 W/m -2,1 C -0,5 C 3,2 km/h (1 Bft) 100,00 %
18.12.2017 15:35 -0,5 C 3,9 C 89 % 1025,2 hPa 0,0 l/m 3,2 km/h (1 Bft) N-NO 22 0 min 0,000 mm 0,0 UV-I 28 W/m -2,1 C -0,5 C 3,2 km/h (1 Bft) 100,00 %
18.12.2017 15:36 -0,4 C 3,9 C 89 % 1025,2 hPa 0,0 l/m 3,2 km/h (1 Bft) N-NO 22 0 min 0,000 mm 0,0 UV-I 26 W/m -2,0 C -0,4 C 3,2 km/h (1 Bft) 100,00 %
18.12.2017 15:37 -0,4 C 3,9 C 89 % 1025,2 hPa 0,0 l/m 3,2 km/h (1 Bft) N-NO 22 0 min 0,000 mm 0,0 UV-I 26 W/m -2,0 C -0,4 C 4,8 km/h (1 Bft) 82,61 %
18.12.2017 15:38 -0,3 C 3,9 C 89 % 1025,2 hPa 0,0 l/m 1,6 km/h (1 Bft) N-NO 22 0 min 0,000 mm 0,0 UV-I 25 W/m -1,9 C -0,3 C 3,2 km/h (1 Bft) 95,65 %
18.12.2017 15:39 -0,3 C 3,9 C 89 % 1025,2 hPa 0,0 l/m 3,2 km/h (1 Bft) N-NO 22 0 min 0,000 mm 0,0 UV-I 25 W/m -1,9 C -0,3 C 3,2 km/h (1 Bft) 100,00 %
18.12.2017 15:40 -0,2 C 3,9 C 89 % 1025,2 hPa 0,0 l/m 3,2 km/h (1 Bft) N-NO 22 0 min 0,000 mm 0,0 UV-I 25 W/m -1,8 C -0,2 C 3,2 km/h (1 Bft) 100,00 %
18.12.2017 15:41 -0,2 C 3,9 C 88 % 1025,2 hPa 0,0 l/m 3,2 km/h (1 Bft) N-NO 22 0 min 0,000 mm 0,0 UV-I 23 W/m -1,9 C -0,2 C 3,2 km/h (1 Bft) 100,00 %
18.12.2017 15:42 -0,3 C 3,9 C 88 % 1025,2 hPa 0,0 l/m 1,6 km/h (1 Bft) N-NO 22 0 min 0,000 mm 0,0 UV-I 21 W/m -2,0 C -0,3 C 3,2 km/h (1 Bft) 100,00 %
18.12.2017 15:43 -0,4 C 3,9 C 88 % 1025,2 hPa 0,0 l/m 3,2 km/h (1 Bft) N-NO 22 0 min 0,000 mm 0,0 UV-I 21 W/m -2,1 C -0,4 C 3,2 km/h (1 Bft) 100,00 %
18.12.2017 15:44 -0,4 C 3,9 C 88 % 1025,2 hPa 0,0 l/m 1,6 km/h (1 Bft) N-NO 22 0 min 0,000 mm 0,0 UV-I 19 W/m -2,1 C -0,4 C 3,2 km/h (1 Bft) 95,65 %
18.12.2017 15:45 -0,4 C 3,9 C 89 % 1025,3 hPa 0,0 l/m 1,6 km/h (1 Bft) N-NO 22 0 min 0,000 mm 0,0 UV-I 19 W/m -2,0 C -0,4 C 3,2 km/h (1 Bft) 95,65 %
18.12.2017 15:46 -0,4 C 3,9 C 89 % 1025,2 hPa 0,0 l/m 1,6 km/h (1 Bft) N-NO 22 0 min 0,000 mm 0,0 UV-I 18 W/m -2,0 C -0,4 C 3,2 km/h (1 Bft) 95,65 %
18.12.2017 15:47 -0,4 C 3,9 C 89 % 1025,3 hPa 0,0 l/m 0,0 km/h (0 Bft) N-NO 22 0 min 0,000 mm 0,0 UV-I 18 W/m -2,0 C -0,4 C 1,6 km/h (1 Bft) 100,00 %
18.12.2017 15:48 -0,4 C 3,9 C 89 % 1025,3 hPa 0,0 l/m 1,6 km/h (1 Bft) N-NO 22 0 min 0,000 mm 0,0 UV-I 18 W/m -2,0 C -0,4 C 3,2 km/h (1 Bft) 100,00 %
18.12.2017 15:49 -0,4 C 3,9 C 89 % 1025,3 hPa 0,0 l/m 1,6 km/h (1 Bft) N-NO 22 0 min 0,000 mm 0,0 UV-I 16 W/m -2,0 C -0,4 C 1,6 km/h (1 Bft) 100,00 %
18.12.2017 15:50 -0,4 C 3,9 C 89 % 1025,3 hPa 0,0 l/m 1,6 km/h (1 Bft) N-NO 22 0 min 0,000 mm 0,0 UV-I 16 W/m -2,0 C -0,4 C 1,6 km/h (1 Bft) 100,00 %
18.12.2017 15:51 -0,3 C 3,9 C 89 % 1025,3 hPa 0,0 l/m 0,0 km/h (0 Bft) N-NO 22 0 min 0,000 mm 0,0 UV-I 16 W/m -1,9 C -0,3 C 1,6 km/h (1 Bft) 100,00 %
18.12.2017 15:52 -0,3 C 3,9 C 89 % 1025,3 hPa 0,0 l/m 0,0 km/h (0 Bft) N 0 0 min 0,000 mm 0,0 UV-I 16 W/m -1,9 C -0,3 C 0,0 km/h (0 Bft) 95,65 %
18.12.2017 15:53 -0,3 C 3,9 C 89 % 1025,3 hPa 0,0 l/m 0,0 km/h (0 Bft) N 0 0 min 0,000 mm 0,0 UV-I 14 W/m -1,9 C -0,3 C 0,0 km/h (0 Bft) 100,00 %
18.12.2017 15:54 -0,4 C 3,9 C 89 % 1025,3 hPa 0,0 l/m 0,0 km/h (0 Bft) N 0 0 min 0,000 mm 0,0 UV-I 14 W/m -2,0 C -0,4 C 0,0 km/h (0 Bft) 100,00 %
18.12.2017 15:55 -0,4 C 3,9 C 88 % 1025,3 hPa 0,0 l/m 1,6 km/h (1 Bft) N-NO 22 1 min 0,000 mm 0,0 UV-I 14 W/m -2,1 C -0,4 C 3,2 km/h (1 Bft) 100,00 %
18.12.2017 15:56 -0,5 C 3,9 C 89 % 1025,3 hPa 0,0 l/m 1,6 km/h (1 Bft) N-NO 22 1 min 0,000 mm 0,0 UV-I 12 W/m -2,1 C -0,5 C 3,2 km/h (1 Bft) 100,00 %
18.12.2017 15:57 -0,6 C 3,9 C 89 % 1025,3 hPa 0,0 l/m 3,2 km/h (1 Bft) N-NO 22 1 min 0,000 mm 0,0 UV-I 12 W/m -2,2 C -0,6 C 3,2 km/h (1 Bft) 100,00 %
18.12.2017 15:58 -0,6 C 3,9 C 89 % 1025,3 hPa 0,0 l/m 3,2 km/h (1 Bft) N-NO 22 1 min 0,000 mm 0,0 UV-I 12 W/m -2,2 C -0,6 C 3,2 km/h (1 Bft) 100,00 %
18.12.2017 15:59 -0,7 C 3,9 C 89 % 1025,3 hPa 0,0 l/m 3,2 km/h (1 Bft) N-NO 22 0 min 0,000 mm 0,0 UV-I 12 W/m -2,3 C -0,7 C 3,2 km/h (1 Bft) 95,65 %
18.12.2017 16:00 -0,7 C 3,9 C 89 % 1025,3 hPa 0,0 l/m 3,2 km/h (1 Bft) N-NO 22 0 min 0,000 mm 0,0 UV-I 11 W/m -2,3 C -0,7 C 3,2 km/h (1 Bft) 95,65 %
18.12.2017 16:01 -0,7 C 3,9 C 89 % 1025,3 hPa 0,0 l/m 3,2 km/h (1 Bft) N-NO 22 0 min 0,000 mm 0,0 UV-I 11 W/m -2,3 C -0,7 C 3,2 km/h (1 Bft) 100,00 %
18.12.2017 16:02 -0,7 C 3,9 C 89 % 1025,3 hPa 0,0 l/m 3,2 km/h (1 Bft) N-NO 22 0 min 0,000 mm 0,0 UV-I 11 W/m -2,3 C -0,7 C 3,2 km/h (1 Bft) 100,00 %
18.12.2017 16:03 -0,7 C 3,9 C 89 % 1025,4 hPa 0,0 l/m 1,6 km/h (1 Bft) N-NO 22 0 min 0,000 mm 0,0 UV-I 11 W/m -2,3 C -0,7 C 3,2 km/h (1 Bft) 100,00 %
18.12.2017 16:04 -0,7 C 3,9 C 89 % 1025,3 hPa 0,0 l/m 1,6 km/h (1 Bft) N-NO 22 0 min 0,000 mm 0,0 UV-I 11 W/m -2,3 C -0,7 C 3,2 km/h (1 Bft) 100,00 %
18.12.2017 16:05 -0,7 C 3,9 C 90 % 1025,3 hPa 0,0 l/m 0,0 km/h (0 Bft) N-NO 22 0 min 0,000 mm 0,0 UV-I 9 W/m -2,1 C -0,7 C 1,6 km/h (1 Bft) 100,00 %
18.12.2017 16:06 -0,7 C 3,9 C 90 % 1025,3 hPa 0,0 l/m 0,0 km/h (0 Bft) N-NO 22 0 min 0,000 mm 0,0 UV-I 9 W/m -2,1 C -0,7 C 1,6 km/h (1 Bft) 91,30 %
18.12.2017 16:07 -0,6 C 3,9 C 90 % 1025,4 hPa 0,0 l/m 0,0 km/h (0 Bft) N 0 0 min 0,000 mm 0,0 UV-I 9 W/m -2,0 C -0,6 C 0,0 km/h (0 Bft) 95,65 %
18.12.2017 16:08 -0,6 C 3,9 C 89 % 1025,4 hPa 0,0 l/m 0,0 km/h (0 Bft) N 0 0 min 0,000 mm 0,0 UV-I 9 W/m -2,2 C -0,6 C 0,0 km/h (0 Bft) 100,00 %
18.12.2017 16:09 -0,6 C 3,9 C 89 % 1025,4 hPa 0,0 l/m 0,0 km/h (0 Bft) N 0 0 min 0,000 mm 0,0 UV-I 9 W/m -2,2 C -0,6 C 0,0 km/h (0 Bft) 100,00 %
18.12.2017 16:10 -0,6 C 3,9 C 89 % 1025,4 hPa 0,0 l/m 0,0 km/h (0 Bft) N 0 0 min 0,000 mm 0,0 UV-I 9 W/m -2,2 C -0,6 C 0,0 km/h (0 Bft) 100,00 %
18.12.2017 16:11 -0,6 C 3,9 C 89 % 1025,3 hPa 0,0 l/m 0,0 km/h (0 Bft) N 0 0 min 0,000 mm 0,0 UV-I 7 W/m -2,2 C -0,6 C 0,0 km/h (0 Bft) 100,00 %
18.12.2017 16:12 -0,8 C 3,9 C 89 % 1025,4 hPa 0,0 l/m 0,0 km/h (0 Bft) N 0 0 min 0,000 mm 0,0 UV-I 7 W/m -2,4 C -0,8 C 0,0 km/h (0 Bft) 100,00 %
18.12.2017 16:13 -0,8 C 3,9 C 89 % 1025,4 hPa 0,0 l/m 0,0 km/h (0 Bft) N 0 0 min 0,000 mm 0,0 UV-I 7 W/m -2,4 C -0,8 C 0,0 km/h (0 Bft) 95,65 %
18.12.2017 16:14 -0,8 C 3,9 C 90 % 1025,4 hPa 0,0 l/m 0,0 km/h (0 Bft) N 0 0 min 0,000 mm 0,0 UV-I 7 W/m -2,2 C -0,8 C 0,0 km/h (0 Bft) 100,00 %
18.12.2017 16:15 -0,8 C 3,9 C 90 % 1025,4 hPa 0,0 l/m 0,0 km/h (0 Bft) N-NO 22 0 min 0,000 mm 0,0 UV-I 7 W/m -2,2 C -0,8 C 1,6 km/h (1 Bft) 95,65 %
18.12.2017 16:16 -0,9 C 3,9 C 90 % 1025,4 hPa 0,0 l/m 1,6 km/h (1 Bft) N-NO 22 0 min 0,000 mm 0,0 UV-I 7 W/m -2,3 C -0,9 C 1,6 km/h (1 Bft) 100,00 %
18.12.2017 16:17 -0,9 C 3,9 C 90 % 1025,5 hPa 0,0 l/m 1,6 km/h (1 Bft) N-NO 22 0 min 0,000 mm 0,0 UV-I 7 W/m -2,3 C -0,9 C 3,2 km/h (1 Bft) 100,00 %
18.12.2017 16:18 -0,9 C 3,9 C 90 % 1025,4 hPa 0,0 l/m 1,6 km/h (1 Bft) N-NO 22 0 min 0,000 mm 0,0 UV-I 5 W/m -2,3 C -0,9 C 3,2 km/h (1 Bft) 100,00 %
18.12.2017 16:19 -1,0 C 3,9 C 90 % 1025,4 hPa 0,0 l/m 3,2 km/h (1 Bft) N-NO 22 0 min 0,000 mm 0,0 UV-I 5 W/m -2,4 C -1,0 C 3,2 km/h (1 Bft) 100,00 %
18.12.2017 16:20 -1,0 C 3,9 C 91 % 1025,5 hPa 0,0 l/m 3,2 km/h (1 Bft) N-NO 22 0 min 0,000 mm 0,0 UV-I 5 W/m -2,3 C -1,0 C 3,2 km/h (1 Bft) 95,65 %
18.12.2017 16:21 -0,9 C 3,9 C 91 % 1025,4 hPa 0,0 l/m 3,2 km/h (1 Bft) N-NO 22 0 min 0,000 mm 0,0 UV-I 5 W/m -2,2 C -0,9 C 3,2 km/h (1 Bft) 95,65 %
18.12.2017 16:22 -0,8 C 3,9 C 91 % 1025,4 hPa 0,0 l/m 3,2 km/h (1 Bft) N-NO 22 0 min 0,000 mm 0,0 UV-I 5 W/m -2,1 C -0,8 C 3,2 km/h (1 Bft) 100,00 %
18.12.2017 16:23 -0,8 C 3,9 C 91 % 1025,4 hPa 0,0 l/m 1,6 km/h (1 Bft) N-NO 22 0 min 0,000 mm 0,0 UV-I 5 W/m -2,1 C -0,8 C 3,2 km/h (1 Bft) 100,00 %
18.12.2017 16:24 -0,8 C 3,9 C 91 % 1025,4 hPa 0,0 l/m 1,6 km/h (1 Bft) N-NO 22 0 min 0,000 mm 0,0 UV-I 5 W/m -2,1 C -0,8 C 3,2 km/h (1 Bft) 100,00 %
18.12.2017 16:25 -0,7 C 3,9 C 90 % 1025,4 hPa 0,0 l/m 1,6 km/h (1 Bft) N-NO 22 0 min 0,000 mm 0,0 UV-I 5 W/m -2,1 C -0,7 C 3,2 km/h (1 Bft) 100,00 %
18.12.2017 16:26 -0,7 C 3,9 C 90 % 1025,4 hPa 0,0 l/m 1,6 km/h (1 Bft) N-NO 22 0 min 0,000 mm 0,0 UV-I 5 W/m -2,1 C -0,7 C 1,6 km/h (1 Bft) 100,00 %
18.12.2017 16:27 -0,7 C 3,9 C 90 % 1025,4 hPa 0,0 l/m 1,6 km/h (1 Bft) N-NO 22 0 min 0,000 mm 0,0 UV-I 5 W/m -2,1 C -0,7 C 1,6 km/h (1 Bft) 95,65 %
18.12.2017 16:28 -0,7 C 3,9 C 89 % 1025,4 hPa 0,0 l/m 0,0 km/h (0 Bft) N-NO 22 0 min 0,000 mm 0,0 UV-I 3 W/m -2,3 C -0,7 C 1,6 km/h (1 Bft) 95,65 %
18.12.2017 16:29 -0,8 C 3,9 C 89 % 1025,4 hPa 0,0 l/m 0,0 km/h (0 Bft) N-NO 22 0 min 0,000 mm 0,0 UV-I 0 W/m -2,4 C -0,8 C 1,6 km/h (1 Bft) 95,65 %
18.12.2017 16:30 -1,0 C 3,9 C 89 % 1025,4 hPa 0,0 l/m 0,0 km/h (0 Bft) N 0 0 min 0,000 mm 0,0 UV-I 0 W/m -2,6 C -1,0 C 0,0 km/h (0 Bft) 100,00 %
18.12.2017 16:31 -1,1 C 3,9 C 90 % 1025,4 hPa 0,0 l/m 0,0 km/h (0 Bft) N 0 0 min 0,000 mm 0,0 UV-I 0 W/m -2,5 C -1,1 C 0,0 km/h (0 Bft) 100,00 %
18.12.2017 16:32 -1,2 C 3,9 C 91 % 1025,4 hPa 0,0 l/m 1,6 km/h (1 Bft) N-NO 22 0 min 0,000 mm 0,0 UV-I 0 W/m -2,5 C -1,2 C 3,2 km/h (1 Bft) 100,00 %
18.12.2017 16:33 -1,3 C 3,9 C 91 % 1025,4 hPa 0,0 l/m 3,2 km/h (1 Bft) N-NO 22 0 min 0,000 mm 0,0 UV-I 0 W/m -2,6 C -1,3 C 3,2 km/h (1 Bft) 95,65 %
18.12.2017 16:34 -1,4 C 3,9 C 91 % 1025,5 hPa 0,0 l/m 3,2 km/h (1 Bft) N-NO 22 0 min 0,000 mm 0,0 UV-I 0 W/m -2,7 C -1,4 C 4,8 km/h (1 Bft) 91,30 %
18.12.2017 16:35 -1,5 C 3,9 C 91 % 1025,5 hPa 0,0 l/m 4,8 km/h (1 Bft) N-NO 22 0 min 0,000 mm 0,0 UV-I 0 W/m -2,8 C -1,5 C 4,8 km/h (1 Bft) 95,65 %
18.12.2017 16:36 -1,6 C 3,9 C 91 % 1025,5 hPa 0,0 l/m 4,8 km/h (1 Bft) N-NO 22 0 min 0,000 mm 0,0 UV-I 0 W/m -2,9 C -1,6 C 4,8 km/h (1 Bft) 95,65 %
18.12.2017 16:37 -1,4 C 3,9 C 92 % 1025,5 hPa 0,0 l/m 3,2 km/h (1 Bft) N-NO 22 0 min 0,000 mm 0,0 UV-I 0 W/m -2,5 C -1,4 C 4,8 km/h (1 Bft) 95,65 %
18.12.2017 16:38 -1,3 C 3,9 C 93 % 1025,5 hPa 0,0 l/m 3,2 km/h (1 Bft) N-NO 22 0 min 0,000 mm 0,0 UV-I 0 W/m -2,3 C -1,3 C 4,8 km/h (1 Bft) 100,00 %
18.12.2017 16:39 -1,2 C 3,9 C 92 % 1025,5 hPa 0,0 l/m 3,2 km/h (1 Bft) N-NO 22 0 min 0,000 mm 0,0 UV-I 0 W/m -2,3 C -1,2 C 4,8 km/h (1 Bft) 95,65 %
18.12.2017 16:40 -1,0 C 3,9 C 92 % 1025,6 hPa 0,0 l/m 3,2 km/h (1 Bft) N-NO 22 0 min 0,000 mm 0,0 UV-I 0 W/m -2,1 C -1,0 C 4,8 km/h (1 Bft) 100,00 %
18.12.2017 16:41 -0,9 C 3,9 C 92 % 1025,5 hPa 0,0 l/m 1,6 km/h (1 Bft) N-NO 22 0 min 0,000 mm 0,0 UV-I 0 W/m -2,0 C -0,9 C 3,2 km/h (1 Bft) 86,96 %
18.12.2017 16:42 -0,8 C 3,9 C 91 % 1025,5 hPa 0,0 l/m 3,2 km/h (1 Bft) N-NO 22 0 min 0,000 mm 0,0 UV-I 0 W/m -2,1 C -0,8 C 4,8 km/h (1 Bft) 95,65 %
18.12.2017 16:43 -0,8 C 3,9 C 91 % 1025,6 hPa 0,0 l/m 1,6 km/h (1 Bft) N-NO 22 0 min 0,000 mm 0,0 UV-I 0 W/m -2,1 C -0,8 C 3,2 km/h (1 Bft) 95,65 %
18.12.2017 16:44 -0,8 C 3,9 C 90 % 1025,6 hPa 0,0 l/m 1,6 km/h (1 Bft) N-NO 22 0 min 0,000 mm 0,0 UV-I 0 W/m -2,2 C -0,8 C 3,2 km/h (1 Bft) 95,65 %
18.12.2017 16:45 -0,8 C 3,9 C 90 % 1025,6 hPa 0,0 l/m 1,6 km/h (1 Bft) N-NO 22 0 min 0,000 mm 0,0 UV-I 0 W/m -2,2 C -0,8 C 1,6 km/h (1 Bft) 91,30 %
18.12.2017 16:46 -0,8 C 3,9 C 90 % 1025,7 hPa 0,0 l/m 1,6 km/h (1 Bft) N-NO 22 0 min 0,000 mm 0,0 UV-I 0 W/m -2,2 C -0,8 C 3,2 km/h (1 Bft) 100,00 %
18.12.2017 16:47 -0,7 C 3,9 C 90 % 1025,7 hPa 0,0 l/m 1,6 km/h (1 Bft) N-NO 22 0 min 0,000 mm 0,0 UV-I 0 W/m -2,1 C -0,7 C 3,2 km/h (1 Bft) 91,30 %
18.12.2017 16:48 -0,8 C 3,9 C 90 % 1025,7 hPa 0,0 l/m 1,6 km/h (1 Bft) N-NO 22 0 min 0,000 mm 0,0 UV-I 0 W/m -2,2 C -0,8 C 3,2 km/h (1 Bft) 91,30 %
18.12.2017 16:49 -0,8 C 3,9 C 90 % 1025,7 hPa 0,0 l/m 3,2 km/h (1 Bft) N-NO 22 0 min 0,000 mm 0,0 UV-I 0 W/m -2,2 C -0,8 C 3,2 km/h (1 Bft) 95,65 %
18.12.2017 16:50 -0,8 C 3,9 C 90 % 1025,7 hPa 0,0 l/m 3,2 km/h (1 Bft) N-NO 22 0 min 0,000 mm 0,0 UV-I 0 W/m -2,2 C -0,8 C 4,8 km/h (1 Bft) 91,30 %
18.12.2017 16:51 -0,8 C 3,9 C 90 % 1025,7 hPa 0,0 l/m 3,2 km/h (1 Bft) N-NO 22 0 min 0,000 mm 0,0 UV-I 0 W/m -2,2 C -0,8 C 4,8 km/h (1 Bft) 95,65 %
18.12.2017 16:52 -0,8 C 3,9 C 90 % 1025,7 hPa 0,0 l/m 3,2 km/h (1 Bft) N-NO 22 0 min 0,000 mm 0,0 UV-I 0 W/m -2,2 C -0,8 C 4,8 km/h (1 Bft) 95,65 %
18.12.2017 16:53 -0,8 C 3,9 C 90 % 1025,7 hPa 0,0 l/m 4,8 km/h (1 Bft) N-NO 22 0 min 0,000 mm 0,0 UV-I 0 W/m -2,2 C -0,8 C 4,8 km/h (1 Bft) 95,65 %
18.12.2017 16:54 -0,9 C 3,9 C 90 % 1025,7 hPa 0,0 l/m 3,2 km/h (1 Bft) N-NO 22 0 min 0,000 mm 0,0 UV-I 0 W/m -2,3 C -0,9 C 4,8 km/h (1 Bft) 91,30 %
18.12.2017 16:55 -0,9 C 3,9 C 90 % 1025,7 hPa 0,0 l/m 3,2 km/h (1 Bft) N-NO 22 0 min 0,000 mm 0,0 UV-I 0 W/m -2,3 C -0,9 C 4,8 km/h (1 Bft) 95,65 %
18.12.2017 16:56 -0,9 C 3,9 C 90 % 1025,7 hPa 0,0 l/m 4,8 km/h (1 Bft) N-NO 22 0 min 0,000 mm 0,0 UV-I 0 W/m -2,3 C -0,9 C 4,8 km/h (1 Bft) 91,30 %
18.12.2017 16:57 -0,9 C 3,9 C 90 % 1025,7 hPa 0,0 l/m 4,8 km/h (1 Bft) N-NO 22 0 min 0,000 mm 0,0 UV-I 0 W/m -2,3 C -0,9 C 4,8 km/h (1 Bft) 100,00 %
18.12.2017 16:58 -1,0 C 3,9 C 90 % 1025,7 hPa 0,0 l/m 3,2 km/h (1 Bft) N-NO 22 0 min 0,000 mm 0,0 UV-I 0 W/m -2,4 C -1,0 C 4,8 km/h (1 Bft) 91,30 %
18.12.2017 16:59 -1,0 C 3,9 C 90 % 1025,7 hPa 0,0 l/m 3,2 km/h (1 Bft) N-NO 22 0 min 0,000 mm 0,0 UV-I 0 W/m -2,4 C -1,0 C 4,8 km/h (1 Bft) 100,00 %
18.12.2017 17:00 -1,0 C 3,9 C 91 % 1025,7 hPa 0,0 l/m 3,2 km/h (1 Bft) N-NO 22 0 min 0,000 mm 0,0 UV-I 0 W/m -2,3 C -1,0 C 4,8 km/h (1 Bft) 95,65 %
18.12.2017 17:01 -1,0 C 3,9 C 91 % 1025,7 hPa 0,0 l/m 3,2 km/h (1 Bft) N-NO 22 0 min 0,000 mm 0,0 UV-I 0 W/m -2,3 C -1,0 C 4,8 km/h (1 Bft) 100,00 %
18.12.2017 17:02 -1,0 C 3,9 C 90 % 1025,7 hPa 0,0 l/m 3,2 km/h (1 Bft) N-NO 22 0 min 0,000 mm 0,0 UV-I 0 W/m -2,4 C -1,0 C 4,8 km/h (1 Bft) 86,96 %
18.12.2017 17:03 -1,1 C 3,9 C 90 % 1025,7 hPa 0,0 l/m 1,6 km/h (1 Bft) N-NO 22 0 min 0,000 mm 0,0 UV-I 0 W/m -2,5 C -1,1 C 3,2 km/h (1 Bft) 86,96 %
18.12.2017 17:04 -1,2 C 3,9 C 90 % 1025,7 hPa 0,0 l/m 0,0 km/h (0 Bft) N-NO 22 0 min 0,000 mm 0,0 UV-I 0 W/m -2,6 C -1,2 C 1,6 km/h (1 Bft) 100,00 %
18.12.2017 17:05 -1,3 C 3,9 C 90 % 1025,7 hPa 0,0 l/m 0,0 km/h (0 Bft) N 0 0 min 0,000 mm 0,0 UV-I 0 W/m -2,7 C -1,3 C 0,0 km/h (0 Bft) 95,65 %
18.12.2017 17:06 -1,4 C 3,9 C 90 % 1025,8 hPa 0,0 l/m 0,0 km/h (0 Bft) N 0 0 min 0,000 mm 0,0 UV-I 0 W/m -2,8 C -1,4 C 0,0 km/h (0 Bft) 100,00 %
18.12.2017 17:07 -1,6 C 3,9 C 90 % 1025,7 hPa 0,0 l/m 1,6 km/h (1 Bft) N-NO 22 0 min 0,000 mm 0,0 UV-I 0 W/m -3,0 C -1,6 C 3,2 km/h (1 Bft) 95,65 %
18.12.2017 17:08 -1,7 C 3,9 C 91 % 1025,7 hPa 0,0 l/m 1,6 km/h (1 Bft) N-NO 22 0 min 0,000 mm 0,0 UV-I 0 W/m -3,0 C -1,7 C 3,2 km/h (1 Bft) 95,65 %
18.12.2017 17:09 -1,8 C 3,9 C 91 % 1025,7 hPa 0,0 l/m 1,6 km/h (1 Bft) N-NO 22 0 min 0,000 mm 0,0 UV-I 0 W/m -3,1 C -1,8 C 3,2 km/h (1 Bft) 91,30 %
18.12.2017 17:10 -1,8 C 3,9 C 91 % 1025,7 hPa 0,0 l/m 1,6 km/h (1 Bft) N-NO 22 0 min 0,000 mm 0,0 UV-I 0 W/m -3,1 C -1,8 C 3,2 km/h (1 Bft) 95,65 %
18.12.2017 17:11 -1,9 C 3,9 C 92 % 1025,7 hPa 0,0 l/m 1,6 km/h (1 Bft) N-NO 22 0 min 0,000 mm 0,0 UV-I 0 W/m -3,0 C -1,9 C 3,2 km/h (1 Bft) 95,65 %
18.12.2017 17:12 -1,9 C 3,9 C 92 % 1025,7 hPa 0,0 l/m 1,6 km/h (1 Bft) N-NO 22 0 min 0,000 mm 0,0 UV-I 0 W/m -3,0 C -1,9 C 3,2 km/h (1 Bft) 95,65 %
18.12.2017 17:13 -1,9 C 3,9 C 92 % 1025,7 hPa 0,0 l/m 1,6 km/h (1 Bft) N-NO 22 0 min 0,000 mm 0,0 UV-I 0 W/m -3,0 C -1,9 C 3,2 km/h (1 Bft) 100,00 %
18.12.2017 17:14 -2,0 C 3,9 C 92 % 1025,7 hPa 0,0 l/m 1,6 km/h (1 Bft) N-NO 22 0 min 0,000 mm 0,0 UV-I 0 W/m -3,1 C -2,0 C 1,6 km/h (1 Bft) 91,30 %
18.12.2017 17:15 -2,1 C 3,9 C 93 % 1025,7 hPa 0,0 l/m 1,6 km/h (1 Bft) N-NO 22 0 min 0,000 mm 0,0 UV-I 0 W/m -3,1 C -2,1 C 3,2 km/h (1 Bft) 100,00 %
18.12.2017 17:16 -2,1 C 3,9 C 93 % 1025,7 hPa 0,0 l/m 1,6 km/h (1 Bft) N-NO 22 0 min 0,000 mm 0,0 UV-I 0 W/m -3,1 C -2,1 C 1,6 km/h (1 Bft) 86,96 %
18.12.2017 17:17 -2,1 C 3,9 C 93 % 1025,8 hPa 0,0 l/m 0,0 km/h (0 Bft) N-NO 22 0 min 0,000 mm 0,0 UV-I 0 W/m -3,1 C -2,1 C 1,6 km/h (1 Bft) 100,00 %
18.12.2017 17:18 -2,2 C 3,9 C 93 % 1025,8 hPa 0,0 l/m 0,0 km/h (0 Bft) N-NO 22 0 min 0,000 mm 0,0 UV-I 0 W/m -3,2 C -2,2 C 1,6 km/h (1 Bft) 95,65 %
18.12.2017 17:19 -2,2 C 3,9 C 93 % 1025,8 hPa 0,0 l/m 0,0 km/h (0 Bft) N 0 0 min 0,000 mm 0,0 UV-I 0 W/m -3,2 C -2,2 C 0,0 km/h (0 Bft) 91,30 %
18.12.2017 17:20 -2,2 C 3,9 C 93 % 1025,8 hPa 0,0 l/m 0,0 km/h (0 Bft) N 0 0 min 0,000 mm 0,0 UV-I 0 W/m -3,2 C -2,2 C 0,0 km/h (0 Bft) 91,30 %
18.12.2017 17:21 -2,2 C 3,9 C 93 % 1025,8 hPa 0,0 l/m 0,0 km/h (0 Bft) N 0 0 min 0,000 mm 0,0 UV-I 0 W/m -3,2 C -2,2 C 0,0 km/h (0 Bft) 95,65 %
18.12.2017 17:22 -2,2 C 3,9 C 93 % 1025,8 hPa 0,0 l/m 0,0 km/h (0 Bft) N 0 0 min 0,000 mm 0,0 UV-I 0 W/m -3,2 C -2,2 C 0,0 km/h (0 Bft) 100,00 %
18.12.2017 17:23 -2,2 C 3,9 C 93 % 1025,8 hPa 0,0 l/m 0,0 km/h (0 Bft) N 0 0 min 0,000 mm 0,0 UV-I 0 W/m -3,2 C -2,2 C 0,0 km/h (0 Bft) 95,65 %
18.12.2017 17:24 -2,1 C 3,9 C 94 % 1025,8 hPa 0,0 l/m 0,0 km/h (0 Bft) N 0 0 min 0,000 mm 0,0 UV-I 0 W/m -2,9 C -2,1 C 0,0 km/h (0 Bft) 100,00 %
18.12.2017 17:25 -2,1 C 3,9 C 94 % 1025,8 hPa 0,0 l/m 0,0 km/h (0 Bft) N 0 0 min 0,000 mm 0,0 UV-I 0 W/m -2,9 C -2,1 C 0,0 km/h (0 Bft) 100,00 %
18.12.2017 17:26 -2,1 C 3,9 C 94 % 1025,8 hPa 0,0 l/m 0,0 km/h (0 Bft) N 0 0 min 0,000 mm 0,0 UV-I 0 W/m -2,9 C -2,1 C 0,0 km/h (0 Bft) 100,00 %
18.12.2017 17:27 -2,1 C 3,9 C 94 % 1025,8 hPa 0,0 l/m 0,0 km/h (0 Bft) N-NO 22 0 min 0,000 mm 0,0 UV-I 0 W/m -2,9 C -2,1 C 1,6 km/h (1 Bft) 100,00 %
18.12.2017 17:28 -2,1 C 3,9 C 94 % 1025,8 hPa 0,0 l/m 1,6 km/h (1 Bft) N-NO 22 0 min 0,000 mm 0,0 UV-I 0 W/m -2,9 C -2,1 C 1,6 km/h (1 Bft) 100,00 %
18.12.2017 17:29 -2,1 C 3,9 C 94 % 1025,9 hPa 0,0 l/m 1,6 km/h (1 Bft) N-NO 22 0 min 0,000 mm 0,0 UV-I 0 W/m -2,9 C -2,1 C 1,6 km/h (1 Bft) 100,00 %
18.12.2017 17:30 -2,1 C 3,9 C 94 % 1025,9 hPa 0,0 l/m 1,6 km/h (1 Bft) N-NO 22 0 min 0,000 mm 0,0 UV-I 0 W/m -2,9 C -2,1 C 3,2 km/h (1 Bft) 95,65 %
18.12.2017 17:31 -2,1 C 3,9 C 94 % 1025,9 hPa 0,0 l/m 1,6 km/h (1 Bft) N-NO 22 0 min 0,000 mm 0,0 UV-I 0 W/m -2,9 C -2,1 C 3,2 km/h (1 Bft) 95,65 %
18.12.2017 17:32 -2,1 C 3,9 C 94 % 1026,0 hPa 0,0 l/m 1,6 km/h (1 Bft) N-NO 22 0 min 0,000 mm 0,0 UV-I 0 W/m -2,9 C -2,1 C 1,6 km/h (1 Bft) 100,00 %
18.12.2017 17:33 -2,2 C 3,9 C 94 % 1026,0 hPa 0,0 l/m 0,0 km/h (0 Bft) N-NO 22 0 min 0,000 mm 0,0 UV-I 0 W/m -3,0 C -2,2 C 1,6 km/h (1 Bft) 100,00 %
18.12.2017 17:34 -2,2 C 3,9 C 93 % 1026,0 hPa 0,0 l/m 0,0 km/h (0 Bft) N-NO 22 0 min 0,000 mm 0,0 UV-I 0 W/m -3,2 C -2,2 C 1,6 km/h (1 Bft) 100,00 %
18.12.2017 17:35 -2,3 C 3,9 C 93 % 1026,0 hPa 0,0 l/m 0,0 km/h (0 Bft) N-NO 22 0 min 0,000 mm 0,0 UV-I 0 W/m -3,3 C -2,3 C 1,6 km/h (1 Bft) 100,00 %
18.12.2017 17:36 -2,3 C 3,9 C 93 % 1026,0 hPa 0,0 l/m 0,0 km/h (0 Bft) N 0 0 min 0,000 mm 0,0 UV-I 0 W/m -3,3 C -2,3 C 0,0 km/h (0 Bft) 100,00 %
18.12.2017 17:37 -2,4 C 3,9 C 94 % 1026,1 hPa 0,0 l/m 1,6 km/h (1 Bft) N-NO 22 0 min 0,000 mm 0,0 UV-I 0 W/m -3,2 C -2,4 C 1,6 km/h (1 Bft) 95,65 %
18.12.2017 17:38 -2,4 C 3,9 C 94 % 1026,1 hPa 0,0 l/m 0,0 km/h (0 Bft) N-NO 22 0 min 0,000 mm 0,0 UV-I 0 W/m -3,2 C -2,4 C 1,6 km/h (1 Bft) 100,00 %
18.12.2017 17:39 -2,4 C 3,9 C 94 % 1026,1 hPa 0,0 l/m 1,6 km/h (1 Bft) N-NO 22 0 min 0,000 mm 0,0 UV-I 0 W/m -3,2 C -2,4 C 1,6 km/h (1 Bft) 95,65 %
18.12.2017 17:40 -2,4 C 3,9 C 94 % 1026,1 hPa 0,0 l/m 1,6 km/h (1 Bft) N-NO 22 0 min 0,000 mm 0,0 UV-I 0 W/m -3,2 C -2,4 C 1,6 km/h (1 Bft) 100,00 %
18.12.2017 17:41 -2,5 C 3,9 C 94 % 1026,1 hPa 0,0 l/m 1,6 km/h (1 Bft) N-NO 22 0 min 0,000 mm 0,0 UV-I 0 W/m -3,3 C -2,5 C 3,2 km/h (1 Bft) 95,65 %
18.12.2017 17:42 -2,5 C 3,9 C 94 % 1026,1 hPa 0,0 l/m 3,2 km/h (1 Bft) N-NO 22 0 min 0,000 mm 0,0 UV-I 0 W/m -3,3 C -2,5 C 3,2 km/h (1 Bft) 100,00 %
18.12.2017 17:43 -2,5 C 3,9 C 94 % 1026,1 hPa 0,0 l/m 3,2 km/h (1 Bft) N-NO 22 0 min 0,000 mm 0,0 UV-I 0 W/m -3,3 C -2,5 C 3,2 km/h (1 Bft) 100,00 %
18.12.2017 17:44 -2,5 C 3,9 C 94 % 1026,1 hPa 0,0 l/m 1,6 km/h (1 Bft) N-NO 22 0 min 0,000 mm 0,0 UV-I 0 W/m -3,3 C -2,5 C 3,2 km/h (1 Bft) 95,65 %
18.12.2017 17:45 -2,4 C 3,9 C 94 % 1026,1 hPa 0,0 l/m 1,6 km/h (1 Bft) N-NO 22 0 min 0,000 mm 0,0 UV-I 0 W/m -3,2 C -2,4 C 3,2 km/h (1 Bft) 100,00 %
18.12.2017 17:46 -2,4 C 3,9 C 94 % 1026,1 hPa 0,0 l/m 1,6 km/h (1 Bft) N-NO 22 0 min 0,000 mm 0,0 UV-I 0 W/m -3,2 C -2,4 C 3,2 km/h (1 Bft) 100,00 %
18.12.2017 17:47 -2,4 C 3,9 C 94 % 1026,1 hPa 0,0 l/m 1,6 km/h (1 Bft) N-NO 22 0 min 0,000 mm 0,0 UV-I 0 W/m -3,2 C -2,4 C 3,2 km/h (1 Bft) 91,30 %
18.12.2017 17:48 -2,4 C 3,9 C 94 % 1026,2 hPa 0,0 l/m 1,6 km/h (1 Bft) N-NO 22 0 min 0,000 mm 0,0 UV-I 0 W/m -3,2 C -2,4 C 3,2 km/h (1 Bft) 100,00 %
18.12.2017 17:49 -2,3 C 3,9 C 94 % 1026,2 hPa 0,0 l/m 1,6 km/h (1 Bft) N-NO 22 0 min 0,000 mm 0,0 UV-I 0 W/m -3,1 C -2,3 C 3,2 km/h (1 Bft) 100,00 %
18.12.2017 17:50 -2,3 C 3,9 C 94 % 1026,1 hPa 0,0 l/m 1,6 km/h (1 Bft) N-NO 22 0 min 0,000 mm 0,0 UV-I 0 W/m -3,1 C -2,3 C 3,2 km/h (1 Bft) 100,00 %
18.12.2017 17:51 -2,3 C 3,9 C 94 % 1026,2 hPa 0,0 l/m 1,6 km/h (1 Bft) N-NO 22 0 min 0,000 mm 0,0 UV-I 0 W/m -3,1 C -2,3 C 1,6 km/h (1 Bft) 95,65 %
18.12.2017 17:52 -2,3 C 3,9 C 94 % 1026,2 hPa 0,0 l/m 0,0 km/h (0 Bft) N-NO 22 0 min 0,000 mm 0,0 UV-I 0 W/m -3,1 C -2,3 C 1,6 km/h (1 Bft) 95,65 %
18.12.2017 17:53 -2,3 C 3,9 C 94 % 1026,1 hPa 0,0 l/m 0,0 km/h (0 Bft) N 0 0 min 0,000 mm 0,0 UV-I 0 W/m -3,1 C -2,3 C 0,0 km/h (0 Bft) 95,65 %
18.12.2017 17:54 -2,3 C 3,9 C 94 % 1026,1 hPa 0,0 l/m 0,0 km/h (0 Bft) N 0 0 min 0,000 mm 0,0 UV-I 0 W/m -3,1 C -2,3 C 0,0 km/h (0 Bft) 95,65 %
18.12.2017 17:55 -2,4 C 3,9 C 94 % 1026,2 hPa 0,0 l/m 0,0 km/h (0 Bft) N 0 0 min 0,000 mm 0,0 UV-I 0 W/m -3,2 C -2,4 C 0,0 km/h (0 Bft) 100,00 %
18.12.2017 17:56 -2,4 C 3,9 C 94 % 1026,1 hPa 0,0 l/m 0,0 km/h (0 Bft) N 0 0 min 0,000 mm 0,0 UV-I 0 W/m -3,2 C -2,4 C 0,0 km/h (0 Bft) 95,65 %
18.12.2017 17:57 -2,4 C 3,9 C 94 % 1026,1 hPa 0,0 l/m 0,0 km/h (0 Bft) N 0 0 min 0,000 mm 0,0 UV-I 0 W/m -3,2 C -2,4 C 0,0 km/h (0 Bft) 100,00 %
18.12.2017 17:58 -2,4 C 3,9 C 94 % 1026,2 hPa 0,0 l/m 0,0 km/h (0 Bft) N 0 0 min 0,000 mm 0,0 UV-I 0 W/m -3,2 C -2,4 C 0,0 km/h (0 Bft) 91,30 %
18.12.2017 17:59 -2,4 C 3,9 C 94 % 1026,1 hPa 0,0 l/m 0,0 km/h (0 Bft) N 0 0 min 0,000 mm 0,0 UV-I 0 W/m -3,2 C -2,4 C 0,0 km/h (0 Bft) 95,65 %
18.12.2017 18:00 -2,4 C 3,9 C 94 % 1026,2 hPa 0,0 l/m 0,0 km/h (0 Bft) N 0 0 min 0,000 mm 0,0 UV-I 0 W/m -3,2 C -2,4 C 0,0 km/h (0 Bft) 95,65 %
18.12.2017 18:01 -2,4 C 3,9 C 94 % 1026,2 hPa 0,0 l/m 0,0 km/h (0 Bft) N 0 0 min 0,000 mm 0,0 UV-I 0 W/m -3,2 C -2,4 C 0,0 km/h (0 Bft) 100,00 %
18.12.2017 18:02 -2,5 C 3,9 C 94 % 1026,2 hPa 0,0 l/m 0,0 km/h (0 Bft) N 0 0 min 0,000 mm 0,0 UV-I 0 W/m -3,3 C -2,5 C 0,0 km/h (0 Bft) 95,65 %
18.12.2017 18:03 -2,5 C 3,9 C 94 % 1026,2 hPa 0,0 l/m 0,0 km/h (0 Bft) N-NO 22 0 min 0,000 mm 0,0 UV-I 0 W/m -3,3 C -2,5 C 1,6 km/h (1 Bft) 100,00 %
18.12.2017 18:04 -2,6 C 3,9 C 94 % 1026,2 hPa 0,0 l/m 1,6 km/h (1 Bft) N-NO 22 0 min 0,000 mm 0,0 UV-I 0 W/m -3,4 C -2,6 C 1,6 km/h (1 Bft) 95,65 %
18.12.2017 18:05 -2,6 C 3,9 C 94 % 1026,2 hPa 0,0 l/m 1,6 km/h (1 Bft) N-NO 22 0 min 0,000 mm 0,0 UV-I 0 W/m -3,4 C -2,6 C 1,6 km/h (1 Bft) 95,65 %
18.12.2017 18:06 -2,7 C 3,9 C 94 % 1026,2 hPa 0,0 l/m 1,6 km/h (1 Bft) N-NO 22 0 min 0,000 mm 0,0 UV-I 0 W/m -3,5 C -2,7 C 3,2 km/h (1 Bft) 95,65 %
18.12.2017 18:07 -2,7 C 3,9 C 94 % 1026,3 hPa 0,0 l/m 1,6 km/h (1 Bft) N-NO 22 0 min 0,000 mm 0,0 UV-I 0 W/m -3,5 C -2,7 C 3,2 km/h (1 Bft) 100,00 %
18.12.2017 18:08 -2,7 C 3,9 C 94 % 1026,3 hPa 0,0 l/m 1,6 km/h (1 Bft) N-NO 22 0 min 0,000 mm 0,0 UV-I 0 W/m -3,5 C -2,7 C 3,2 km/h (1 Bft) 95,65 %
18.12.2017 18:09 -2,7 C 3,9 C 94 % 1026,3 hPa 0,0 l/m 1,6 km/h (1 Bft) N-NO 22 0 min 0,000 mm 0,0 UV-I 0 W/m -3,5 C -2,7 C 3,2 km/h (1 Bft) 95,65 %
18.12.2017 18:10 -2,7 C 3,9 C 94 % 1026,3 hPa 0,0 l/m 1,6 km/h (1 Bft) N-NO 22 0 min 0,000 mm 0,0 UV-I 0 W/m -3,5 C -2,7 C 3,2 km/h (1 Bft) 95,65 %
18.12.2017 18:11 -2,7 C 3,9 C 94 % 1026,3 hPa 0,0 l/m 3,2 km/h (1 Bft) N-NO 22 0 min 0,000 mm 0,0 UV-I 0 W/m -3,5 C -2,7 C 3,2 km/h (1 Bft) 91,30 %
18.12.2017 18:12 -2,8 C 3,9 C 94 % 1026,3 hPa 0,0 l/m 3,2 km/h (1 Bft) N-NO 22 0 min 0,000 mm 0,0 UV-I 0 W/m -3,6 C -2,8 C 3,2 km/h (1 Bft) 95,65 %
18.12.2017 18:13 -2,7 C 3,9 C 94 % 1026,3 hPa 0,0 l/m 3,2 km/h (1 Bft) N-NO 22 0 min 0,000 mm 0,0 UV-I 0 W/m -3,5 C -2,7 C 4,8 km/h (1 Bft) 95,65 %
18.12.2017 18:14 -2,7 C 3,9 C 95 % 1026,4 hPa 0,0 l/m 3,2 km/h (1 Bft) N-NO 22 0 min 0,000 mm 0,0 UV-I 0 W/m -3,4 C -2,7 C 4,8 km/h (1 Bft) 100,00 %
18.12.2017 18:15 -2,6 C 3,9 C 95 % 1026,4 hPa 0,0 l/m 3,2 km/h (1 Bft) N-NO 22 0 min 0,000 mm 0,0 UV-I 0 W/m -3,3 C -2,6 C 4,8 km/h (1 Bft) 95,65 %
18.12.2017 18:16 -2,6 C 3,9 C 95 % 1026,3 hPa 0,0 l/m 3,2 km/h (1 Bft) N-NO 22 0 min 0,000 mm 0,0 UV-I 0 W/m -3,3 C -2,6 C 3,2 km/h (1 Bft) 100,00 %
18.12.2017 18:17 -2,4 C 3,9 C 95 % 1026,3 hPa 0,0 l/m 1,6 km/h (1 Bft) N-NO 22 0 min 0,000 mm 0,0 UV-I 0 W/m -3,1 C -2,4 C 3,2 km/h (1 Bft) 95,65 %
18.12.2017 18:18 -2,4 C 3,9 C 95 % 1026,3 hPa 0,0 l/m 1,6 km/h (1 Bft) N-NO 22 0 min 0,000 mm 0,0 UV-I 0 W/m -3,1 C -2,4 C 3,2 km/h (1 Bft) 100,00 %
18.12.2017 18:19 -2,3 C 3,9 C 95 % 1026,4 hPa 0,0 l/m 1,6 km/h (1 Bft) N-NO 22 0 min 0,000 mm 0,0 UV-I 0 W/m -3,0 C -2,3 C 3,2 km/h (1 Bft) 95,65 %
18.12.2017 18:20 -2,3 C 3,9 C 95 % 1026,4 hPa 0,0 l/m 1,6 km/h (1 Bft) N-NO 22 0 min 0,000 mm 0,0 UV-I 0 W/m -3,0 C -2,3 C 3,2 km/h (1 Bft) 100,00 %
18.12.2017 18:21 -2,3 C 3,9 C 95 % 1026,4 hPa 0,0 l/m 3,2 km/h (1 Bft) N-NO 22 0 min 0,000 mm 0,0 UV-I 0 W/m -3,0 C -2,3 C 3,2 km/h (1 Bft) 100,00 %
18.12.2017 18:22 -2,3 C 3,9 C 95 % 1026,4 hPa 0,0 l/m 1,6 km/h (1 Bft) N-NO 22 0 min 0,000 mm 0,0 UV-I 0 W/m -3,0 C -2,3 C 3,2 km/h (1 Bft) 100,00 %
18.12.2017 18:23 -2,4 C 3,9 C 94 % 1026,4 hPa 0,0 l/m 3,2 km/h (1 Bft) N-NO 22 0 min 0,000 mm 0,0 UV-I 0 W/m -3,2 C -2,4 C 3,2 km/h (1 Bft) 100,00 %
18.12.2017 18:24 -2,5 C 3,9 C 94 % 1026,5 hPa 0,0 l/m 3,2 km/h (1 Bft) N-NO 22 0 min 0,000 mm 0,0 UV-I 0 W/m -3,3 C -2,5 C 4,8 km/h (1 Bft) 95,65 %
18.12.2017 18:25 -2,5 C 3,9 C 94 % 1026,4 hPa 0,0 l/m 3,2 km/h (1 Bft) N-NO 22 0 min 0,000 mm 0,0 UV-I 0 W/m -3,3 C -2,5 C 4,8 km/h (1 Bft) 100,00 %
18.12.2017 18:26 -2,6 C 3,9 C 94 % 1026,5 hPa 0,0 l/m 4,8 km/h (1 Bft) O-NO 67 0 min 0,000 mm 0,0 UV-I 0 W/m -3,4 C -2,6 C 6,4 km/h (2 Bft) 95,65 %
18.12.2017 18:27 -2,4 C 3,9 C 94 % 1026,5 hPa 0,0 l/m 4,8 km/h (1 Bft) O-NO 67 0 min 0,000 mm 0,0 UV-I 0 W/m -3,2 C -2,4 C 4,8 km/h (1 Bft) 100,00 %
18.12.2017 18:28 -2,3 C 3,9 C 95 % 1026,5 hPa 0,0 l/m 3,2 km/h (1 Bft) O-NO 67 0 min 0,000 mm 0,0 UV-I 0 W/m -3,0 C -2,3 C 4,8 km/h (1 Bft) 100,00 %
18.12.2017 18:29 -2,2 C 3,9 C 95 % 1026,5 hPa 0,0 l/m 4,8 km/h (1 Bft) O-NO 67 0 min 0,000 mm 0,0 UV-I 0 W/m -2,9 C -2,2 C 6,4 km/h (2 Bft) 100,00 %
18.12.2017 18:30 -2,1 C 3,9 C 95 % 1026,5 hPa 0,0 l/m 4,8 km/h (1 Bft) O-NO 67 0 min 0,000 mm 0,0 UV-I 0 W/m -2,8 C -2,1 C 4,8 km/h (1 Bft) 100,00 %
18.12.2017 18:31 -1,9 C 3,9 C 95 % 1026,5 hPa 0,0 l/m 4,8 km/h (1 Bft) O-NO 67 0 min 0,000 mm 0,0 UV-I 0 W/m -2,6 C -1,9 C 4,8 km/h (1 Bft) 95,65 %
18.12.2017 18:32 -1,9 C 3,9 C 95 % 1026,5 hPa 0,0 l/m 4,8 km/h (1 Bft) O-NO 67 0 min 0,000 mm 0,0 UV-I 0 W/m -2,6 C -1,9 C 6,4 km/h (2 Bft) 100,00 %
18.12.2017 18:33 -1,8 C 3,9 C 95 % 1026,5 hPa 0,0 l/m 4,8 km/h (1 Bft) O-NO 67 0 min 0,000 mm 0,0 UV-I 0 W/m -2,5 C -1,8 C 4,8 km/h (1 Bft) 95,65 %
18.12.2017 18:34 -1,7 C 3,9 C 95 % 1026,5 hPa 0,0 l/m 3,2 km/h (1 Bft) O-NO 67 0 min 0,000 mm 0,0 UV-I 0 W/m -2,4 C -1,7 C 6,4 km/h (2 Bft) 95,65 %
18.12.2017 18:35 -1,7 C 3,9 C 95 % 1026,6 hPa 0,0 l/m 4,8 km/h (1 Bft) O-NO 67 0 min 0,000 mm 0,0 UV-I 0 W/m -2,4 C -1,7 C 6,4 km/h (2 Bft) 100,00 %
18.12.2017 18:36 -1,6 C 3,9 C 95 % 1026,6 hPa 0,0 l/m 3,2 km/h (1 Bft) O-NO 67 0 min 0,000 mm 0,0 UV-I 0 W/m -2,3 C -1,6 C 4,8 km/h (1 Bft) 100,00 %
18.12.2017 18:37 -1,6 C 3,9 C 95 % 1026,6 hPa 0,0 l/m 3,2 km/h (1 Bft) O-NO 67 0 min 0,000 mm 0,0 UV-I 0 W/m -2,3 C -1,6 C 4,8 km/h (1 Bft) 100,00 %
18.12.2017 18:38 -1,6 C 3,9 C 94 % 1026,6 hPa 0,0 l/m 4,8 km/h (1 Bft) O-NO 67 0 min 0,000 mm 0,0 UV-I 0 W/m -2,4 C -1,6 C 6,4 km/h (2 Bft) 95,65 %
18.12.2017 18:39 -1,6 C 3,9 C 94 % 1026,6 hPa 0,0 l/m 3,2 km/h (1 Bft) O-NO 67 0 min 0,000 mm 0,0 UV-I 0 W/m -2,4 C -1,6 C 4,8 km/h (1 Bft) 100,00 %
18.12.2017 18:40 -1,6 C 3,9 C 94 % 1026,6 hPa 0,0 l/m 4,8 km/h (1 Bft) O-NO 67 0 min 0,000 mm 0,0 UV-I 0 W/m -2,4 C -1,6 C 6,4 km/h (2 Bft) 95,65 %
18.12.2017 18:41 -1,6 C 3,9 C 94 % 1026,6 hPa 0,0 l/m 4,8 km/h (1 Bft) O-NO 67 0 min 0,000 mm 0,0 UV-I 0 W/m -2,4 C -1,6 C 6,4 km/h (2 Bft) 100,00 %
18.12.2017 18:42 -1,6 C 3,9 C 94 % 1026,6 hPa 0,0 l/m 3,2 km/h (1 Bft) O-NO 67 0 min 0,000 mm 0,0 UV-I 0 W/m -2,4 C -1,6 C 4,8 km/h (1 Bft) 100,00 %
18.12.2017 18:43 -1,6 C 3,9 C 94 % 1026,6 hPa 0,0 l/m 4,8 km/h (1 Bft) O-NO 67 0 min 0,000 mm 0,0 UV-I 0 W/m -2,4 C -1,6 C 6,4 km/h (2 Bft) 100,00 %
18.12.2017 18:44 -1,6 C 3,9 C 94 % 1026,6 hPa 0,0 l/m 4,8 km/h (1 Bft) O-NO 67 0 min 0,000 mm 0,0 UV-I 0 W/m -2,4 C -1,6 C 6,4 km/h (2 Bft) 100,00 %
18.12.2017 18:45 -1,6 C 3,9 C 94 % 1026,6 hPa 0,0 l/m 4,8 km/h (1 Bft) O-NO 67 0 min 0,000 mm 0,0 UV-I 0 W/m -2,4 C -1,6 C 6,4 km/h (2 Bft) 100,00 %
18.12.2017 18:46 -1,6 C 3,9 C 94 % 1026,6 hPa 0,0 l/m 4,8 km/h (1 Bft) O-NO 67 0 min 0,000 mm 0,0 UV-I 0 W/m -2,4 C -1,6 C 6,4 km/h (2 Bft) 100,00 %
18.12.2017 18:47 -1,6 C 3,9 C 94 % 1026,7 hPa 0,0 l/m 3,2 km/h (1 Bft) O-NO 67 0 min 0,000 mm 0,0 UV-I 0 W/m -2,4 C -1,6 C 4,8 km/h (1 Bft) 95,65 %
18.12.2017 18:48 -1,6 C 3,9 C 94 % 1026,7 hPa 0,0 l/m 3,2 km/h (1 Bft) O-NO 67 0 min 0,000 mm 0,0 UV-I 0 W/m -2,4 C -1,6 C 4,8 km/h (1 Bft) 100,00 %
18.12.2017 18:49 -1,6 C 3,9 C 94 % 1026,7 hPa 0,0 l/m 4,8 km/h (1 Bft) O-NO 67 0 min 0,000 mm 0,0 UV-I 0 W/m -2,4 C -1,6 C 4,8 km/h (1 Bft) 100,00 %
18.12.2017 18:50 -1,6 C 3,9 C 94 % 1026,8 hPa 0,0 l/m 3,2 km/h (1 Bft) O-NO 67 0 min 0,000 mm 0,0 UV-I 0 W/m -2,4 C -1,6 C 4,8 km/h (1 Bft) 100,00 %
18.12.2017 18:51 -1,6 C 3,9 C 94 % 1026,8 hPa 0,0 l/m 3,2 km/h (1 Bft) O-NO 67 0 min 0,000 mm 0,0 UV-I 0 W/m -2,4 C -1,6 C 4,8 km/h (1 Bft) 95,65 %
18.12.2017 18:52 -1,7 C 3,9 C 93 % 1026,9 hPa 0,0 l/m 1,6 km/h (1 Bft) O-NO 67 0 min 0,000 mm 0,0 UV-I 0 W/m -2,7 C -1,7 C 3,2 km/h (1 Bft) 95,65 %
18.12.2017 18:53 -2,0 C 3,9 C 92 % 1026,9 hPa 0,0 l/m 1,6 km/h (1 Bft) O-NO 67 0 min 0,000 mm 0,0 UV-I 0 W/m -3,1 C -2,0 C 3,2 km/h (1 Bft) 100,00 %
18.12.2017 18:54 -2,2 C 3,9 C 92 % 1026,9 hPa 0,0 l/m 0,0 km/h (0 Bft) O-NO 67 0 min 0,000 mm 0,0 UV-I 0 W/m -3,3 C -2,2 C 1,6 km/h (1 Bft) 95,65 %
18.12.2017 18:55 -2,4 C 3,9 C 92 % 1026,9 hPa 0,0 l/m 0,0 km/h (0 Bft) N 0 0 min 0,000 mm 0,0 UV-I 0 W/m -3,5 C -2,4 C 0,0 km/h (0 Bft) 100,00 %
18.12.2017 18:56 -2,6 C 3,9 C 93 % 1026,9 hPa 0,0 l/m 0,0 km/h (0 Bft) N 0 0 min 0,000 mm 0,0 UV-I 0 W/m -3,6 C -2,6 C 0,0 km/h (0 Bft) 100,00 %
18.12.2017 18:57 -2,7 C 3,9 C 93 % 1026,9 hPa 0,0 l/m 0,0 km/h (0 Bft) N 0 0 min 0,000 mm 0,0 UV-I 0 W/m -3,7 C -2,7 C 0,0 km/h (0 Bft) 95,65 %
18.12.2017 18:58 -2,7 C 3,9 C 93 % 1026,9 hPa 0,0 l/m 0,0 km/h (0 Bft) N 0 0 min 0,000 mm 0,0 UV-I 0 W/m -3,7 C -2,7 C 0,0 km/h (0 Bft) 100,00 %
18.12.2017 18:59 -2,8 C 3,9 C 93 % 1026,9 hPa 0,0 l/m 0,0 km/h (0 Bft) N 0 0 min 0,000 mm 0,0 UV-I 0 W/m -3,8 C -2,8 C 0,0 km/h (0 Bft) 100,00 %
18.12.2017 19:00 -2,8 C 3,9 C 94 % 1026,9 hPa 0,0 l/m 0,0 km/h (0 Bft) N 0 0 min 0,000 mm 0,0 UV-I 0 W/m -3,6 C -2,8 C 0,0 km/h (0 Bft) 95,65 %
18.12.2017 19:01 -2,8 C 3,9 C 94 % 1026,9 hPa 0,0 l/m 0,0 km/h (0 Bft) N 0 0 min 0,000 mm 0,0 UV-I 0 W/m -3,6 C -2,8 C 0,0 km/h (0 Bft) 91,30 %
18.12.2017 19:02 -2,8 C 3,9 C 94 % 1026,9 hPa 0,0 l/m 0,0 km/h (0 Bft) N 0 0 min 0,000 mm 0,0 UV-I 0 W/m -3,6 C -2,8 C 0,0 km/h (0 Bft) 95,65 %
18.12.2017 19:03 -2,8 C 3,9 C 94 % 1027,0 hPa 0,0 l/m 1,6 km/h (1 Bft) O-NO 67 0 min 0,000 mm 0,0 UV-I 0 W/m -3,6 C -2,8 C 3,2 km/h (1 Bft) 100,00 %
18.12.2017 19:04 -2,7 C 3,9 C 95 % 1026,9 hPa 0,0 l/m 3,2 km/h (1 Bft) O-NO 67 0 min 0,000 mm 0,0 UV-I 0 W/m -3,4 C -2,7 C 3,2 km/h (1 Bft) 95,65 %
18.12.2017 19:05 -2,6 C 3,9 C 95 % 1027,0 hPa 0,0 l/m 3,2 km/h (1 Bft) O-NO 67 0 min 0,000 mm 0,0 UV-I 0 W/m -3,3 C -2,6 C 3,2 km/h (1 Bft) 95,65 %
18.12.2017 19:06 -2,6 C 3,9 C 95 % 1027,0 hPa 0,0 l/m 3,2 km/h (1 Bft) O-NO 67 0 min 0,000 mm 0,0 UV-I 0 W/m -3,3 C -2,6 C 3,2 km/h (1 Bft) 100,00 %
18.12.2017 19:07 -2,6 C 3,9 C 95 % 1027,0 hPa 0,0 l/m 3,2 km/h (1 Bft) O-NO 67 0 min 0,000 mm 0,0 UV-I 0 W/m -3,3 C -2,6 C 3,2 km/h (1 Bft) 95,65 %
18.12.2017 19:08 -2,5 C 3,9 C 95 % 1027,0 hPa 0,0 l/m 3,2 km/h (1 Bft) O-NO 67 0 min 0,000 mm 0,0 UV-I 0 W/m -3,2 C -2,5 C 3,2 km/h (1 Bft) 95,65 %
18.12.2017 19:09 -2,5 C 3,9 C 95 % 1027,0 hPa 0,0 l/m 3,2 km/h (1 Bft) O-NO 67 0 min 0,000 mm 0,0 UV-I 0 W/m -3,2 C -2,5 C 3,2 km/h (1 Bft) 95,65 %
18.12.2017 19:10 -2,4 C 3,9 C 95 % 1027,0 hPa 0,0 l/m 3,2 km/h (1 Bft) O-NO 67 0 min 0,000 mm 0,0 UV-I 0 W/m -3,1 C -2,4 C 3,2 km/h (1 Bft) 95,65 %
18.12.2017 19:11 -2,4 C 3,9 C 95 % 1027,0 hPa 0,0 l/m 3,2 km/h (1 Bft) O-NO 67 0 min 0,000 mm 0,0 UV-I 0 W/m -3,1 C -2,4 C 3,2 km/h (1 Bft) 95,65 %
18.12.2017 19:12 -2,4 C 3,9 C 95 % 1027,0 hPa 0,0 l/m 3,2 km/h (1 Bft) O-NO 67 0 min 0,000 mm 0,0 UV-I 0 W/m -3,1 C -2,4 C 3,2 km/h (1 Bft) 86,96 %
18.12.2017 19:13 -2,3 C 3,9 C 95 % 1027,1 hPa 0,0 l/m 1,6 km/h (1 Bft) O-NO 67 0 min 0,000 mm 0,0 UV-I 0 W/m -3,0 C -2,3 C 3,2 km/h (1 Bft) 95,65 %
18.12.2017 19:14 -2,3 C 3,9 C 95 % 1027,0 hPa 0,0 l/m 1,6 km/h (1 Bft) O-NO 67 0 min 0,000 mm 0,0 UV-I 0 W/m -3,0 C -2,3 C 3,2 km/h (1 Bft) 95,65 %
18.12.2017 19:15 -2,3 C 3,9 C 95 % 1027,1 hPa 0,0 l/m 1,6 km/h (1 Bft) O-NO 67 0 min 0,000 mm 0,0 UV-I 0 W/m -3,0 C -2,3 C 3,2 km/h (1 Bft) 91,30 %
18.12.2017 19:16 -2,3 C 3,9 C 95 % 1027,1 hPa 0,0 l/m 3,2 km/h (1 Bft) O-NO 67 0 min 0,000 mm 0,0 UV-I 0 W/m -3,0 C -2,3 C 3,2 km/h (1 Bft) 95,65 %
18.12.2017 19:17 -2,3 C 3,9 C 95 % 1027,1 hPa 0,0 l/m 3,2 km/h (1 Bft) O-NO 67 0 min 0,000 mm 0,0 UV-I 0 W/m -3,0 C -2,3 C 3,2 km/h (1 Bft) 86,96 %
18.12.2017 19:18 -2,3 C 3,9 C 95 % 1027,1 hPa 0,0 l/m 3,2 km/h (1 Bft) O-NO 67 0 min 0,000 mm 0,0 UV-I 0 W/m -3,0 C -2,3 C 3,2 km/h (1 Bft) 95,65 %
18.12.2017 19:19 -2,3 C 3,9 C 95 % 1027,1 hPa 0,0 l/m 3,2 km/h (1 Bft) O-NO 67 0 min 0,000 mm 0,0 UV-I 0 W/m -3,0 C -2,3 C 3,2 km/h (1 Bft) 91,30 %
18.12.2017 19:20 -2,2 C 3,9 C 95 % 1027,1 hPa 0,0 l/m 1,6 km/h (1 Bft) O-NO 67 0 min 0,000 mm 0,0 UV-I 0 W/m -2,9 C -2,2 C 3,2 km/h (1 Bft) 95,65 %
18.12.2017 19:21 -2,3 C 3,9 C 95 % 1027,2 hPa 0,0 l/m 3,2 km/h (1 Bft) O-NO 67 0 min 0,000 mm 0,0 UV-I 0 W/m -3,0 C -2,3 C 3,2 km/h (1 Bft) 86,96 %
18.12.2017 19:22 -2,4 C 3,9 C 94 % 1027,1 hPa 0,0 l/m 1,6 km/h (1 Bft) O-NO 67 0 min 0,000 mm 0,0 UV-I 0 W/m -3,2 C -2,4 C 3,2 km/h (1 Bft) 95,65 %
18.12.2017 19:23 -2,7 C 3,9 C 94 % 1027,2 hPa 0,0 l/m 0,0 km/h (0 Bft) N 0 0 min 0,000 mm 0,0 UV-I 0 W/m -3,5 C -2,7 C 0,0 km/h (0 Bft) 91,30 %
18.12.2017 19:24 -2,8 C 3,9 C 94 % 1027,2 hPa 0,0 l/m 0,0 km/h (0 Bft) N 0 0 min 0,000 mm 0,0 UV-I 0 W/m -3,6 C -2,8 C 0,0 km/h (0 Bft) 100,00 %
18.12.2017 19:25 -2,9 C 3,9 C 94 % 1027,2 hPa 0,0 l/m 0,0 km/h (0 Bft) N 0 0 min 0,000 mm 0,0 UV-I 0 W/m -3,7 C -2,9 C 0,0 km/h (0 Bft) 91,30 %
18.12.2017 19:26 -3,1 C 3,9 C 94 % 1027,2 hPa 0,0 l/m 0,0 km/h (0 Bft) N 0 0 min 0,000 mm 0,0 UV-I 0 W/m -3,9 C -3,1 C 0,0 km/h (0 Bft) 100,00 %
18.12.2017 19:27 -3,2 C 3,9 C 94 % 1027,2 hPa 0,0 l/m 0,0 km/h (0 Bft) O-NO 67 0 min 0,000 mm 0,0 UV-I 0 W/m -4,0 C -3,2 C 1,6 km/h (1 Bft) 91,30 %
18.12.2017 19:28 -3,2 C 3,9 C 94 % 1027,2 hPa 0,0 l/m 0,0 km/h (0 Bft) O-NO 67 0 min 0,000 mm 0,0 UV-I 0 W/m -4,0 C -3,2 C 1,6 km/h (1 Bft) 95,65 %
18.12.2017 19:29 -3,2 C 3,9 C 94 % 1027,1 hPa 0,0 l/m 3,2 km/h (1 Bft) O-NO 67 0 min 0,000 mm 0,0 UV-I 0 W/m -4,0 C -3,2 C 3,2 km/h (1 Bft) 91,30 %
18.12.2017 19:30 -3,3 C 3,9 C 94 % 1027,2 hPa 0,0 l/m 3,2 km/h (1 Bft) O-NO 67 0 min 0,000 mm 0,0 UV-I 0 W/m -4,1 C -3,3 C 3,2 km/h (1 Bft) 91,30 %
18.12.2017 19:31 -3,3 C 3,9 C 94 % 1027,2 hPa 0,0 l/m 1,6 km/h (1 Bft) O-NO 67 0 min 0,000 mm 0,0 UV-I 0 W/m -4,1 C -3,3 C 3,2 km/h (1 Bft) 100,00 %
18.12.2017 19:32 -3,3 C 3,9 C 94 % 1027,2 hPa 0,0 l/m 1,6 km/h (1 Bft) O-NO 67 0 min 0,000 mm 0,0 UV-I 0 W/m -4,1 C -3,3 C 3,2 km/h (1 Bft) 95,65 %
18.12.2017 19:33 -3,3 C 3,9 C 95 % 1027,2 hPa 0,0 l/m 3,2 km/h (1 Bft) O-NO 67 0 min 0,000 mm 0,0 UV-I 0 W/m -4,0 C -3,3 C 3,2 km/h (1 Bft) 100,00 %
18.12.2017 19:34 -3,4 C 3,9 C 95 % 1027,2 hPa 0,0 l/m 0,0 km/h (0 Bft) O-NO 67 0 min 0,000 mm 0,0 UV-I 0 W/m -4,1 C -3,4 C 1,6 km/h (1 Bft) 91,30 %
18.12.2017 19:35 -3,4 C 3,9 C 95 % 1027,2 hPa 0,0 l/m 1,6 km/h (1 Bft) O-NO 67 0 min 0,000 mm 0,0 UV-I 0 W/m -4,1 C -3,4 C 3,2 km/h (1 Bft) 100,00 %
18.12.2017 19:36 -3,4 C 3,9 C 95 % 1027,2 hPa 0,0 l/m 0,0 km/h (0 Bft) O-NO 67 0 min 0,000 mm 0,0 UV-I 0 W/m -4,1 C -3,4 C 1,6 km/h (1 Bft) 91,30 %
18.12.2017 19:37 -3,3 C 3,9 C 95 % 1027,2 hPa 0,0 l/m 0,0 km/h (0 Bft) O-NO 67 0 min 0,000 mm 0,0 UV-I 0 W/m -4,0 C -3,3 C 1,6 km/h (1 Bft) 100,00 %
18.12.2017 19:38 -3,3 C 3,9 C 95 % 1027,3 hPa 0,0 l/m 1,6 km/h (1 Bft) O-NO 67 0 min 0,000 mm 0,0 UV-I 0 W/m -4,0 C -3,3 C 3,2 km/h (1 Bft) 95,65 %
18.12.2017 19:39 -3,3 C 3,9 C 95 % 1027,2 hPa 0,0 l/m 1,6 km/h (1 Bft) O-NO 67 0 min 0,000 mm 0,0 UV-I 0 W/m -4,0 C -3,3 C 3,2 km/h (1 Bft) 91,30 %
18.12.2017 19:40 -3,3 C 3,9 C 95 % 1027,2 hPa 0,0 l/m 1,6 km/h (1 Bft) O-NO 67 0 min 0,000 mm 0,0 UV-I 0 W/m -4,0 C -3,3 C 3,2 km/h (1 Bft) 100,00 %
18.12.2017 19:41 -3,3 C 3,9 C 95 % 1027,3 hPa 0,0 l/m 1,6 km/h (1 Bft) O-NO 67 0 min 0,000 mm 0,0 UV-I 0 W/m -4,0 C -3,3 C 3,2 km/h (1 Bft) 95,65 %
18.12.2017 19:42 -3,3 C 3,9 C 95 % 1027,3 hPa 0,0 l/m 0,0 km/h (0 Bft) O-NO 67 0 min 0,000 mm 0,0 UV-I 0 W/m -4,0 C -3,3 C 1,6 km/h (1 Bft) 95,65 %
18.12.2017 19:43 -3,3 C 3,9 C 95 % 1027,3 hPa 0,0 l/m 0,0 km/h (0 Bft) O-NO 67 0 min 0,000 mm 0,0 UV-I 0 W/m -4,0 C -3,3 C 1,6 km/h (1 Bft) 95,65 %
18.12.2017 19:44 -3,4 C 3,9 C 95 % 1027,3 hPa 0,0 l/m 1,6 km/h (1 Bft) O-NO 67 0 min 0,000 mm 0,0 UV-I 0 W/m -4,1 C -3,4 C 3,2 km/h (1 Bft) 100,00 %
18.12.2017 19:45 -3,4 C 3,9 C 95 % 1027,3 hPa 0,0 l/m 0,0 km/h (0 Bft) O-NO 67 0 min 0,000 mm 0,0 UV-I 0 W/m -4,1 C -3,4 C 1,6 km/h (1 Bft) 100,00 %
18.12.2017 19:46 -3,4 C 3,9 C 95 % 1027,4 hPa 0,0 l/m 0,0 km/h (0 Bft) O-NO 67 0 min 0,000 mm 0,0 UV-I 0 W/m -4,1 C -3,4 C 1,6 km/h (1 Bft) 100,00 %
18.12.2017 19:47 -3,4 C 3,9 C 95 % 1027,4 hPa 0,0 l/m 0,0 km/h (0 Bft) O-NO 67 0 min 0,000 mm 0,0 UV-I 0 W/m -4,1 C -3,4 C 1,6 km/h (1 Bft) 100,00 %
18.12.2017 19:48 -3,4 C 3,9 C 95 % 1027,4 hPa 0,0 l/m 0,0 km/h (0 Bft) N 0 0 min 0,000 mm 0,0 UV-I 0 W/m -4,1 C -3,4 C 0,0 km/h (0 Bft) 100,00 %
18.12.2017 19:49 -3,4 C 3,9 C 95 % 1027,4 hPa 0,0 l/m 0,0 km/h (0 Bft) N 0 0 min 0,000 mm 0,0 UV-I 0 W/m -4,1 C -3,4 C 0,0 km/h (0 Bft) 100,00 %
18.12.2017 19:50 -3,3 C 3,9 C 95 % 1027,5 hPa 0,0 l/m 0,0 km/h (0 Bft) N 0 0 min 0,000 mm 0,0 UV-I 0 W/m -4,0 C -3,3 C 0,0 km/h (0 Bft) 95,65 %
18.12.2017 19:51 -3,3 C 3,9 C 95 % 1027,5 hPa 0,0 l/m 0,0 km/h (0 Bft) N 0 0 min 0,000 mm 0,0 UV-I 0 W/m -4,0 C -3,3 C 0,0 km/h (0 Bft) 95,65 %
18.12.2017 19:52 -3,3 C 3,9 C 95 % 1027,5 hPa 0,0 l/m 0,0 km/h (0 Bft) N 0 0 min 0,000 mm 0,0 UV-I 0 W/m -4,0 C -3,3 C 0,0 km/h (0 Bft) 100,00 %
18.12.2017 19:53 -3,3 C 3,9 C 95 % 1027,5 hPa 0,0 l/m 0,0 km/h (0 Bft) N 0 0 min 0,000 mm 0,0 UV-I 0 W/m -4,0 C -3,3 C 0,0 km/h (0 Bft) 100,00 %
18.12.2017 19:54 -3,3 C 3,9 C 95 % 1027,5 hPa 0,0 l/m 0,0 km/h (0 Bft) N 0 0 min 0,000 mm 0,0 UV-I 0 W/m -4,0 C -3,3 C 0,0 km/h (0 Bft) 100,00 %
18.12.2017 19:55 -3,3 C 3,9 C 95 % 1027,5 hPa 0,0 l/m 0,0 km/h (0 Bft) N 0 0 min 0,000 mm 0,0 UV-I 0 W/m -4,0 C -3,3 C 0,0 km/h (0 Bft) 100,00 %
18.12.2017 19:56 -3,3 C 3,9 C 95 % 1027,5 hPa 0,0 l/m 0,0 km/h (0 Bft) N 0 0 min 0,000 mm 0,0 UV-I 0 W/m -4,0 C -3,3 C 0,0 km/h (0 Bft) 100,00 %
18.12.2017 19:57 -3,3 C 3,9 C 95 % 1027,6 hPa 0,0 l/m 0,0 km/h (0 Bft) N 0 0 min 0,000 mm 0,0 UV-I 0 W/m -4,0 C -3,3 C 0,0 km/h (0 Bft) 95,65 %
18.12.2017 19:58 -3,3 C 3,9 C 95 % 1027,6 hPa 0,0 l/m 0,0 km/h (0 Bft) N 0 0 min 0,000 mm 0,0 UV-I 0 W/m -4,0 C -3,3 C 0,0 km/h (0 Bft) 95,65 %
18.12.2017 19:59 -3,2 C 3,9 C 95 % 1027,6 hPa 0,0 l/m 0,0 km/h (0 Bft) N 0 0 min 0,000 mm 0,0 UV-I 0 W/m -3,9 C -3,2 C 0,0 km/h (0 Bft) 95,65 %
18.12.2017 20:00 -3,2 C 3,9 C 95 % 1027,6 hPa 0,0 l/m 0,0 km/h (0 Bft) N 0 0 min 0,000 mm 0,0 UV-I 0 W/m -3,9 C -3,2 C 0,0 km/h (0 Bft) 100,00 %
18.12.2017 20:01 -3,2 C 3,9 C 95 % 1027,6 hPa 0,0 l/m 0,0 km/h (0 Bft) N 0 0 min 0,000 mm 0,0 UV-I 0 W/m -3,9 C -3,2 C 0,0 km/h (0 Bft) 100,00 %
18.12.2017 20:02 -3,2 C 3,9 C 96 % 1027,7 hPa 0,0 l/m 0,0 km/h (0 Bft) N 0 0 min 0,000 mm 0,0 UV-I 0 W/m -3,7 C -3,2 C 0,0 km/h (0 Bft) 100,00 %
18.12.2017 20:03 -3,2 C 3,9 C 95 % 1027,7 hPa 0,0 l/m 0,0 km/h (0 Bft) N 0 0 min 0,000 mm 0,0 UV-I 0 W/m -3,9 C -3,2 C 0,0 km/h (0 Bft) 95,65 %
18.12.2017 20:04 -3,2 C 3,9 C 95 % 1027,7 hPa 0,0 l/m 0,0 km/h (0 Bft) N 0 0 min 0,000 mm 0,0 UV-I 0 W/m -3,9 C -3,2 C 0,0 km/h (0 Bft) 95,65 %
18.12.2017 20:05 -3,2 C 3,9 C 95 % 1027,7 hPa 0,0 l/m 0,0 km/h (0 Bft) N 0 0 min 0,000 mm 0,0 UV-I 0 W/m -3,9 C -3,2 C 0,0 km/h (0 Bft) 95,65 %
18.12.2017 20:06 -3,2 C 3,9 C 96 % 1027,7 hPa 0,0 l/m 0,0 km/h (0 Bft) N 0 0 min 0,000 mm 0,0 UV-I 0 W/m -3,7 C -3,2 C 0,0 km/h (0 Bft) 100,00 %
18.12.2017 20:07 -3,2 C 3,9 C 95 % 1027,7 hPa 0,0 l/m 0,0 km/h (0 Bft) N 0 0 min 0,000 mm 0,0 UV-I 0 W/m -3,9 C -3,2 C 0,0 km/h (0 Bft) 100,00 %
18.12.2017 20:08 -3,3 C 3,9 C 95 % 1027,7 hPa 0,0 l/m 0,0 km/h (0 Bft) N 0 0 min 0,000 mm 0,0 UV-I 0 W/m -4,0 C -3,3 C 0,0 km/h (0 Bft) 100,00 %
18.12.2017 20:09 -3,2 C 3,9 C 96 % 1027,7 hPa 0,0 l/m 0,0 km/h (0 Bft) N 0 0 min 0,000 mm 0,0 UV-I 0 W/m -3,7 C -3,2 C 0,0 km/h (0 Bft) 100,00 %
18.12.2017 20:10 -3,2 C 3,9 C 95 % 1027,7 hPa 0,0 l/m 0,0 km/h (0 Bft) N 0 0 min 0,000 mm 0,0 UV-I 0 W/m -3,9 C -3,2 C 0,0 km/h (0 Bft) 100,00 %
18.12.2017 20:11 -3,2 C 3,9 C 95 % 1027,7 hPa 0,0 l/m 0,0 km/h (0 Bft) N 0 0 min 0,000 mm 0,0 UV-I 0 W/m -3,9 C -3,2 C 0,0 km/h (0 Bft) 100,00 %
18.12.2017 20:12 -3,3 C 3,9 C 95 % 1027,7 hPa 0,0 l/m 0,0 km/h (0 Bft) N 0 0 min 0,000 mm 0,0 UV-I 0 W/m -4,0 C -3,3 C 0,0 km/h (0 Bft) 95,65 %
18.12.2017 20:13 -3,4 C 3,9 C 95 % 1027,8 hPa 0,0 l/m 0,0 km/h (0 Bft) N 0 0 min 0,000 mm 0,0 UV-I 0 W/m -4,1 C -3,4 C 0,0 km/h (0 Bft) 100,00 %
18.12.2017 20:14 -3,5 C 3,9 C 95 % 1027,8 hPa 0,0 l/m 0,0 km/h (0 Bft) N 0 0 min 0,000 mm 0,0 UV-I 0 W/m -4,2 C -3,5 C 0,0 km/h (0 Bft) 100,00 %
18.12.2017 20:15 -3,6 C 3,9 C 95 % 1027,8 hPa 0,0 l/m 0,0 km/h (0 Bft) N 0 0 min 0,000 mm 0,0 UV-I 0 W/m -4,3 C -3,6 C 0,0 km/h (0 Bft) 95,65 %
18.12.2017 20:16 -3,5 C 3,9 C 95 % 1027,8 hPa 0,0 l/m 0,0 km/h (0 Bft) N 0 0 min 0,000 mm 0,0 UV-I 0 W/m -4,2 C -3,5 C 0,0 km/h (0 Bft) 95,65 %
18.12.2017 20:17 -3,4 C 3,9 C 96 % 1027,8 hPa 0,0 l/m 0,0 km/h (0 Bft) N 0 0 min 0,000 mm 0,0 UV-I 0 W/m -3,9 C -3,4 C 0,0 km/h (0 Bft) 100,00 %
18.12.2017 20:18 -3,4 C 3,9 C 96 % 1027,8 hPa 0,0 l/m 0,0 km/h (0 Bft) N 0 0 min 0,000 mm 0,0 UV-I 0 W/m -3,9 C -3,4 C 0,0 km/h (0 Bft) 95,65 %
18.12.2017 20:19 -3,5 C 3,9 C 96 % 1027,8 hPa 0,0 l/m 0,0 km/h (0 Bft) N 0 0 min 0,000 mm 0,0 UV-I 0 W/m -4,0 C -3,5 C 0,0 km/h (0 Bft) 100,00 %
18.12.2017 20:20 -3,4 C 3,9 C 96 % 1027,8 hPa 0,0 l/m 0,0 km/h (0 Bft) N 0 0 min 0,000 mm 0,0 UV-I 0 W/m -3,9 C -3,4 C 0,0 km/h (0 Bft) 95,65 %
18.12.2017 20:21 -3,5 C 3,9 C 96 % 1027,8 hPa 0,0 l/m 0,0 km/h (0 Bft) N 0 0 min 0,000 mm 0,0 UV-I 0 W/m -4,0 C -3,5 C 0,0 km/h (0 Bft) 100,00 %
18.12.2017 20:22 -3,5 C 3,9 C 95 % 1027,8 hPa 0,0 l/m 0,0 km/h (0 Bft) N 0 0 min 0,000 mm 0,0 UV-I 0 W/m -4,2 C -3,5 C 0,0 km/h (0 Bft) 100,00 %
18.12.2017 20:23 -3,4 C 3,9 C 95 % 1027,8 hPa 0,0 l/m 0,0 km/h (0 Bft) N 0 0 min 0,000 mm 0,0 UV-I 0 W/m -4,1 C -3,4 C 0,0 km/h (0 Bft) 100,00 %
18.12.2017 20:24 -3,4 C 3,9 C 96 % 1027,8 hPa 0,0 l/m 0,0 km/h (0 Bft) N 0 0 min 0,000 mm 0,0 UV-I 0 W/m -3,9 C -3,4 C 0,0 km/h (0 Bft) 100,00 %
18.12.2017 20:25 -3,5 C 3,9 C 96 % 1027,9 hPa 0,0 l/m 0,0 km/h (0 Bft) N 0 0 min 0,000 mm 0,0 UV-I 0 W/m -4,0 C -3,5 C 0,0 km/h (0 Bft) 95,65 %
18.12.2017 20:26 -3,5 C 3,9 C 96 % 1027,9 hPa 0,0 l/m 0,0 km/h (0 Bft) N 0 0 min 0,000 mm 0,0 UV-I 0 W/m -4,0 C -3,5 C 0,0 km/h (0 Bft) 100,00 %
18.12.2017 20:27 -3,6 C 3,9 C 95 % 1027,9 hPa 0,0 l/m 0,0 km/h (0 Bft) N 0 0 min 0,000 mm 0,0 UV-I 0 W/m -4,3 C -3,6 C 0,0 km/h (0 Bft) 95,65 %
18.12.2017 20:28 -3,6 C 3,9 C 95 % 1027,9 hPa 0,0 l/m 1,6 km/h (1 Bft) O-NO 67 0 min 0,000 mm 0,0 UV-I 0 W/m -4,3 C -3,6 C 1,6 km/h (1 Bft) 100,00 %
18.12.2017 20:29 -3,6 C 3,9 C 95 % 1027,9 hPa 0,0 l/m 0,0 km/h (0 Bft) N 0 0 min 0,000 mm 0,0 UV-I 0 W/m -4,3 C -3,6 C 0,0 km/h (0 Bft) 95,65 %
18.12.2017 20:30 -3,7 C 3,9 C 95 % 1027,9 hPa 0,0 l/m 0,0 km/h (0 Bft) N 0 0 min 0,000 mm 0,0 UV-I 0 W/m -4,4 C -3,7 C 0,0 km/h (0 Bft) 100,00 %
18.12.2017 20:31 -3,7 C 3,9 C 95 % 1027,9 hPa 0,0 l/m 0,0 km/h (0 Bft) N 0 0 min 0,000 mm 0,0 UV-I 0 W/m -4,4 C -3,7 C 0,0 km/h (0 Bft) 95,65 %
18.12.2017 20:32 -3,7 C 3,9 C 95 % 1027,9 hPa 0,0 l/m 0,0 km/h (0 Bft) N 0 0 min 0,000 mm 0,0 UV-I 0 W/m -4,4 C -3,7 C 0,0 km/h (0 Bft) 91,30 %
18.12.2017 20:33 -3,7 C 3,9 C 96 % 1027,9 hPa 0,0 l/m 0,0 km/h (0 Bft) N 0 0 min 0,000 mm 0,0 UV-I 0 W/m -4,2 C -3,7 C 0,0 km/h (0 Bft) 100,00 %
18.12.2017 20:34 -3,7 C 3,9 C 96 % 1028,0 hPa 0,0 l/m 0,0 km/h (0 Bft) N 0 0 min 0,000 mm 0,0 UV-I 0 W/m -4,2 C -3,7 C 0,0 km/h (0 Bft) 95,65 %
18.12.2017 20:35 -3,7 C 3,9 C 96 % 1028,0 hPa 0,0 l/m 0,0 km/h (0 Bft) N 0 0 min 0,000 mm 0,0 UV-I 0 W/m -4,2 C -3,7 C 0,0 km/h (0 Bft) 100,00 %
18.12.2017 20:36 -3,7 C 3,9 C 96 % 1028,0 hPa 0,0 l/m 0,0 km/h (0 Bft) N 0 0 min 0,000 mm 0,0 UV-I 0 W/m -4,2 C -3,7 C 0,0 km/h (0 Bft) 95,65 %
18.12.2017 20:37 -3,7 C 3,9 C 96 % 1028,0 hPa 0,0 l/m 0,0 km/h (0 Bft) N 0 0 min 0,000 mm 0,0 UV-I 0 W/m -4,2 C -3,7 C 0,0 km/h (0 Bft) 95,65 %
18.12.2017 20:38 -3,6 C 3,9 C 96 % 1028,0 hPa 0,0 l/m 0,0 km/h (0 Bft) N 0 0 min 0,000 mm 0,0 UV-I 0 W/m -4,1 C -3,6 C 0,0 km/h (0 Bft) 95,65 %
18.12.2017 20:39 -3,6 C 3,9 C 96 % 1028,0 hPa 0,0 l/m 0,0 km/h (0 Bft) O-NO 67 0 min 0,000 mm 0,0 UV-I 0 W/m -4,1 C -3,6 C 1,6 km/h (1 Bft) 95,65 %
18.12.2017 20:40 -3,5 C 3,9 C 96 % 1028,0 hPa 0,0 l/m 1,6 km/h (1 Bft) O-NO 67 0 min 0,000 mm 0,0 UV-I 0 W/m -4,0 C -3,5 C 1,6 km/h (1 Bft) 95,65 %
18.12.2017 20:41 -3,5 C 3,9 C 96 % 1028,0 hPa 0,0 l/m 1,6 km/h (1 Bft) O-NO 67 0 min 0,000 mm 0,0 UV-I 0 W/m -4,0 C -3,5 C 1,6 km/h (1 Bft) 100,00 %
18.12.2017 20:42 -3,5 C 3,9 C 96 % 1028,0 hPa 0,0 l/m 1,6 km/h (1 Bft) O-NO 67 0 min 0,000 mm 0,0 UV-I 0 W/m -4,0 C -3,5 C 1,6 km/h (1 Bft) 95,65 %
18.12.2017 20:43 -3,5 C 3,9 C 96 % 1028,0 hPa 0,0 l/m 1,6 km/h (1 Bft) O-NO 67 0 min 0,000 mm 0,0 UV-I 0 W/m -4,0 C -3,5 C 1,6 km/h (1 Bft) 100,00 %
18.12.2017 20:44 -3,5 C 3,9 C 96 % 1028,0 hPa 0,0 l/m 0,0 km/h (0 Bft) O-NO 67 0 min 0,000 mm 0,0 UV-I 0 W/m -4,0 C -3,5 C 1,6 km/h (1 Bft) 95,65 %
18.12.2017 20:45 -3,5 C 3,9 C 96 % 1028,0 hPa 0,0 l/m 0,0 km/h (0 Bft) N 0 0 min 0,000 mm 0,0 UV-I 0 W/m -4,0 C -3,5 C 0,0 km/h (0 Bft) 100,00 %
18.12.2017 20:46 -3,6 C 3,9 C 96 % 1028,0 hPa 0,0 l/m 0,0 km/h (0 Bft) N 0 0 min 0,000 mm 0,0 UV-I 0 W/m -4,1 C -3,6 C 0,0 km/h (0 Bft) 91,30 %
18.12.2017 20:47 -3,6 C 3,9 C 96 % 1028,0 hPa 0,0 l/m 0,0 km/h (0 Bft) N 0 0 min 0,000 mm 0,0 UV-I 0 W/m -4,1 C -3,6 C 0,0 km/h (0 Bft) 100,00 %
18.12.2017 20:48 -3,6 C 3,9 C 96 % 1028,0 hPa 0,0 l/m 0,0 km/h (0 Bft) N 0 0 min 0,000 mm 0,0 UV-I 0 W/m -4,1 C -3,6 C 0,0 km/h (0 Bft) 100,00 %
18.12.2017 20:49 -3,7 C 3,9 C 96 % 1028,0 hPa 0,0 l/m 0,0 km/h (0 Bft) N 0 0 min 0,000 mm 0,0 UV-I 0 W/m -4,2 C -3,7 C 0,0 km/h (0 Bft) 100,00 %
18.12.2017 20:50 -3,6 C 3,9 C 96 % 1028,1 hPa 0,0 l/m 0,0 km/h (0 Bft) N 0 0 min 0,000 mm 0,0 UV-I 0 W/m -4,1 C -3,6 C 0,0 km/h (0 Bft) 100,00 %
18.12.2017 20:51 -3,6 C 3,9 C 96 % 1028,1 hPa 0,0 l/m 0,0 km/h (0 Bft) N 0 0 min 0,000 mm 0,0 UV-I 0 W/m -4,1 C -3,6 C 0,0 km/h (0 Bft) 100,00 %
18.12.2017 20:52 -3,6 C 3,9 C 96 % 1028,1 hPa 0,0 l/m 0,0 km/h (0 Bft) N 0 0 min 0,000 mm 0,0 UV-I 0 W/m -4,1 C -3,6 C 0,0 km/h (0 Bft) 100,00 %
18.12.2017 20:53 -3,6 C 3,9 C 96 % 1028,1 hPa 0,0 l/m 0,0 km/h (0 Bft) N 0 0 min 0,000 mm 0,0 UV-I 0 W/m -4,1 C -3,6 C 0,0 km/h (0 Bft) 91,30 %
18.12.2017 20:54 -3,6 C 3,9 C 96 % 1028,1 hPa 0,0 l/m 0,0 km/h (0 Bft) N 0 0 min 0,000 mm 0,0 UV-I 0 W/m -4,1 C -3,6 C 0,0 km/h (0 Bft) 95,65 %
18.12.2017 20:55 -3,6 C 3,9 C 96 % 1028,1 hPa 0,0 l/m 0,0 km/h (0 Bft) N 0 0 min 0,000 mm 0,0 UV-I 0 W/m -4,1 C -3,6 C 0,0 km/h (0 Bft) 100,00 %
18.12.2017 20:56 -3,6 C 3,9 C 96 % 1028,1 hPa 0,0 l/m 0,0 km/h (0 Bft) N 0 0 min 0,000 mm 0,0 UV-I 0 W/m -4,1 C -3,6 C 0,0 km/h (0 Bft) 95,65 %
18.12.2017 20:57 -3,6 C 3,9 C 96 % 1028,1 hPa 0,0 l/m 0,0 km/h (0 Bft) N 0 0 min 0,000 mm 0,0 UV-I 0 W/m -4,1 C -3,6 C 0,0 km/h (0 Bft) 100,00 %
18.12.2017 20:58 -3,6 C 3,9 C 96 % 1028,1 hPa 0,0 l/m 0,0 km/h (0 Bft) N 0 0 min 0,000 mm 0,0 UV-I 0 W/m -4,1 C -3,6 C 0,0 km/h (0 Bft) 100,00 %
18.12.2017 20:59 -3,7 C 3,9 C 96 % 1028,1 hPa 0,0 l/m 0,0 km/h (0 Bft) N 0 0 min 0,000 mm 0,0 UV-I 0 W/m -4,2 C -3,7 C 0,0 km/h (0 Bft) 100,00 %
18.12.2017 21:00 -3,7 C 3,9 C 96 % 1028,1 hPa 0,0 l/m 0,0 km/h (0 Bft) N 0 0 min 0,000 mm 0,0 UV-I 0 W/m -4,2 C -3,7 C 0,0 km/h (0 Bft) 95,65 %
18.12.2017 21:01 -3,7 C 3,9 C 96 % 1028,1 hPa 0,0 l/m 0,0 km/h (0 Bft) N 0 0 min 0,000 mm 0,0 UV-I 0 W/m -4,2 C -3,7 C 0,0 km/h (0 Bft) 100,00 %
18.12.2017 21:02 -3,7 C 3,9 C 96 % 1028,1 hPa 0,0 l/m 0,0 km/h (0 Bft) N 0 0 min 0,000 mm 0,0 UV-I 0 W/m -4,2 C -3,7 C 0,0 km/h (0 Bft) 100,00 %
18.12.2017 21:03 -3,7 C 3,9 C 96 % 1028,2 hPa 0,0 l/m 0,0 km/h (0 Bft) N 0 0 min 0,000 mm 0,0 UV-I 0 W/m -4,2 C -3,7 C 0,0 km/h (0 Bft) 100,00 %
18.12.2017 21:04 -3,6 C 3,9 C 96 % 1028,2 hPa 0,0 l/m 0,0 km/h (0 Bft) N 0 0 min 0,000 mm 0,0 UV-I 0 W/m -4,1 C -3,6 C 0,0 km/h (0 Bft) 100,00 %
18.12.2017 21:05 -3,6 C 3,9 C 96 % 1028,2 hPa 0,0 l/m 0,0 km/h (0 Bft) N 0 0 min 0,000 mm 0,0 UV-I 0 W/m -4,1 C -3,6 C 0,0 km/h (0 Bft) 100,00 %
18.12.2017 21:06 -3,6 C 3,9 C 96 % 1028,2 hPa 0,0 l/m 0,0 km/h (0 Bft) N 0 0 min 0,000 mm 0,0 UV-I 0 W/m -4,1 C -3,6 C 0,0 km/h (0 Bft) 100,00 %
18.12.2017 21:07 -3,6 C 3,9 C 96 % 1028,2 hPa 0,0 l/m 0,0 km/h (0 Bft) N 0 0 min 0,000 mm 0,0 UV-I 0 W/m -4,1 C -3,6 C 0,0 km/h (0 Bft) 95,65 %
18.12.2017 21:08 -3,7 C 3,9 C 96 % 1028,3 hPa 0,0 l/m 0,0 km/h (0 Bft) N 0 0 min 0,000 mm 0,0 UV-I 0 W/m -4,2 C -3,7 C 0,0 km/h (0 Bft) 95,65 %
18.12.2017 21:09 -3,7 C 3,9 C 96 % 1028,3 hPa 0,0 l/m 0,0 km/h (0 Bft) N 0 0 min 0,000 mm 0,0 UV-I 0 W/m -4,2 C -3,7 C 0,0 km/h (0 Bft) 100,00 %
18.12.2017 21:10 -3,7 C 3,9 C 96 % 1028,3 hPa 0,0 l/m 0,0 km/h (0 Bft) N 0 0 min 0,000 mm 0,0 UV-I 0 W/m -4,2 C -3,7 C 0,0 km/h (0 Bft) 100,00 %
18.12.2017 21:11 -3,8 C 3,9 C 96 % 1028,3 hPa 0,0 l/m 0,0 km/h (0 Bft) N 0 0 min 0,000 mm 0,0 UV-I 0 W/m -4,3 C -3,8 C 0,0 km/h (0 Bft) 100,00 %
18.12.2017 21:12 -3,8 C 3,9 C 96 % 1028,3 hPa 0,0 l/m 0,0 km/h (0 Bft) N 0 0 min 0,000 mm 0,0 UV-I 0 W/m -4,3 C -3,8 C 0,0 km/h (0 Bft) 100,00 %
18.12.2017 21:13 -3,9 C 3,9 C 95 % 1028,3 hPa 0,0 l/m 0,0 km/h (0 Bft) N 0 0 min 0,000 mm 0,0 UV-I 0 W/m -4,6 C -3,9 C 0,0 km/h (0 Bft) 100,00 %
18.12.2017 21:14 -3,9 C 3,9 C 95 % 1028,3 hPa 0,0 l/m 0,0 km/h (0 Bft) N 0 0 min 0,000 mm 0,0 UV-I 0 W/m -4,6 C -3,9 C 0,0 km/h (0 Bft) 91,30 %
18.12.2017 21:15 -3,9 C 3,9 C 96 % 1028,3 hPa 0,0 l/m 0,0 km/h (0 Bft) N 0 0 min 0,000 mm 0,0 UV-I 0 W/m -4,4 C -3,9 C 0,0 km/h (0 Bft) 100,00 %
18.12.2017 21:16 -4,0 C 3,9 C 96 % 1028,3 hPa 0,0 l/m 0,0 km/h (0 Bft) N 0 0 min 0,000 mm 0,0 UV-I 0 W/m -4,5 C -4,0 C 0,0 km/h (0 Bft) 100,00 %
18.12.2017 21:17 -4,1 C 3,9 C 96 % 1028,3 hPa 0,0 l/m 0,0 km/h (0 Bft) N 0 0 min 0,000 mm 0,0 UV-I 0 W/m -4,6 C -4,1 C 0,0 km/h (0 Bft) 100,00 %
18.12.2017 21:18 -4,1 C 3,9 C 95 % 1028,4 hPa 0,0 l/m 0,0 km/h (0 Bft) N 0 0 min 0,000 mm 0,0 UV-I 0 W/m -4,8 C -4,1 C 0,0 km/h (0 Bft) 95,65 %
18.12.2017 21:19 -4,2 C 3,9 C 95 % 1028,3 hPa 0,0 l/m 0,0 km/h (0 Bft) N 0 0 min 0,000 mm 0,0 UV-I 0 W/m -4,9 C -4,2 C 0,0 km/h (0 Bft) 100,00 %
18.12.2017 21:20 -4,2 C 3,9 C 95 % 1028,4 hPa 0,0 l/m 0,0 km/h (0 Bft) N 0 0 min 0,000 mm 0,0 UV-I 0 W/m -4,9 C -4,2 C 0,0 km/h (0 Bft) 95,65 %
18.12.2017 21:21 -4,2 C 3,9 C 95 % 1028,3 hPa 0,0 l/m 0,0 km/h (0 Bft) N 0 0 min 0,000 mm 0,0 UV-I 0 W/m -4,9 C -4,2 C 0,0 km/h (0 Bft) 95,65 %
18.12.2017 21:22 -4,2 C 3,9 C 95 % 1028,4 hPa 0,0 l/m 0,0 km/h (0 Bft) N 0 0 min 0,000 mm 0,0 UV-I 0 W/m -4,9 C -4,2 C 0,0 km/h (0 Bft) 95,65 %
18.12.2017 21:23 -4,2 C 3,9 C 96 % 1028,4 hPa 0,0 l/m 0,0 km/h (0 Bft) N 0 0 min 0,000 mm 0,0 UV-I 0 W/m -4,7 C -4,2 C 0,0 km/h (0 Bft) 95,65 %
18.12.2017 21:24 -4,2 C 3,9 C 96 % 1028,4 hPa 0,0 l/m 0,0 km/h (0 Bft) N 0 0 min 0,000 mm 0,0 UV-I 0 W/m -4,7 C -4,2 C 0,0 km/h (0 Bft) 100,00 %
18.12.2017 21:25 -4,2 C 3,9 C 96 % 1028,4 hPa 0,0 l/m 0,0 km/h (0 Bft) N 0 0 min 0,000 mm 0,0 UV-I 0 W/m -4,7 C -4,2 C 0,0 km/h (0 Bft) 95,65 %
18.12.2017 21:26 -4,2 C 3,9 C 96 % 1028,4 hPa 0,0 l/m 0,0 km/h (0 Bft) N 0 0 min 0,000 mm 0,0 UV-I 0 W/m -4,7 C -4,2 C 0,0 km/h (0 Bft) 100,00 %
18.12.2017 21:27 -4,1 C 3,9 C 96 % 1028,4 hPa 0,0 l/m 0,0 km/h (0 Bft) N 0 0 min 0,000 mm 0,0 UV-I 0 W/m -4,6 C -4,1 C 0,0 km/h (0 Bft) 95,65 %
18.12.2017 21:28 -4,1 C 3,9 C 96 % 1028,4 hPa 0,0 l/m 0,0 km/h (0 Bft) N 0 0 min 0,000 mm 0,0 UV-I 0 W/m -4,6 C -4,1 C 0,0 km/h (0 Bft) 91,30 %
18.12.2017 21:29 -4,0 C 3,9 C 96 % 1028,4 hPa 0,0 l/m 0,0 km/h (0 Bft) N 0 0 min 0,000 mm 0,0 UV-I 0 W/m -4,5 C -4,0 C 0,0 km/h (0 Bft) 95,65 %
18.12.2017 21:30 -4,0 C 3,9 C 96 % 1028,4 hPa 0,0 l/m 0,0 km/h (0 Bft) N 0 0 min 0,000 mm 0,0 UV-I 0 W/m -4,5 C -4,0 C 0,0 km/h (0 Bft) 91,30 %
18.12.2017 21:31 -4,0 C 3,9 C 96 % 1028,5 hPa 0,0 l/m 0,0 km/h (0 Bft) N 0 0 min 0,000 mm 0,0 UV-I 0 W/m -4,5 C -4,0 C 0,0 km/h (0 Bft) 95,65 %
18.12.2017 21:32 -4,1 C 3,9 C 96 % 1028,5 hPa 0,0 l/m 0,0 km/h (0 Bft) N 0 0 min 0,000 mm 0,0 UV-I 0 W/m -4,6 C -4,1 C 0,0 km/h (0 Bft) 95,65 %
18.12.2017 21:33 -4,1 C 3,9 C 96 % 1028,5 hPa 0,0 l/m 0,0 km/h (0 Bft) N 0 0 min 0,000 mm 0,0 UV-I 0 W/m -4,6 C -4,1 C 0,0 km/h (0 Bft) 100,00 %
18.12.2017 21:34 -4,2 C 3,9 C 96 % 1028,5 hPa 0,0 l/m 0,0 km/h (0 Bft) N 0 0 min 0,000 mm 0,0 UV-I 0 W/m -4,7 C -4,2 C 0,0 km/h (0 Bft) 95,65 %
18.12.2017 21:35 -4,2 C 3,9 C 96 % 1028,5 hPa 0,0 l/m 0,0 km/h (0 Bft) N 0 0 min 0,000 mm 0,0 UV-I 0 W/m -4,7 C -4,2 C 0,0 km/h (0 Bft) 95,65 %
18.12.2017 21:36 -4,3 C 3,9 C 96 % 1028,5 hPa 0,0 l/m 0,0 km/h (0 Bft) N 0 0 min 0,000 mm 0,0 UV-I 0 W/m -4,8 C -4,3 C 0,0 km/h (0 Bft) 95,65 %
18.12.2017 21:37 -4,3 C 3,9 C 96 % 1028,6 hPa 0,0 l/m 0,0 km/h (0 Bft) N 0 0 min 0,000 mm 0,0 UV-I 0 W/m -4,8 C -4,3 C 0,0 km/h (0 Bft) 100,00 %
18.12.2017 21:38 -4,3 C 3,9 C 96 % 1028,5 hPa 0,0 l/m 0,0 km/h (0 Bft) N 0 0 min 0,000 mm 0,0 UV-I 0 W/m -4,8 C -4,3 C 0,0 km/h (0 Bft) 91,30 %
18.12.2017 21:39 -4,3 C 3,9 C 96 % 1028,6 hPa 0,0 l/m 0,0 km/h (0 Bft) N 0 0 min 0,000 mm 0,0 UV-I 0 W/m -4,8 C -4,3 C 0,0 km/h (0 Bft) 100,00 %
18.12.2017 21:40 -4,2 C 3,9 C 96 % 1028,6 hPa 0,0 l/m 0,0 km/h (0 Bft) N 0 0 min 0,000 mm 0,0 UV-I 0 W/m -4,7 C -4,2 C 0,0 km/h (0 Bft) 91,30 %
18.12.2017 21:41 -4,2 C 3,9 C 96 % 1028,6 hPa 0,0 l/m 0,0 km/h (0 Bft) N 0 0 min 0,000 mm 0,0 UV-I 0 W/m -4,7 C -4,2 C 0,0 km/h (0 Bft) 95,65 %
18.12.2017 21:42 -4,2 C 3,9 C 96 % 1028,6 hPa 0,0 l/m 0,0 km/h (0 Bft) N 0 0 min 0,000 mm 0,0 UV-I 0 W/m -4,7 C -4,2 C 0,0 km/h (0 Bft) 91,30 %
18.12.2017 21:43 -4,2 C 3,9 C 96 % 1028,6 hPa 0,0 l/m 0,0 km/h (0 Bft) N 0 0 min 0,000 mm 0,0 UV-I 0 W/m -4,7 C -4,2 C 0,0 km/h (0 Bft) 95,65 %
18.12.2017 21:44 -4,1 C 3,9 C 96 % 1028,6 hPa 0,0 l/m 0,0 km/h (0 Bft) N 0 0 min 0,000 mm 0,0 UV-I 0 W/m -4,6 C -4,1 C 0,0 km/h (0 Bft) 95,65 %
18.12.2017 21:45 -4,0 C 3,9 C 96 % 1028,6 hPa 0,0 l/m 0,0 km/h (0 Bft) N 0 0 min 0,000 mm 0,0 UV-I 0 W/m -4,5 C -4,0 C 0,0 km/h (0 Bft) 91,30 %
18.12.2017 21:46 -3,8 C 3,9 C 96 % 1028,6 hPa 0,0 l/m 0,0 km/h (0 Bft) N 0 0 min 0,000 mm 0,0 UV-I 0 W/m -4,3 C -3,8 C 0,0 km/h (0 Bft) 95,65 %
18.12.2017 21:47 -3,8 C 3,9 C 96 % 1028,6 hPa 0,0 l/m 0,0 km/h (0 Bft) N 0 0 min 0,000 mm 0,0 UV-I 0 W/m -4,3 C -3,8 C 0,0 km/h (0 Bft) 95,65 %
18.12.2017 21:48 -3,7 C 3,9 C 96 % 1028,7 hPa 0,0 l/m 0,0 km/h (0 Bft) N 0 0 min 0,000 mm 0,0 UV-I 0 W/m -4,2 C -3,7 C 0,0 km/h (0 Bft) 86,96 %
18.12.2017 21:49 -3,7 C 3,9 C 96 % 1028,7 hPa 0,0 l/m 0,0 km/h (0 Bft) O-NO 67 0 min 0,000 mm 0,0 UV-I 0 W/m -4,2 C -3,7 C 1,6 km/h (1 Bft) 100,00 %
18.12.2017 21:50 -3,8 C 3,9 C 96 % 1028,7 hPa 0,0 l/m 1,6 km/h (1 Bft) O-NO 67 0 min 0,000 mm 0,0 UV-I 0 W/m -4,3 C -3,8 C 1,6 km/h (1 Bft) 82,61 %
18.12.2017 21:51 -3,8 C 3,9 C 96 % 1028,8 hPa 0,0 l/m 3,2 km/h (1 Bft) O-NO 67 0 min 0,000 mm 0,0 UV-I 0 W/m -4,3 C -3,8 C 3,2 km/h (1 Bft) 100,00 %
18.12.2017 21:52 -3,7 C 3,9 C 96 % 1028,8 hPa 0,0 l/m 1,6 km/h (1 Bft) O-NO 67 0 min 0,000 mm 0,0 UV-I 0 W/m -4,2 C -3,7 C 3,2 km/h (1 Bft) 91,30 %
18.12.2017 21:53 -3,7 C 3,9 C 96 % 1028,7 hPa 0,0 l/m 1,6 km/h (1 Bft) O-NO 67 0 min 0,000 mm 0,0 UV-I 0 W/m -4,2 C -3,7 C 3,2 km/h (1 Bft) 95,65 %
18.12.2017 21:54 -3,6 C 3,9 C 96 % 1028,8 hPa 0,0 l/m 0,0 km/h (0 Bft) O-NO 67 0 min 0,000 mm 0,0 UV-I 0 W/m -4,1 C -3,6 C 3,2 km/h (1 Bft) 95,65 %
18.12.2017 21:55 -3,4 C 3,9 C 96 % 1028,8 hPa 0,0 l/m 0,0 km/h (0 Bft) O-NO 67 0 min 0,000 mm 0,0 UV-I 0 W/m -3,9 C -3,4 C 1,6 km/h (1 Bft) 95,65 %
18.12.2017 21:56 -3,4 C 3,9 C 96 % 1028,8 hPa 0,0 l/m 0,0 km/h (0 Bft) O-NO 67 0 min 0,000 mm 0,0 UV-I 0 W/m -3,9 C -3,4 C 1,6 km/h (1 Bft) 91,30 %
18.12.2017 21:57 -3,3 C 3,9 C 96 % 1028,8 hPa 0,0 l/m 0,0 km/h (0 Bft) O-NO 67 0 min 0,000 mm 0,0 UV-I 0 W/m -3,8 C -3,3 C 1,6 km/h (1 Bft) 100,00 %
18.12.2017 21:58 -3,3 C 3,9 C 96 % 1028,8 hPa 0,0 l/m 0,0 km/h (0 Bft) O-NO 67 0 min 0,000 mm 0,0 UV-I 0 W/m -3,8 C -3,3 C 1,6 km/h (1 Bft) 100,00 %
18.12.2017 21:59 -3,3 C 3,9 C 96 % 1028,8 hPa 0,0 l/m 0,0 km/h (0 Bft) N 0 0 min 0,000 mm 0,0 UV-I 0 W/m -3,8 C -3,3 C 0,0 km/h (0 Bft) 100,00 %
18.12.2017 22:00 -3,3 C 3,9 C 96 % 1028,9 hPa 0,0 l/m 0,0 km/h (0 Bft) O-NO 67 0 min 0,000 mm 0,0 UV-I 0 W/m -3,8 C -3,3 C 1,6 km/h (1 Bft) 100,00 %
18.12.2017 22:01 -3,3 C 3,9 C 96 % 1028,9 hPa 0,0 l/m 1,6 km/h (1 Bft) O-NO 67 0 min 0,000 mm 0,0 UV-I 0 W/m -3,8 C -3,3 C 1,6 km/h (1 Bft) 100,00 %
18.12.2017 22:02 -3,3 C 3,9 C 96 % 1028,9 hPa 0,0 l/m 0,0 km/h (0 Bft) N 0 0 min 0,000 mm 0,0 UV-I 0 W/m -3,8 C -3,3 C 0,0 km/h (0 Bft) 100,00 %
18.12.2017 22:03 -3,2 C 3,9 C 96 % 1028,9 hPa 0,0 l/m 0,0 km/h (0 Bft) O-NO 67 0 min 0,000 mm 0,0 UV-I 0 W/m -3,7 C -3,2 C 1,6 km/h (1 Bft) 91,30 %
18.12.2017 22:04 -3,2 C 3,9 C 96 % 1029,0 hPa 0,0 l/m 0,0 km/h (0 Bft) N 0 0 min 0,000 mm 0,0 UV-I 0 W/m -3,7 C -3,2 C 0,0 km/h (0 Bft) 100,00 %
18.12.2017 22:05 -3,3 C 3,9 C 96 % 1029,0 hPa 0,0 l/m 0,0 km/h (0 Bft) N 0 0 min 0,000 mm 0,0 UV-I 0 W/m -3,8 C -3,3 C 0,0 km/h (0 Bft) 95,65 %
18.12.2017 22:06 -3,3 C 3,9 C 96 % 1029,0 hPa 0,0 l/m 1,6 km/h (1 Bft) O-NO 67 0 min 0,000 mm 0,0 UV-I 0 W/m -3,8 C -3,3 C 3,2 km/h (1 Bft) 95,65 %
18.12.2017 22:07 -3,3 C 3,9 C 96 % 1029,0 hPa 0,0 l/m 1,6 km/h (1 Bft) O-NO 67 0 min 0,000 mm 0,0 UV-I 0 W/m -3,8 C -3,3 C 3,2 km/h (1 Bft) 100,00 %
18.12.2017 22:08 -3,4 C 3,9 C 96 % 1029,0 hPa 0,0 l/m 0,0 km/h (0 Bft) O-NO 67 0 min 0,000 mm 0,0 UV-I 0 W/m -3,9 C -3,4 C 1,6 km/h (1 Bft) 100,00 %
18.12.2017 22:09 -3,4 C 3,9 C 96 % 1029,0 hPa 0,0 l/m 0,0 km/h (0 Bft) O-NO 67 0 min 0,000 mm 0,0 UV-I 0 W/m -3,9 C -3,4 C 1,6 km/h (1 Bft) 100,00 %
18.12.2017 22:10 -3,5 C 3,9 C 96 % 1029,0 hPa 0,0 l/m 1,6 km/h (1 Bft) O-NO 67 0 min 0,000 mm 0,0 UV-I 0 W/m -4,0 C -3,5 C 1,6 km/h (1 Bft) 95,65 %
18.12.2017 22:11 -3,4 C 3,9 C 96 % 1029,0 hPa 0,0 l/m 0,0 km/h (0 Bft) O-NO 67 0 min 0,000 mm 0,0 UV-I 0 W/m -3,9 C -3,4 C 1,6 km/h (1 Bft) 100,00 %
18.12.2017 22:12 -3,5 C 3,9 C 96 % 1029,0 hPa 0,0 l/m 0,0 km/h (0 Bft) N 0 0 min 0,000 mm 0,0 UV-I 0 W/m -4,0 C -3,5 C 0,0 km/h (0 Bft) 100,00 %
18.12.2017 22:13 -3,5 C 3,9 C 96 % 1029,0 hPa 0,0 l/m 0,0 km/h (0 Bft) N 0 0 min 0,000 mm 0,0 UV-I 0 W/m -4,0 C -3,5 C 0,0 km/h (0 Bft) 100,00 %
18.12.2017 22:14 -3,5 C 3,9 C 96 % 1029,0 hPa 0,0 l/m 0,0 km/h (0 Bft) N 0 0 min 0,000 mm 0,0 UV-I 0 W/m -4,0 C -3,5 C 0,0 km/h (0 Bft) 100,00 %
18.12.2017 22:15 -3,5 C 3,9 C 96 % 1029,0 hPa 0,0 l/m 0,0 km/h (0 Bft) N 0 0 min 0,000 mm 0,0 UV-I 0 W/m -4,0 C -3,5 C 0,0 km/h (0 Bft) 100,00 %
18.12.2017 22:16 -3,5 C 3,9 C 96 % 1029,0 hPa 0,0 l/m 0,0 km/h (0 Bft) N 0 0 min 0,000 mm 0,0 UV-I 0 W/m -4,0 C -3,5 C 0,0 km/h (0 Bft) 100,00 %
18.12.2017 22:17 -3,5 C 3,9 C 96 % 1029,0 hPa 0,0 l/m 0,0 km/h (0 Bft) N 0 0 min 0,000 mm 0,0 UV-I 0 W/m -4,0 C -3,5 C 0,0 km/h (0 Bft) 95,65 %
18.12.2017 22:18 -3,5 C 3,9 C 96 % 1029,0 hPa 0,0 l/m 0,0 km/h (0 Bft) N 0 0 min 0,000 mm 0,0 UV-I 0 W/m -4,0 C -3,5 C 0,0 km/h (0 Bft) 95,65 %
18.12.2017 22:19 -3,5 C 3,9 C 96 % 1029,1 hPa 0,0 l/m 0,0 km/h (0 Bft) N 0 0 min 0,000 mm 0,0 UV-I 0 W/m -4,0 C -3,5 C 0,0 km/h (0 Bft) 100,00 %
18.12.2017 22:20 -3,4 C 3,9 C 96 % 1029,0 hPa 0,0 l/m 0,0 km/h (0 Bft) N 0 0 min 0,000 mm 0,0 UV-I 0 W/m -3,9 C -3,4 C 0,0 km/h (0 Bft) 100,00 %
18.12.2017 22:21 -3,3 C 3,9 C 96 % 1029,1 hPa 0,0 l/m 0,0 km/h (0 Bft) N 0 0 min 0,000 mm 0,0 UV-I 0 W/m -3,8 C -3,3 C 0,0 km/h (0 Bft) 100,00 %
18.12.2017 22:22 -3,3 C 3,9 C 96 % 1029,1 hPa 0,0 l/m 0,0 km/h (0 Bft) N 0 0 min 0,000 mm 0,0 UV-I 0 W/m -3,8 C -3,3 C 0,0 km/h (0 Bft) 100,00 %
18.12.2017 22:23 -3,2 C 3,9 C 96 % 1029,1 hPa 0,0 l/m 0,0 km/h (0 Bft) N 0 0 min 0,000 mm 0,0 UV-I 0 W/m -3,7 C -3,2 C 0,0 km/h (0 Bft) 100,00 %
18.12.2017 22:24 -3,2 C 3,9 C 96 % 1029,1 hPa 0,0 l/m 0,0 km/h (0 Bft) N 0 0 min 0,000 mm 0,0 UV-I 0 W/m -3,7 C -3,2 C 0,0 km/h (0 Bft) 95,65 %
18.12.2017 22:25 -3,2 C 3,9 C 96 % 1029,1 hPa 0,0 l/m 0,0 km/h (0 Bft) N 0 0 min 0,000 mm 0,0 UV-I 0 W/m -3,7 C -3,2 C 0,0 km/h (0 Bft) 95,65 %
18.12.2017 22:26 -3,1 C 3,9 C 96 % 1029,0 hPa 0,0 l/m 0,0 km/h (0 Bft) N 0 0 min 0,000 mm 0,0 UV-I 0 W/m -3,6 C -3,1 C 0,0 km/h (0 Bft) 100,00 %
18.12.2017 22:27 -3,1 C 3,9 C 96 % 1029,0 hPa 0,0 l/m 0,0 km/h (0 Bft) O-NO 67 0 min 0,000 mm 0,0 UV-I 0 W/m -3,6 C -3,1 C 1,6 km/h (1 Bft) 100,00 %
18.12.2017 22:28 -3,1 C 3,9 C 97 % 1029,0 hPa 0,0 l/m 0,0 km/h (0 Bft) O-NO 67 0 min 0,000 mm 0,0 UV-I 0 W/m -3,5 C -3,1 C 1,6 km/h (1 Bft) 100,00 %
18.12.2017 22:29 -3,1 C 3,9 C 97 % 1029,1 hPa 0,0 l/m 0,0 km/h (0 Bft) O-NO 67 0 min 0,000 mm 0,0 UV-I 0 W/m -3,5 C -3,1 C 1,6 km/h (1 Bft) 100,00 %
18.12.2017 22:30 -3,0 C 3,9 C 97 % 1029,0 hPa 0,0 l/m 0,0 km/h (0 Bft) N 0 0 min 0,000 mm 0,0 UV-I 0 W/m -3,4 C -3,0 C 0,0 km/h (0 Bft) 95,65 %
18.12.2017 22:31 -3,0 C 3,9 C 97 % 1029,0 hPa 0,0 l/m 0,0 km/h (0 Bft) N 0 0 min 0,000 mm 0,0 UV-I 0 W/m -3,4 C -3,0 C 0,0 km/h (0 Bft) 95,65 %
18.12.2017 22:32 -2,9 C 3,9 C 97 % 1029,0 hPa 0,0 l/m 1,6 km/h (1 Bft) O-NO 67 0 min 0,000 mm 0,0 UV-I 0 W/m -3,3 C -2,9 C 3,2 km/h (1 Bft) 100,00 %
18.12.2017 22:33 -2,9 C 3,9 C 97 % 1029,1 hPa 0,0 l/m 0,0 km/h (0 Bft) O-NO 67 0 min 0,000 mm 0,0 UV-I 0 W/m -3,3 C -2,9 C 1,6 km/h (1 Bft) 100,00 %
18.12.2017 22:34 -2,9 C 3,9 C 97 % 1029,1 hPa 0,0 l/m 0,0 km/h (0 Bft) O-NO 67 0 min 0,000 mm 0,0 UV-I 0 W/m -3,3 C -2,9 C 3,2 km/h (1 Bft) 100,00 %
18.12.2017 22:35 -2,9 C 3,9 C 97 % 1029,1 hPa 0,0 l/m 0,0 km/h (0 Bft) O-NO 67 0 min 0,000 mm 0,0 UV-I 0 W/m -3,3 C -2,9 C 1,6 km/h (1 Bft) 95,65 %
18.12.2017 22:36 -2,9 C 3,9 C 97 % 1029,1 hPa 0,0 l/m 1,6 km/h (1 Bft) O-NO 67 0 min 0,000 mm 0,0 UV-I 0 W/m -3,3 C -2,9 C 3,2 km/h (1 Bft) 100,00 %
18.12.2017 22:37 -2,9 C 3,9 C 97 % 1029,1 hPa 0,0 l/m 1,6 km/h (1 Bft) O-NO 67 0 min 0,000 mm 0,0 UV-I 0 W/m -3,3 C -2,9 C 3,2 km/h (1 Bft) 100,00 %
18.12.2017 22:38 -3,0 C 3,9 C 96 % 1029,1 hPa 0,0 l/m 0,0 km/h (0 Bft) O-NO 67 0 min 0,000 mm 0,0 UV-I 0 W/m -3,5 C -3,0 C 1,6 km/h (1 Bft) 95,65 %
18.12.2017 22:39 -2,9 C 3,9 C 97 % 1029,1 hPa 0,0 l/m 1,6 km/h (1 Bft) O-NO 67 0 min 0,000 mm 0,0 UV-I 0 W/m -3,3 C -2,9 C 3,2 km/h (1 Bft) 100,00 %
18.12.2017 22:40 -3,0 C 3,9 C 97 % 1029,1 hPa 0,0 l/m 0,0 km/h (0 Bft) N 0 0 min 0,000 mm 0,0 UV-I 0 W/m -3,4 C -3,0 C 0,0 km/h (0 Bft) 100,00 %
18.12.2017 22:41 -3,0 C 3,9 C 97 % 1029,1 hPa 0,0 l/m 1,6 km/h (1 Bft) O-NO 67 0 min 0,000 mm 0,0 UV-I 0 W/m -3,4 C -3,0 C 1,6 km/h (1 Bft) 95,65 %
18.12.2017 22:42 -3,0 C 3,9 C 97 % 1029,1 hPa 0,0 l/m 0,0 km/h (0 Bft) O-NO 67 0 min 0,000 mm 0,0 UV-I 0 W/m -3,4 C -3,0 C 1,6 km/h (1 Bft) 86,96 %
18.12.2017 22:43 -3,0 C 3,9 C 97 % 1029,1 hPa 0,0 l/m 0,0 km/h (0 Bft) O-NO 67 0 min 0,000 mm 0,0 UV-I 0 W/m -3,4 C -3,0 C 1,6 km/h (1 Bft) 100,00 %
18.12.2017 22:44 -3,0 C 3,9 C 97 % 1029,1 hPa 0,0 l/m 0,0 km/h (0 Bft) N 0 0 min 0,000 mm 0,0 UV-I 0 W/m -3,4 C -3,0 C 0,0 km/h (0 Bft) 95,65 %
18.12.2017 22:45 -3,0 C 3,9 C 97 % 1029,1 hPa 0,0 l/m 0,0 km/h (0 Bft) N 0 0 min 0,000 mm 0,0 UV-I 0 W/m -3,4 C -3,0 C 0,0 km/h (0 Bft) 95,65 %
18.12.2017 22:46 -3,0 C 3,9 C 97 % 1029,1 hPa 0,0 l/m 1,6 km/h (1 Bft) O-NO 67 0 min 0,000 mm 0,0 UV-I 0 W/m -3,4 C -3,0 C 3,2 km/h (1 Bft) 100,00 %
18.12.2017 22:47 -3,1 C 3,9 C 97 % 1029,1 hPa 0,0 l/m 0,0 km/h (0 Bft) N 0 0 min 0,000 mm 0,0 UV-I 0 W/m -3,5 C -3,1 C 0,0 km/h (0 Bft) 100,00 %
18.12.2017 22:48 -3,1 C 3,9 C 96 % 1029,1 hPa 0,0 l/m 1,6 km/h (1 Bft) O-NO 67 0 min 0,000 mm 0,0 UV-I 0 W/m -3,6 C -3,1 C 3,2 km/h (1 Bft) 95,65 %
18.12.2017 22:49 -3,2 C 3,9 C 96 % 1029,2 hPa 0,0 l/m 3,2 km/h (1 Bft) O-NO 67 0 min 0,000 mm 0,0 UV-I 0 W/m -3,7 C -3,2 C 3,2 km/h (1 Bft) 95,65 %
18.12.2017 22:50 -3,2 C 3,9 C 96 % 1029,2 hPa 0,0 l/m 1,6 km/h (1 Bft) O-NO 67 0 min 0,000 mm 0,0 UV-I 0 W/m -3,7 C -3,2 C 3,2 km/h (1 Bft) 95,65 %
18.12.2017 22:51 -3,2 C 3,9 C 96 % 1029,2 hPa 0,0 l/m 0,0 km/h (0 Bft) O-NO 67 0 min 0,000 mm 0,0 UV-I 0 W/m -3,7 C -3,2 C 1,6 km/h (1 Bft) 100,00 %
18.12.2017 22:52 -3,2 C 3,9 C 96 % 1029,2 hPa 0,0 l/m 1,6 km/h (1 Bft) O-NO 67 0 min 0,000 mm 0,0 UV-I 0 W/m -3,7 C -3,2 C 3,2 km/h (1 Bft) 91,30 %
18.12.2017 22:53 -3,2 C 3,9 C 96 % 1029,2 hPa 0,0 l/m 0,0 km/h (0 Bft) O-NO 67 0 min 0,000 mm 0,0 UV-I 0 W/m -3,7 C -3,2 C 1,6 km/h (1 Bft) 100,00 %
18.12.2017 22:54 -3,2 C 3,9 C 96 % 1029,2 hPa 0,0 l/m 0,0 km/h (0 Bft) N 0 0 min 0,000 mm 0,0 UV-I 0 W/m -3,7 C -3,2 C 0,0 km/h (0 Bft) 95,65 %
18.12.2017 22:55 -3,2 C 3,9 C 96 % 1029,2 hPa 0,0 l/m 0,0 km/h (0 Bft) O-NO 67 0 min 0,000 mm 0,0 UV-I 0 W/m -3,7 C -3,2 C 1,6 km/h (1 Bft) 100,00 %
18.12.2017 22:56 -3,2 C 3,9 C 96 % 1029,3 hPa 0,0 l/m 0,0 km/h (0 Bft) O-NO 67 0 min 0,000 mm 0,0 UV-I 0 W/m -3,7 C -3,2 C 1,6 km/h (1 Bft) 95,65 %
18.12.2017 22:57 -3,2 C 3,9 C 96 % 1029,3 hPa 0,0 l/m 0,0 km/h (0 Bft) O-NO 67 0 min 0,000 mm 0,0 UV-I 0 W/m -3,7 C -3,2 C 1,6 km/h (1 Bft) 91,30 %
18.12.2017 22:58 -3,2 C 3,9 C 96 % 1029,3 hPa 0,0 l/m 1,6 km/h (1 Bft) O-NO 67 0 min 0,000 mm 0,0 UV-I 0 W/m -3,7 C -3,2 C 3,2 km/h (1 Bft) 100,00 %
18.12.2017 22:59 -3,2 C 3,9 C 96 % 1029,3 hPa 0,0 l/m 1,6 km/h (1 Bft) O-NO 67 0 min 0,000 mm 0,0 UV-I 0 W/m -3,7 C -3,2 C 1,6 km/h (1 Bft) 91,30 %
18.12.2017 23:00 -3,2 C 3,9 C 96 % 1029,4 hPa 0,0 l/m 1,6 km/h (1 Bft) O-NO 67 0 min 0,000 mm 0,0 UV-I 0 W/m -3,7 C -3,2 C 3,2 km/h (1 Bft) 100,00 %
18.12.2017 23:01 -3,2 C 3,9 C 96 % 1029,4 hPa 0,0 l/m 3,2 km/h (1 Bft) O-NO 67 0 min 0,000 mm 0,0 UV-I 0 W/m -3,7 C -3,2 C 3,2 km/h (1 Bft) 95,65 %
18.12.2017 23:02 -3,3 C 3,9 C 96 % 1029,3 hPa 0,0 l/m 1,6 km/h (1 Bft) O-NO 67 0 min 0,000 mm 0,0 UV-I 0 W/m -3,8 C -3,3 C 3,2 km/h (1 Bft) 100,00 %
18.12.2017 23:03 -3,3 C 3,9 C 96 % 1029,3 hPa 0,0 l/m 1,6 km/h (1 Bft) O-NO 67 0 min 0,000 mm 0,0 UV-I 0 W/m -3,8 C -3,3 C 1,6 km/h (1 Bft) 95,65 %
18.12.2017 23:04 -3,3 C 3,9 C 96 % 1029,3 hPa 0,0 l/m 0,0 km/h (0 Bft) N 0 0 min 0,000 mm 0,0 UV-I 0 W/m -3,8 C -3,3 C 0,0 km/h (0 Bft) 100,00 %
18.12.2017 23:05 -3,3 C 3,9 C 96 % 1029,3 hPa 0,0 l/m 0,0 km/h (0 Bft) O-NO 67 0 min 0,000 mm 0,0 UV-I 0 W/m -3,8 C -3,3 C 3,2 km/h (1 Bft) 95,65 %
18.12.2017 23:06 -3,3 C 3,9 C 96 % 1029,3 hPa 0,0 l/m 3,2 km/h (1 Bft) O-NO 67 0 min 0,000 mm 0,0 UV-I 0 W/m -3,8 C -3,3 C 4,8 km/h (1 Bft) 95,65 %
18.12.2017 23:07 -3,2 C 3,9 C 96 % 1029,3 hPa 0,0 l/m 1,6 km/h (1 Bft) O-NO 67 0 min 0,000 mm 0,0 UV-I 0 W/m -3,7 C -3,2 C 3,2 km/h (1 Bft) 95,65 %
18.12.2017 23:08 -3,3 C 3,9 C 96 % 1029,4 hPa 0,0 l/m 1,6 km/h (1 Bft) O-NO 67 0 min 0,000 mm 0,0 UV-I 0 W/m -3,8 C -3,3 C 1,6 km/h (1 Bft) 100,00 %
18.12.2017 23:09 -3,2 C 3,9 C 96 % 1029,4 hPa 0,0 l/m 0,0 km/h (0 Bft) O-NO 67 0 min 0,000 mm 0,0 UV-I 0 W/m -3,7 C -3,2 C 1,6 km/h (1 Bft) 95,65 %
18.12.2017 23:10 -3,2 C 3,9 C 96 % 1029,4 hPa 0,0 l/m 0,0 km/h (0 Bft) N 0 0 min 0,000 mm 0,0 UV-I 0 W/m -3,7 C -3,2 C 0,0 km/h (0 Bft) 100,00 %
18.12.2017 23:11 -3,2 C 3,9 C 96 % 1029,4 hPa 0,0 l/m 0,0 km/h (0 Bft) N 0 0 min 0,000 mm 0,0 UV-I 0 W/m -3,7 C -3,2 C 0,0 km/h (0 Bft) 95,65 %
18.12.2017 23:12 -3,2 C 3,9 C 96 % 1029,4 hPa 0,0 l/m 0,0 km/h (0 Bft) O-NO 67 0 min 0,000 mm 0,0 UV-I 0 W/m -3,7 C -3,2 C 1,6 km/h (1 Bft) 95,65 %
18.12.2017 23:13 -3,2 C 3,9 C 96 % 1029,4 hPa 0,0 l/m 0,0 km/h (0 Bft) N 0 0 min 0,000 mm 0,0 UV-I 0 W/m -3,7 C -3,2 C 0,0 km/h (0 Bft) 95,65 %
18.12.2017 23:14 -3,2 C 3,9 C 96 % 1029,4 hPa 0,0 l/m 0,0 km/h (0 Bft) N 0 0 min 0,000 mm 0,0 UV-I 0 W/m -3,7 C -3,2 C 0,0 km/h (0 Bft) 100,00 %
18.12.2017 23:15 -3,2 C 3,9 C 96 % 1029,5 hPa 0,0 l/m 0,0 km/h (0 Bft) O-NO 67 0 min 0,000 mm 0,0 UV-I 0 W/m -3,7 C -3,2 C 1,6 km/h (1 Bft) 100,00 %
18.12.2017 23:16 -3,2 C 3,9 C 96 % 1029,4 hPa 0,0 l/m 1,6 km/h (1 Bft) O-NO 67 0 min 0,000 mm 0,0 UV-I 0 W/m -3,7 C -3,2 C 1,6 km/h (1 Bft) 95,65 %
18.12.2017 23:17 -3,3 C 3,9 C 96 % 1029,5 hPa 0,0 l/m 0,0 km/h (0 Bft) N 0 0 min 0,000 mm 0,0 UV-I 0 W/m -3,8 C -3,3 C 0,0 km/h (0 Bft) 100,00 %
18.12.2017 23:18 -3,3 C 3,9 C 96 % 1029,5 hPa 0,0 l/m 0,0 km/h (0 Bft) N 0 0 min 0,000 mm 0,0 UV-I 0 W/m -3,8 C -3,3 C 0,0 km/h (0 Bft) 100,00 %
18.12.2017 23:19 -3,3 C 3,9 C 96 % 1029,5 hPa 0,0 l/m 0,0 km/h (0 Bft) N 0 0 min 0,000 mm 0,0 UV-I 0 W/m -3,8 C -3,3 C 0,0 km/h (0 Bft) 100,00 %
18.12.2017 23:20 -3,3 C 3,9 C 96 % 1029,5 hPa 0,0 l/m 0,0 km/h (0 Bft) N 0 0 min 0,000 mm 0,0 UV-I 0 W/m -3,8 C -3,3 C 0,0 km/h (0 Bft) 91,30 %
18.12.2017 23:21 -3,3 C 3,9 C 96 % 1029,4 hPa 0,0 l/m 0,0 km/h (0 Bft) N 0 0 min 0,000 mm 0,0 UV-I 0 W/m -3,8 C -3,3 C 0,0 km/h (0 Bft) 100,00 %
18.12.2017 23:22 -3,3 C 3,9 C 96 % 1029,5 hPa 0,0 l/m 0,0 km/h (0 Bft) N 0 0 min 0,000 mm 0,0 UV-I 0 W/m -3,8 C -3,3 C 0,0 km/h (0 Bft) 95,65 %
18.12.2017 23:23 -3,3 C 3,9 C 96 % 1029,5 hPa 0,0 l/m 0,0 km/h (0 Bft) N 0 0 min 0,000 mm 0,0 UV-I 0 W/m -3,8 C -3,3 C 0,0 km/h (0 Bft) 100,00 %
18.12.2017 23:24 -3,3 C 3,9 C 96 % 1029,5 hPa 0,0 l/m 0,0 km/h (0 Bft) N 0 0 min 0,000 mm 0,0 UV-I 0 W/m -3,8 C -3,3 C 0,0 km/h (0 Bft) 95,65 %
18.12.2017 23:25 -3,3 C 3,9 C 96 % 1029,5 hPa 0,0 l/m 0,0 km/h (0 Bft) O-NO 67 0 min 0,000 mm 0,0 UV-I 0 W/m -3,8 C -3,3 C 1,6 km/h (1 Bft) 95,65 %
18.12.2017 23:26 -3,3 C 3,9 C 96 % 1029,5 hPa 0,0 l/m 0,0 km/h (0 Bft) N 0 0 min 0,000 mm 0,0 UV-I 0 W/m -3,8 C -3,3 C 0,0 km/h (0 Bft) 100,00 %
18.12.2017 23:27 -3,3 C 3,9 C 96 % 1029,5 hPa 0,0 l/m 0,0 km/h (0 Bft) N 0 0 min 0,000 mm 0,0 UV-I 0 W/m -3,8 C -3,3 C 0,0 km/h (0 Bft) 91,30 %
18.12.2017 23:28 -3,3 C 3,9 C 96 % 1029,5 hPa 0,0 l/m 0,0 km/h (0 Bft) N 0 0 min 0,000 mm 0,0 UV-I 0 W/m -3,8 C -3,3 C 0,0 km/h (0 Bft) 100,00 %
18.12.2017 23:29 -3,3 C 3,9 C 96 % 1029,5 hPa 0,0 l/m 0,0 km/h (0 Bft) O-NO 67 0 min 0,000 mm 0,0 UV-I 0 W/m -3,8 C -3,3 C 1,6 km/h (1 Bft) 95,65 %
18.12.2017 23:30 -3,3 C 3,9 C 96 % 1029,5 hPa 0,0 l/m 1,6 km/h (1 Bft) O-NO 67 0 min 0,000 mm 0,0 UV-I 0 W/m -3,8 C -3,3 C 3,2 km/h (1 Bft) 95,65 %
18.12.2017 23:31 -3,3 C 3,9 C 96 % 1029,6 hPa 0,0 l/m 1,6 km/h (1 Bft) O-NO 67 0 min 0,000 mm 0,0 UV-I 0 W/m -3,8 C -3,3 C 3,2 km/h (1 Bft) 95,65 %
18.12.2017 23:32 -3,2 C 3,9 C 96 % 1029,6 hPa 0,0 l/m 1,6 km/h (1 Bft) O-NO 67 0 min 0,000 mm 0,0 UV-I 0 W/m -3,7 C -3,2 C 3,2 km/h (1 Bft) 95,65 %
18.12.2017 23:33 -3,2 C 3,9 C 96 % 1029,6 hPa 0,0 l/m 1,6 km/h (1 Bft) O-NO 67 0 min 0,000 mm 0,0 UV-I 0 W/m -3,7 C -3,2 C 3,2 km/h (1 Bft) 100,00 %
18.12.2017 23:34 -3,2 C 3,9 C 96 % 1029,6 hPa 0,0 l/m 0,0 km/h (0 Bft) O-NO 67 0 min 0,000 mm 0,0 UV-I 0 W/m -3,7 C -3,2 C 1,6 km/h (1 Bft) 86,96 %
18.12.2017 23:35 -3,3 C 3,9 C 96 % 1029,6 hPa 0,0 l/m 0,0 km/h (0 Bft) O-NO 67 0 min 0,000 mm 0,0 UV-I 0 W/m -3,8 C -3,3 C 1,6 km/h (1 Bft) 100,00 %
18.12.2017 23:36 -3,3 C 3,9 C 96 % 1029,6 hPa 0,0 l/m 0,0 km/h (0 Bft) O-NO 67 0 min 0,000 mm 0,0 UV-I 0 W/m -3,8 C -3,3 C 1,6 km/h (1 Bft) 95,65 %
18.12.2017 23:37 -3,3 C 3,9 C 96 % 1029,6 hPa 0,0 l/m 0,0 km/h (0 Bft) N 0 0 min 0,000 mm 0,0 UV-I 0 W/m -3,8 C -3,3 C 0,0 km/h (0 Bft) 100,00 %
18.12.2017 23:38 -3,3 C 3,9 C 96 % 1029,6 hPa 0,0 l/m 0,0 km/h (0 Bft) N 0 0 min 0,000 mm 0,0 UV-I 0 W/m -3,8 C -3,3 C 0,0 km/h (0 Bft) 95,65 %
18.12.2017 23:39 -3,4 C 3,9 C 96 % 1029,7 hPa 0,0 l/m 0,0 km/h (0 Bft) N 0 0 min 0,000 mm 0,0 UV-I 0 W/m -3,9 C -3,4 C 0,0 km/h (0 Bft) 100,00 %
18.12.2017 23:40 -3,4 C 3,9 C 96 % 1029,7 hPa 0,0 l/m 3,2 km/h (1 Bft) O-NO 67 0 min 0,000 mm 0,0 UV-I 0 W/m -3,9 C -3,4 C 4,8 km/h (1 Bft) 95,65 %
18.12.2017 23:41 -3,5 C 3,9 C 96 % 1029,7 hPa 0,0 l/m 3,2 km/h (1 Bft) O-NO 67 0 min 0,000 mm 0,0 UV-I 0 W/m -4,0 C -3,5 C 4,8 km/h (1 Bft) 86,96 %
18.12.2017 23:42 -3,6 C 3,9 C 96 % 1029,7 hPa 0,0 l/m 3,2 km/h (1 Bft) O-NO 67 0 min 0,000 mm 0,0 UV-I 0 W/m -4,1 C -3,6 C 3,2 km/h (1 Bft) 100,00 %
18.12.2017 23:43 -3,6 C 3,9 C 96 % 1029,7 hPa 0,0 l/m 3,2 km/h (1 Bft) O-NO 67 0 min 0,000 mm 0,0 UV-I 0 W/m -4,1 C -3,6 C 4,8 km/h (1 Bft) 91,30 %
18.12.2017 23:44 -3,7 C 3,9 C 96 % 1029,7 hPa 0,0 l/m 3,2 km/h (1 Bft) W-NW 292 0 min 0,000 mm 0,0 UV-I 0 W/m -4,2 C -3,7 C 4,8 km/h (1 Bft) 100,00 %
18.12.2017 23:45 -3,7 C 3,9 C 96 % 1029,7 hPa 0,0 l/m 0,0 km/h (0 Bft) W-NW 292 0 min 0,000 mm 0,0 UV-I 0 W/m -4,2 C -3,7 C 3,2 km/h (1 Bft) 95,65 %
18.12.2017 23:46 -3,7 C 3,9 C 96 % 1029,7 hPa 0,0 l/m 0,0 km/h (0 Bft) W-NW 292 0 min 0,000 mm 0,0 UV-I 0 W/m -4,2 C -3,7 C 1,6 km/h (1 Bft) 100,00 %
18.12.2017 23:47 -3,7 C 3,9 C 96 % 1029,8 hPa 0,0 l/m 0,0 km/h (0 Bft) W-NW 292 0 min 0,000 mm 0,0 UV-I 0 W/m -4,2 C -3,7 C 1,6 km/h (1 Bft) 95,65 %
18.12.2017 23:48 -3,7 C 3,9 C 96 % 1029,8 hPa 0,0 l/m 3,2 km/h (1 Bft) W-NW 292 0 min 0,000 mm 0,0 UV-I 0 W/m -4,2 C -3,7 C 4,8 km/h (1 Bft) 95,65 %
18.12.2017 23:49 -3,7 C 3,9 C 96 % 1029,8 hPa 0,0 l/m 1,6 km/h (1 Bft) W-NW 292 0 min 0,000 mm 0,0 UV-I 0 W/m -4,2 C -3,7 C 3,2 km/h (1 Bft) 95,65 %
18.12.2017 23:50 -3,7 C 3,9 C 96 % 1029,7 hPa 0,0 l/m 0,0 km/h (0 Bft) W-NW 292 0 min 0,000 mm 0,0 UV-I 0 W/m -4,2 C -3,7 C 1,6 km/h (1 Bft) 95,65 %
18.12.2017 23:51 -3,7 C 3,9 C 96 % 1029,7 hPa 0,0 l/m 0,0 km/h (0 Bft) N 0 0 min 0,000 mm 0,0 UV-I 0 W/m -4,2 C -3,7 C 0,0 km/h (0 Bft) 100,00 %
18.12.2017 23:52 -3,7 C 3,9 C 96 % 1029,7 hPa 0,0 l/m 0,0 km/h (0 Bft) N 0 0 min 0,000 mm 0,0 UV-I 0 W/m -4,2 C -3,7 C 0,0 km/h (0 Bft) 91,30 %
18.12.2017 23:53 -3,7 C 3,9 C 96 % 1029,7 hPa 0,0 l/m 0,0 km/h (0 Bft) W-NW 292 0 min 0,000 mm 0,0 UV-I 0 W/m -4,2 C -3,7 C 1,6 km/h (1 Bft) 100,00 %
18.12.2017 23:54 -3,6 C 3,9 C 96 % 1029,6 hPa 0,0 l/m 1,6 km/h (1 Bft) W-NW 292 0 min 0,000 mm 0,0 UV-I 0 W/m -4,1 C -3,6 C 1,6 km/h (1 Bft) 95,65 %
18.12.2017 23:55 -3,6 C 3,9 C 96 % 1029,7 hPa 0,0 l/m 0,0 km/h (0 Bft) W-NW 292 0 min 0,000 mm 0,0 UV-I 0 W/m -4,1 C -3,6 C 1,6 km/h (1 Bft) 95,65 %
18.12.2017 23:56 -3,7 C 3,9 C 96 % 1029,6 hPa 0,0 l/m 1,6 km/h (1 Bft) W-NW 292 0 min 0,000 mm 0,0 UV-I 0 W/m -4,2 C -3,7 C 3,2 km/h (1 Bft) 95,65 %
18.12.2017 23:57 -3,7 C 3,9 C 96 % 1029,7 hPa 0,0 l/m 1,6 km/h (1 Bft) W-NW 292 0 min 0,000 mm 0,0 UV-I 0 W/m -4,2 C -3,7 C 3,2 km/h (1 Bft) 100,00 %
18.12.2017 23:58 -3,7 C 3,9 C 96 % 1029,7 hPa 0,0 l/m 1,6 km/h (1 Bft) W-NW 292 0 min 0,000 mm 0,0 UV-I 0 W/m -4,2 C -3,7 C 4,8 km/h (1 Bft) 100,00 %
18.12.2017 23:59 -3,7 C 3,9 C 96 % 1029,7 hPa 0,0 l/m 3,2 km/h (1 Bft) W-NW 292 0 min 0,000 mm 0,0 UV-I 0 W/m -4,2 C -3,7 C 4,8 km/h (1 Bft) 100,00 %
_ Min-Zeit 21:36 00:00 13:02 06:20 - 08:32 - - - - - - 21:19 02:20 08:32 14:33
Minimum _ -4,3 C 3,9 C 79 % 1023,7 hPa - 0,0 km/h (0 Bft) - - - - - - -4,9 C -11,4 C 0,0 km/h (0 Bft) 43,48 %
_ Max-Zeit 13:04 00:00 22:28 23:47 10:08 02:20 - - 14:33 12:00 11:30 11:30 01:02 13:04 01:52 00:02
Maximum _ 1,2 C 3,9 C 97 % 1029,8 hPa 0,2 l/m 23,6 km/h
W-SW (4 Bft)
- - 4 min 0,076 mm 0,6 UV-I 338 W/m -1,0 C 1,2 C 32,2 km/h
SW (5 Bft)
100,00 %
Durchschnitt _ -1,0 C 3,9 C 90 % 1025,4 hPa #0,4 l/m 5,2 km/h (1 Bft) W-SW - #2:35 h #0,304 mm 0,5 UV-I 106 W/m -2,4 C -2,6 C 7,6 km/h (2 Bft) 97,43 %